[[{"header":{"parameterUnit":"m.s-1","parameterCategory":1,"la1":30.6,"la2":28.766,"lo1":-90.7593,"lo2":-88.6598,"dy":0.0162,"dx":0.0183,"nx":116,"ny":114,"refTime":"2023-11-20T18:00:00:Z","depth":0,"parameterNumber":2,"parameterNumberName":"U-component_of_WINDS"},"data":[0.0,0.0,0.0,0.0,0.0,0.0,0.0,0.0,0.0,0.0,0.0,0.0,0.0,0.0,0.0,0.0,0.0,0.0,0.0,0.0,0.0,0.0,0.0,0.0,0.0,0.0,0.0,0.0,0.0,0.0,0.0,0.0,0.0,0.0,0.0,0.0,0.0,0.0,0.0,0.0,0.0,0.0,0.0,0.0,0.0,0.0,0.0,0.0,0.0,0.0,0.0,0.0,0.0,0.0,0.0,0.0,0.0,0.0,0.0,0.0,0.0,0.0,0.0,0.0,0.0,0.0,0.0,0.0,0.0,0.0,0.0,0.0,0.0,0.0,0.0,0.0,0.0,0.0,0.0,0.0,0.0,0.0,0.0,0.0,0.0,0.0,0.0,0.0,0.0,0.0,0.0,0.0,0.0,0.0,0.0,0.0,0.0,0.0,0.0,0.0,0.0,0.0,0.0,0.0,0.0,0.0,0.0,0.0,0.0,0.0,0.0,0.0,0.0,0.0,0.0,0.0,0.0,0.0,0.0,0.0,0.0,0.0,0.0,0.0,0.0,0.0,0.0,0.0,0.0,0.0,0.0,0.0,0.0,0.0,0.0,0.0,0.0,0.0,0.0,0.0,0.0,0.0,0.0,0.0,0.0,0.0,0.0,0.0,0.0,0.0,0.0,0.0,0.0,0.0,0.0,0.0,0.0,0.0,0.0,0.0,0.0,0.0,0.0,0.0,0.0,0.0,0.0,0.0,0.0,0.0,0.0,0.0,0.0,0.0,0.0,0.0,0.0,0.0,0.0,0.0,0.0,0.0,0.0,0.0,0.0,0.0,0.0,0.0,0.0,0.0,0.0,0.0,0.0,0.0,0.0,0.0,0.0,0.0,0.0,0.0,0.0,0.0,0.0,0.0,0.0,0.0,0.0,0.0,0.0,0.0,0.0,0.0,0.0,0.0,0.0,0.0,0.0,0.0,0.0,0.0,0.0,0.0,0.0,0.0,0.0,0.0,0.0,0.0,0.0,0.0,0.0,0.0,0.0,0.0,0.0,0.0,0.0,0.0,0.0,0.0,0.0,0.0,0.0,0.0,0.0,0.0,0.0,0.0,0.0,0.0,0.0,0.0,0.0,0.0,0.0,0.0,0.0,0.0,0.0,0.0,0.0,0.0,0.0,0.0,0.0,0.0,0.0,0.0,0.0,0.0,0.0,0.0,0.0,0.0,0.0,0.0,0.0,0.0,0.0,0.0,0.0,0.0,0.0,0.0,0.0,0.0,0.0,0.0,0.0,0.0,0.0,0.0,0.0,0.0,0.0,0.0,0.0,0.0,0.0,0.0,0.0,0.0,0.0,0.0,0.0,0.0,0.0,0.0,0.0,0.0,0.0,0.0,0.0,0.0,0.0,0.0,0.0,0.0,0.0,0.0,0.0,0.0,0.0,0.0,0.0,0.0,0.0,0.0,0.0,0.0,0.0,0.0,0.0,0.0,0.0,0.0,0.0,0.0,0.0,0.0,0.0,0.0,0.0,0.0,0.0,0.0,0.0,0.0,0.0,0.0,0.0,0.0,0.0,0.0,0.0,0.0,0.0,0.0,0.0,0.0,0.0,0.0,0.0,0.0,0.0,0.0,0.0,0.0,0.0,0.0,0.0,0.0,0.0,0.0,0.0,0.0,0.0,0.0,0.0,0.0,0.0,0.0,0.0,0.0,0.0,0.0,0.0,0.0,0.0,0.0,0.0,0.0,0.0,0.0,0.0,0.0,0.0,0.0,0.0,0.0,0.0,0.0,0.0,0.0,0.0,0.0,0.0,0.0,0.0,0.0,0.0,0.0,0.0,0.0,0.0,0.0,0.0,0.0,0.0,0.0,0.0,0.0,0.0,0.0,0.0,0.0,0.0,0.0,0.0,0.0,0.0,0.0,0.0,0.0,0.0,0.0,0.0,0.0,0.0,0.0,0.0,0.0,0.0,0.0,0.0,0.0,0.0,0.0,0.0,0.0,0.0,0.0,0.0,0.0,0.0,0.0,0.0,0.0,0.0,0.0,0.0,0.0,0.0,0.0,0.0,0.0,0.0,0.0,0.0,0.0,0.0,0.0,0.0,0.0,0.0,0.0,0.0,0.0,0.0,0.0,0.0,0.0,0.0,0.0,0.0,0.0,0.0,0.0,0.0,0.0,0.0,0.0,0.0,0.0,0.0,0.0,0.0,0.0,0.0,0.0,0.0,0.0,0.0,0.0,0.0,0.0,0.0,0.0,0.0,0.0,0.0,0.0,0.0,0.0,0.0,0.0,0.0,0.0,0.0,0.0,0.0,0.0,0.0,0.0,0.0,0.0,0.0,0.0,0.0,0.0,0.0,0.0,0.0,0.0,0.0,0.0,0.0,0.0,0.0,0.0,0.0,0.0,0.0,0.0,0.0,0.0,0.0,0.0,0.0,0.0,0.0,0.0,0.0,0.0,0.0,0.0,0.0,0.0,0.0,0.0,0.0,0.0,0.0,0.0,0.0,0.0,0.0,0.0,0.0,0.0,0.0,0.0,0.0,0.0,0.0,0.0,0.0,0.0,0.0,0.0,0.0,0.0,0.0,0.0,0.0,0.0,0.0,0.0,0.0,0.0,0.0,0.0,0.0,0.0,0.0,0.0,0.0,0.0,0.0,0.0,0.0,0.0,0.0,0.0,0.0,0.0,0.0,0.0,0.0,0.0,0.0,0.0,0.0,0.0,0.0,0.0,0.0,0.0,0.0,0.0,0.0,0.0,0.0,0.0,0.0,0.0,0.0,0.0,0.0,0.0,0.0,0.0,0.0,0.0,0.0,0.0,0.0,0.0,0.0,0.0,0.0,0.0,0.0,0.0,0.0,0.0,0.0,0.0,0.0,0.0,0.0,0.0,0.0,0.0,0.0,0.0,0.0,0.0,0.0,0.0,0.0,0.0,0.0,0.0,0.0,0.0,0.0,0.0,0.0,0.0,0.0,0.0,0.0,0.0,0.0,0.0,0.0,0.0,0.0,0.0,0.0,0.0,0.0,0.0,0.0,0.0,0.0,0.0,0.0,0.0,0.0,0.0,0.0,0.0,0.0,0.0,0.0,0.0,0.0,0.0,0.0,0.0,0.0,0.0,0.0,0.0,0.0,0.0,0.0,0.0,0.0,0.0,0.0,0.0,0.0,0.0,0.0,0.0,0.0,0.0,0.0,0.0,0.0,0.0,0.0,0.0,0.0,0.0,0.0,0.0,0.0,0.0,0.0,0.0,0.0,0.0,0.0,0.0,0.0,0.0,0.0,0.0,0.0,0.0,0.0,0.0,0.0,0.0,0.0,0.0,0.0,0.0,0.0,0.0,0.0,0.0,0.0,0.0,0.0,0.0,0.0,0.0,0.0,0.0,0.0,0.0,0.0,0.0,0.0,0.0,0.0,0.0,0.0,0.0,0.0,0.0,0.0,0.0,0.0,0.0,0.0,0.0,0.0,0.0,0.0,0.0,0.0,0.0,0.0,0.0,0.0,0.0,0.0,0.0,0.0,0.0,0.0,0.0,0.0,0.0,0.0,0.0,0.0,0.0,0.0,0.0,0.0,0.0,0.0,0.0,0.0,0.0,0.0,0.0,0.0,0.0,0.0,0.0,0.0,0.0,0.0,0.0,0.0,0.0,0.0,0.0,0.0,0.0,0.0,0.0,0.0,0.0,0.0,0.0,0.0,0.0,0.0,0.0,0.0,0.0,0.0,0.0,0.0,0.0,0.0,0.0,0.0,0.0,0.0,0.0,0.0,0.0,0.0,0.0,0.0,0.0,0.0,0.0,0.0,0.0,0.0,0.0,0.0,0.0,0.0,0.0,0.0,0.0,0.0,0.0,0.0,0.0,0.0,0.0,0.0,0.0,0.0,0.0,0.0,0.0,0.0,0.0,0.0,0.0,0.0,0.0,0.0,0.0,0.0,0.0,0.0,0.0,0.0,0.0,0.0,0.0,0.0,0.0,0.0,0.0,0.0,0.0,0.0,0.0,0.0,0.0,0.0,0.0,0.0,0.0,0.0,0.0,0.0,0.0,0.0,0.0,0.0,0.0,0.0,0.0,0.0,0.0,0.0,0.0,0.0,0.0,0.0,0.0,0.0,0.0,0.0,0.0,0.0,0.0,0.0,0.0,0.0,0.0,0.0,0.0,0.0,0.0,0.0,0.0,0.0,0.0,0.0,0.0,0.0,0.0,0.0,0.0,0.0,0.0,0.0,0.0,0.0,0.0,0.0,0.0,0.0,0.0,0.0,0.0,0.0,0.0,0.0,0.0,0.0,0.0,0.0,0.0,0.0,0.0,0.0,0.0,0.0,0.0,0.0,0.0,0.0,0.0,0.0,0.0,0.0,0.0,0.0,0.0,0.0,0.0,0.0,0.0,0.0,0.0,0.0,0.0,0.0,0.0,0.0,0.0,0.0,0.0,0.0,0.0,0.0,0.0,0.0,0.0,0.0,0.0,0.0,0.0,0.0,0.0,0.0,0.0,0.0,0.0,0.0,0.0,0.0,0.0,0.0,0.0,0.0,0.0,0.0,0.0,0.0,0.0,0.0,0.0,0.0,0.0,0.0,0.0,0.0,0.0,0.0,0.0,0.0,0.0,0.0,0.0,0.0,0.0,0.0,0.0,0.0,0.0,0.0,0.0,0.0,0.0,0.0,0.0,0.0,0.0,0.0,0.0,0.0,0.0,0.0,0.0,0.0,0.0,0.0,0.0,0.0,0.0,0.0,0.0,0.0,0.0,0.0,0.0,0.0,0.0,0.0,0.0,0.0,0.0,0.0,0.0,0.0,0.0,0.0,0.0,0.0,0.0,0.0,0.0,0.0,0.0,0.0,0.0,0.0,0.0,0.0,0.0,0.0,0.0,0.0,0.0,0.0,0.0,0.0,0.0,0.0,0.0,0.0,0.0,0.0,0.0,0.0,0.0,0.0,0.0,0.0,0.0,0.0,0.0,0.0,0.0,0.0,0.0,0.0,0.0,0.0,0.0,0.0,0.0,0.0,0.0,0.0,0.0,0.0,0.0,0.0,0.0,0.0,0.0,0.0,0.0,0.0,0.0,0.0,0.0,0.0,0.0,0.0,0.0,0.0,0.0,0.0,0.0,0.0,0.0,0.0,0.0,0.0,0.0,0.0,0.0,0.0,0.0,0.0,0.0,0.0,0.0,0.0,0.0,0.0,0.0,0.0,0.0,0.0,0.0,0.0,0.0,0.0,0.0,0.0,0.0,0.0,0.0,0.0,0.0,0.0,0.0,0.0,0.0,0.0,0.0,0.0,0.0,0.0,0.0,0.0,0.0,0.0,0.0,0.0,0.0,0.0,0.0,0.0,0.0,0.0,0.0,0.0,0.0,0.0,0.0,0.0,0.0,0.0,0.0,0.0,0.0,0.0,0.0,0.0,0.0,0.0,0.0,0.0,0.0,0.0,0.0,0.0,0.0,0.0,0.0,0.0,0.0,0.0,0.0,0.0,0.0,0.0,0.0,0.0,0.0,0.0,0.0,0.0,0.0,0.0,0.0,0.0,0.0,0.0,0.0,0.0,0.0,0.0,0.0,0.0,0.0,0.0,0.0,0.0,0.0,0.0,0.0,0.0,0.0,0.0,0.0,0.0,0.0,0.0,0.0,0.0,0.0,0.0,0.0,0.0,0.0,0.0,0.0,0.0,0.0,0.0,0.0,0.0,0.0,0.0,0.0,0.0,0.0,0.0,0.0,0.0,0.0,0.0,0.0,0.0,0.0,0.0,0.0,0.0,0.0,0.0,0.0,0.0,0.0,0.0,0.0,0.0,0.0,0.0,0.0,0.0,0.0,0.0,0.0,0.0,0.0,0.0,0.0,0.0,0.0,0.0,0.0,0.0,0.0,0.0,0.0,0.0,0.0,0.0,0.0,0.0,0.0,0.0,0.0,0.0,0.0,0.0,0.0,0.0,0.0,0.0,0.0,0.0,0.0,0.0,0.0,0.0,0.0,0.0,0.0,0.0,0.0,0.0,0.0,0.0,0.0,0.0,0.0,0.0,0.0,0.0,0.0,0.0,0.0,0.0,0.0,0.0,0.0,0.0,0.0,0.0,0.0,0.0,0.0,0.0,0.0,3.4039,0.0,0.0,0.0,0.0,0.0,0.0,0.0,0.0,0.0,0.0,0.0,0.0,0.0,0.0,0.0,0.0,0.0,0.0,0.0,0.0,0.0,0.0,0.0,0.0,0.0,0.0,0.0,0.0,0.0,0.0,0.0,0.0,0.0,0.0,0.0,0.0,0.0,0.0,0.0,0.0,0.0,0.0,0.0,0.0,0.0,0.0,0.0,0.0,0.0,0.0,0.0,0.0,0.0,0.0,0.0,0.0,0.0,0.0,0.0,0.0,0.0,0.0,0.0,0.0,0.0,0.0,0.0,0.0,0.0,0.0,0.0,0.0,0.0,0.0,0.0,0.0,0.0,0.0,0.0,0.0,0.0,0.0,0.0,0.0,0.0,0.0,0.0,0.0,0.0,0.0,0.0,0.0,0.0,0.0,0.0,0.0,0.0,0.0,0.0,0.0,0.0,0.0,0.0,0.0,0.0,0.0,0.0,0.0,0.0,0.0,0.0,0.0,0.0,0.0,0.0,0.0,3.409,0.0,0.0,0.0,0.0,0.0,0.0,0.0,0.0,0.0,0.0,0.0,0.0,0.0,0.0,0.0,0.0,0.0,0.0,0.0,0.0,0.0,0.0,0.0,0.0,0.0,0.0,3.0158,3.0389,3.0389,3.0766,3.097,3.097,3.0706,3.0611,3.0688,0.0,0.0,0.0,0.0,0.0,0.0,0.0,0.0,0.0,0.0,0.0,0.0,0.0,0.0,0.0,0.0,0.0,0.0,0.0,0.0,0.0,0.0,0.0,0.0,0.0,0.0,0.0,0.0,0.0,0.0,0.0,0.0,0.0,0.0,0.0,0.0,0.0,0.0,0.0,0.0,0.0,0.0,0.0,0.0,0.0,0.0,0.0,0.0,0.0,0.0,0.0,0.0,0.0,0.0,0.0,0.0,0.0,0.0,0.0,0.0,0.0,0.0,0.0,0.0,0.0,0.0,0.0,0.0,0.0,0.0,0.0,0.0,0.0,3.2906,3.2906,3.2906,3.2906,3.2906,3.2906,3.2906,3.3026,3.3251,3.3736,0.0,0.0,0.0,0.0,0.0,0.0,0.0,0.0,0.0,0.0,0.0,0.0,0.0,0.0,0.0,0.0,0.0,0.0,0.0,0.0,0.0,2.9126,2.9373,2.9373,2.9751,2.9978,2.9978,3.0046,3.0072,3.0072,3.0576,3.1043,3.146,3.1569,0.0,0.0,0.0,0.0,3.1379,3.1379,3.1319,3.1212,3.1622,0.0,0.0,0.0,0.0,0.0,0.0,0.0,0.0,0.0,0.0,0.0,0.0,0.0,0.0,0.0,0.0,0.0,0.0,0.0,0.0,0.0,0.0,0.0,0.0,0.0,0.0,0.0,0.0,0.0,0.0,0.0,0.0,0.0,0.0,0.0,0.0,0.0,0.0,0.0,0.0,0.0,0.0,0.0,3.1511,3.1511,0.0,0.0,0.0,0.0,0.0,0.0,0.0,0.0,0.0,0.0,0.0,0.0,0.0,3.1625,3.1625,3.1697,3.1725,3.1725,3.1725,3.1725,3.1725,3.1725,3.1725,3.1725,3.1725,0.0,3.3211,3.329,0.0,0.0,0.0,0.0,0.0,0.0,0.0,0.0,0.0,0.0,0.0,0.0,0.0,0.0,0.0,0.0,0.0,0.0,0.0,0.0,0.0,2.9929,3.0031,3.0031,3.0431,3.0685,3.0685,3.0893,3.1031,3.1031,3.108,3.1231,3.1428,3.1259,0.0,0.0,3.135,3.1161,3.091,3.091,3.091,3.091,3.1087,3.1566,3.2216,3.2216,0.0,0.0,0.0,0.0,0.0,0.0,0.0,0.0,0.0,0.0,0.0,0.0,0.0,0.0,0.0,0.0,0.0,0.0,0.0,0.0,0.0,0.0,0.0,0.0,0.0,0.0,0.0,0.0,0.0,0.0,0.0,0.0,0.0,0.0,0.0,0.0,0.0,0.0,0.0,3.1511,3.1511,3.1511,3.1511,3.1511,0.0,0.0,0.0,0.0,0.0,0.0,0.0,0.0,0.0,3.1511,3.1869,3.2049,3.2049,3.2437,3.2617,3.2617,3.2617,3.2617,3.2617,3.2617,3.2617,3.2617,3.2617,3.2913,3.333,3.2924,3.2911,3.3179,0.0,0.0,0.0,0.0,3.3948,3.391,0.0,0.0,0.0,0.0,0.0,0.0,0.0,0.0,0.0,0.0,0.0,0.0,3.0598,3.0598,3.0598,3.0598,3.091,3.1117,3.1117,3.1408,3.1566,3.1566,3.1277,3.1175,3.1292,3.0955,0.0,3.0598,3.094,3.094,3.0598,3.0598,3.0598,3.0598,3.0598,3.1029,3.1752,3.1752,3.2131,0.0,0.0,0.0,0.0,0.0,0.0,0.0,0.0,0.0,0.0,0.0,0.0,0.0,0.0,0.0,0.0,0.0,0.0,0.0,0.0,0.0,0.0,0.0,0.0,0.0,0.0,0.0,0.0,0.0,0.0,0.0,0.0,0.0,0.0,0.0,0.0,0.0,0.0,3.1511,3.1511,3.1511,3.1511,3.1496,0.0,0.0,0.0,0.0,0.0,0.0,3.1662,3.1648,3.1708,3.1886,3.2363,3.2646,3.2676,3.3169,3.3438,3.3499,3.3499,3.3499,3.3499,3.3499,3.3499,3.3499,3.3499,3.3499,3.344,3.2724,3.252,3.2684,3.2904,3.3079,3.3195,3.3195,3.3195,3.3185,0.0,0.0,0.0,0.0,0.0,0.0,0.0,0.0,0.0,0.0,0.0,3.0598,3.0598,3.0598,3.0598,3.0598,3.0627,3.0642,3.0642,3.0657,3.0657,3.0657,3.0657,3.0836,3.1278,3.1292,0.0,3.0598,3.0613,3.0613,3.0598,3.0598,3.0598,3.0598,3.0598,3.0866,3.1321,3.1321,3.1566,3.1991,0.0,0.0,0.0,0.0,0.0,0.0,0.0,0.0,0.0,0.0,0.0,0.0,0.0,0.0,0.0,0.0,0.0,0.0,0.0,0.0,0.0,0.0,0.0,0.0,0.0,0.0,0.0,0.0,0.0,0.0,0.0,0.0,0.0,0.0,0.0,0.0,0.0,0.0,0.0,3.1511,3.1511,0.0,0.0,0.0,0.0,3.1322,3.1307,3.156,3.2139,3.2047,3.2267,3.2901,3.296,3.3038,3.3163,3.3208,3.3315,3.3499,3.3499,3.3499,3.3499,3.3499,3.3499,3.3499,3.3499,3.3499,3.3455,3.2781,3.282,3.329,3.2686,3.2747,3.3195,3.3195,3.3195,3.3132,0.0,0.0,0.0,0.0,0.0,0.0,0.0,0.0,0.0,3.0598,3.0598,3.0598,3.0598,3.0598,3.0598,3.0598,3.0598,3.0598,3.0598,3.0598,3.0598,3.0598,3.0598,3.0672,3.0836,3.0851,3.0762,3.0598,3.0598,3.0598,3.0598,3.0598,3.0598,3.0598,3.0598,3.0687,3.0851,3.0851,3.1102,3.1523,3.1695,3.1922,0.0,0.0,0.0,0.0,0.0,0.0,0.0,0.0,0.0,0.0,0.0,0.0,0.0,0.0,0.0,0.0,0.0,0.0,0.0,0.0,0.0,0.0,0.0,0.0,0.0,0.0,0.0,0.0,0.0,0.0,0.0,0.0,0.0,0.0,0.0,0.0,0.0,3.1496,3.1351,0.0,3.1307,3.1278,3.1383,3.1708,3.1752,3.2032,3.2682,3.268,3.2752,3.2989,3.3432,3.3671,3.3704,3.4101,3.4339,3.4404,3.4404,3.4404,3.4404,3.4404,3.4468,3.4595,3.4595,3.466,3.4741,3.4053,3.3652,3.3426,3.32,3.3226,3.3386,3.3386,3.3386,3.3296,0.0,0.0,0.0,0.0,0.0,0.0,0.0,0.0,3.0598,3.0598,3.0598,3.0598,3.0598,3.0598,3.0598,3.0598,3.0598,3.0598,3.0598,3.0598,3.0598,3.0598,3.0598,3.0598,3.0598,3.0598,3.0598,3.0598,3.0598,3.0598,3.0598,3.0598,3.0598,3.0598,3.0598,3.0598,3.0598,3.0598,3.0777,3.1073,3.1234,3.1466,3.1709,0.0,0.0,0.0,0.0,0.0,0.0,0.0,0.0,0.0,0.0,0.0,0.0,0.0,0.0,0.0,0.0,0.0,0.0,0.0,0.0,0.0,0.0,0.0,0.0,0.0,0.0,0.0,0.0,0.0,0.0,0.0,0.0,0.0,0.0,0.0,3.1351,3.1467,3.1442,3.1442,3.1531,3.1648,3.1883,3.2203,3.2232,3.2541,3.3189,3.3185,3.3256,3.346,3.3901,3.417,3.425,3.4629,3.4866,3.4902,3.4902,3.4902,3.4902,3.4902,3.4968,3.5098,3.5098,3.5197,3.5362,3.4851,3.4404,3.405,3.3664,3.3499,3.3499,3.3499,3.3454,3.3333,0.0,0.0,0.0,0.0,0.0,0.0,0.0,3.0598,3.0598,3.0598,3.0598,3.0598,3.0598,3.0598,3.0598,3.0598,3.0598,3.0598,3.0598,3.0598,3.0598,3.0598,3.0598,3.0598,3.0598,3.0598,3.0598,3.0598,3.0598,3.0598,3.0598,3.0598,3.0598,3.0598,3.0598,3.0598,3.0598,3.0598,3.0598,3.0643,3.1102,3.1278,3.1321,0.0,0.0,0.0,0.0,0.0,0.0,0.0,0.0,0.0,0.0,0.0,0.0,0.0,0.0,0.0,0.0,0.0,0.0,0.0,0.0,0.0,0.0,0.0,0.0,0.0,0.0,0.0,0.0,0.0,0.0,0.0,0.0,0.0,3.1307,3.1307,3.1366,3.1511,3.1812,3.2029,3.2015,3.2604,3.291,3.2735,3.2719,3.3027,3.3718,3.3629,3.3835,3.4426,3.4455,3.454,3.4756,3.4756,3.4808,3.4944,3.4944,3.4944,3.4944,3.4944,3.4944,3.496,3.496,3.5075,3.5223,3.5043,3.506,3.5137,3.399,3.3544,3.3544,3.3544,3.3406,3.3206,0.0,0.0,0.0,0.0,0.0,0.0,0.0,3.0598,3.0598,3.0598,3.0598,3.0598,3.0598,3.0598,3.0598,3.0598,3.0598,3.0598,3.0598,3.0598,3.0598,3.0598,3.0598,3.0598,3.0598,3.0598,3.0598,3.0598,3.0598,3.0598,3.0598,3.0598,3.0598,3.0598,3.0598,3.0598,3.0598,3.0598,3.0598,3.0598,3.0732,3.0792,3.0807,0.0,0.0,0.0,0.0,0.0,0.0,0.0,0.0,0.0,0.0,0.0,0.0,0.0,0.0,0.0,0.0,0.0,0.0,0.0,0.0,0.0,0.0,0.0,0.0,0.0,0.0,0.0,0.0,0.0,0.0,0.0,0.0,3.1031,3.1146,3.153,3.1811,3.1871,3.217,3.2409,3.249,3.2587,3.2813,3.3247,3.3276,3.3756,3.4879,3.4903,3.5142,3.5764,3.5793,3.581,3.5863,3.5863,3.5881,3.5918,3.5918,3.5918,3.5918,3.5918,3.5988,3.6125,3.6125,3.6229,3.6369,3.6286,3.6318,3.6237,3.5004,3.4518,3.4518,3.4518,3.4191,3.3744,0.0,0.0,0.0,0.0,0.0,0.0,0.0,3.0598,3.0598,3.0598,3.0598,3.0598,3.0598,3.0598,3.0598,3.0598,3.0598,3.0598,3.0598,3.0598,3.0598,3.0598,3.0598,3.0598,3.0598,3.0598,3.0598,3.0598,3.0598,3.0598,3.0598,3.0598,3.0598,3.0598,3.0598,3.0598,3.0598,3.0598,3.0598,3.0598,3.0598,3.0598,3.0598,3.0598,3.0598,3.0598,3.0598,3.0657,3.0717,3.0777,0.0,0.0,0.0,0.0,0.0,0.0,0.0,0.0,0.0,0.0,0.0,0.0,0.0,0.0,0.0,0.0,0.0,0.0,0.0,0.0,0.0,0.0,0.0,0.0,3.0761,3.0731,3.0725,3.1358,3.198,3.2367,3.2703,3.3071,3.3464,3.3625,3.3978,3.462,3.4678,3.4997,3.5738,3.5781,3.5941,3.6301,3.6301,3.6301,3.6301,3.6301,3.6301,3.6301,3.6301,3.6301,3.6301,3.6301,3.6369,3.6475,3.6475,3.6564,3.6708,3.662,3.6638,0.0,0.0,0.0,0.0,0.0,3.5375,3.5052,0.0,0.0,0.0,0.0,0.0,0.0,0.0,3.0598,3.0598,3.0598,3.0598,3.0598,3.0598,3.0598,3.0598,3.0598,3.0598,3.0598,3.0598,3.0598,3.0598,3.0598,3.0598,3.0598,3.0598,3.0598,3.0598,3.0598,3.0655,3.0699,3.0699,3.0771,3.08,3.08,3.0743,3.0699,3.0699,3.0641,3.0598,3.0598,3.0598,3.0598,3.0598,3.0598,3.0598,3.0598,3.0598,3.0598,3.0627,3.0747,0.0,0.0,0.0,0.0,0.0,0.0,0.0,0.0,0.0,0.0,0.0,0.0,0.0,0.0,0.0,0.0,0.0,0.0,0.0,0.0,0.0,0.0,0.0,0.0,3.0477,3.0508,3.0414,3.1183,3.2063,3.2925,3.3487,3.406,3.4731,3.5228,3.5723,3.6272,3.6301,3.6326,3.6417,0.0,0.0,0.0,0.0,3.6519,3.6519,3.6519,3.6519,3.6519,3.6519,3.6519,3.6519,3.6519,3.6519,3.6519,3.6519,3.6623,3.6765,3.6587,3.6623,3.6769,3.6749,3.6728,3.6743,3.6617,3.6579,3.6529,0.0,0.0,0.0,0.0,0.0,0.0,0.0,3.0598,3.0598,3.0598,3.0598,3.0598,3.0598,3.0598,3.0598,3.0598,3.0598,3.0598,3.0598,3.0598,3.0598,3.0598,3.0598,3.0598,3.0598,3.0598,3.0598,3.0598,3.109,3.1321,3.1336,3.1888,3.2119,3.2105,3.1584,3.1321,3.1278,3.0815,3.0598,3.0598,3.0598,3.0598,3.0598,3.0598,3.0598,3.0598,3.0598,3.0598,3.0598,3.0642,3.0747,3.0866,3.0866,0.0,0.0,0.0,0.0,0.0,0.0,0.0,0.0,0.0,0.0,0.0,0.0,0.0,0.0,0.0,0.0,0.0,0.0,0.0,0.0,3.0443,3.0236,3.0475,3.1519,3.2268,3.2838,3.314,3.4695,3.5807,3.5959,3.6072,3.617,3.6301,3.6301,3.6548,3.7085,3.7114,3.7331,3.7825,3.7839,3.7839,3.7839,3.7839,3.7839,3.7839,0.0,0.0,3.7839,3.7839,3.7839,3.7839,3.7839,3.7858,3.7895,3.7858,3.7858,3.7793,3.6797,3.639,3.639,3.6369,3.6369,3.6351,0.0,0.0,0.0,0.0,0.0,0.0,0.0,3.0598,3.0598,3.0598,3.0598,3.0598,3.0598,3.0598,3.0598,3.0598,3.0598,3.0598,0.0,3.0598,3.0598,3.0598,3.0598,3.0742,3.1032,3.1047,3.1206,3.154,3.1844,3.2003,3.2018,3.2351,3.2497,3.2497,3.2148,3.2003,3.1989,3.1685,3.154,3.1511,3.1177,3.1047,3.1018,3.0699,3.0598,3.0598,3.0598,3.0598,3.0598,3.0598,3.0687,3.0791,3.0717,3.088,3.1132,0.0,0.0,0.0,0.0,0.0,0.0,0.0,0.0,0.0,0.0,0.0,0.0,0.0,0.0,3.1379,0.0,0.0,3.0726,3.053,3.039,3.0624,3.1558,3.2585,3.3462,3.403,3.54,3.6428,3.678,3.6809,3.6939,3.723,3.7259,3.7404,3.7738,3.7752,3.7897,3.8188,3.8202,3.8202,3.8202,3.8202,3.8202,3.8202,3.8202,3.8202,3.8202,3.8202,3.8202,3.8202,3.8202,3.8202,3.8202,3.8202,3.8202,3.8144,3.7506,3.7259,3.7259,3.7259,3.7259,3.7259,0.0,0.0,0.0,0.0,0.0,0.0,0.0,0.0,3.0598,3.0598,3.0598,3.0598,3.0598,3.0598,3.0598,3.0598,3.0598,0.0,0.0,3.0598,3.0598,3.0598,3.0699,3.0988,3.1496,3.1626,3.196,3.2497,3.2627,3.2685,3.2685,3.2816,3.2874,3.2859,3.2743,3.2685,3.2701,3.2555,3.2497,3.2453,3.1916,3.1699,3.1641,3.1163,3.083,3.0598,3.0598,3.0522,3.0447,3.0683,3.0756,3.0741,3.0749,3.093,3.1153,3.1228,3.0997,0.0,0.0,0.0,0.0,0.0,0.0,0.0,0.0,0.0,3.1281,3.1391,3.1764,3.1723,3.063,3.0788,3.1008,3.079,3.0771,3.0947,3.1474,3.2674,3.3834,3.4768,3.5781,3.67,3.7415,3.7458,3.768,3.8159,3.8202,3.8202,3.8202,3.8202,3.8202,3.8202,3.8202,3.8202,3.8202,3.8202,3.8202,3.8202,3.8202,3.8202,3.8202,3.8202,3.8202,3.8202,3.8202,3.8202,3.8202,3.8202,3.8202,3.8202,3.8202,3.8202,3.8202,3.8202,3.8202,3.8202,0.0,0.0,0.0,0.0,0.0,0.0,0.0,0.0,0.0,3.0598,3.0598,3.0598,3.0598,3.0598,3.0598,3.0598,3.0598,0.0,3.0598,3.0598,3.0598,3.0598,3.1105,3.1423,3.151,3.209,3.2424,3.2497,3.3109,3.3402,3.3402,3.3935,3.4179,3.4165,3.3632,3.3402,3.3342,3.2759,3.2497,3.2497,3.2424,3.2395,3.238,3.2308,3.1584,3.0598,3.0598,3.0221,2.9878,3.1021,3.1007,3.0603,3.1073,3.1256,3.1141,3.0527,0.0,3.0463,3.0514,3.051,3.0569,3.0808,3.0514,3.0132,0.0,0.0,2.9999,3.0017,3.0075,3.0208,3.0518,3.0639,3.0802,3.1231,3.1298,3.1499,3.2039,3.2919,3.3727,3.4383,3.5864,3.7172,3.8011,3.8101,3.813,3.8202,3.8202,3.8202,3.8202,3.8202,3.8202,3.8202,3.8202,3.8202,3.8202,3.8202,3.8202,3.8202,3.8202,3.8202,3.8202,3.8202,3.8202,3.8202,3.8202,3.8202,3.8202,3.8202,3.8202,3.8202,3.8202,3.8202,3.8202,3.8202,3.8202,3.8202,0.0,0.0,0.0,0.0,0.0,0.0,0.0,0.0,0.0,0.0,3.0598,3.0598,3.0598,3.0598,3.0598,3.0598,0.0,0.0,3.0598,3.0598,3.0598,3.0598,3.0844,3.1134,3.1496,3.2163,3.2701,3.3079,3.3703,3.4008,3.4022,3.4283,3.4397,3.4382,3.4138,3.4008,3.4008,3.3715,3.3614,3.3537,3.2706,3.2383,3.234,3.1952,3.1192,3.042,3.0853,3.0821,0.0,0.0,3.0563,3.0371,3.0585,3.0667,3.0668,3.0713,3.0458,0.0,3.0056,3.0065,3.0123,0.0,3.0094,2.9895,2.9811,2.9792,2.9918,3.035,3.0347,3.0484,3.1125,3.1133,3.1235,0.0,3.1863,3.2064,3.2641,3.3043,3.354,3.4309,3.5012,3.597,3.7304,3.7905,3.8202,3.8202,3.8202,3.8202,3.8202,3.8202,3.8202,3.8202,3.8202,3.8202,3.8202,3.8202,3.8202,3.8202,3.8202,3.8202,3.8202,3.8202,3.8202,3.8202,3.8202,3.8202,3.8202,3.8202,3.8202,3.8202,3.8202,3.8202,3.8202,3.8202,3.8202,3.8202,0.0,0.0,0.0,0.0,0.0,0.0,0.0,0.0,0.0,0.0,0.0,3.0598,3.0598,3.0598,3.0598,0.0,0.0,0.0,0.0,3.0598,3.0598,3.0598,3.0931,3.1322,3.1771,3.2598,3.3267,3.3748,3.4196,3.4397,3.4397,3.4397,3.4397,3.4397,3.4397,3.4397,3.4397,3.4397,3.4397,3.432,3.3291,3.2888,3.2832,3.2328,3.169,3.1038,3.1232,3.104,0.0,0.0,3.0342,3.0212,3.0342,3.0396,3.0441,3.0666,3.0461,3.0123,2.9871,0.0,0.0,3.0018,3.0018,3.0055,3.0206,3.0231,3.0383,3.0933,3.0921,3.1037,3.1721,3.1727,3.18,3.2365,3.2453,3.2604,3.304,3.3102,3.3326,3.3971,3.4251,3.4971,3.6399,3.7116,3.7477,3.7477,3.7701,3.7739,3.7496,3.7943,3.8089,3.7848,3.8071,3.8202,3.8202,3.8202,3.8202,3.8202,3.8202,3.8202,3.8202,3.8202,3.8202,3.8202,3.8202,3.8202,3.8202,3.8202,3.8202,3.8202,3.8202,3.8202,3.8202,3.8202,3.8202,3.8202,0.0,0.0,0.0,0.0,0.0,0.0,0.0,0.0,0.0,0.0,0.0,0.0,0.0,0.0,3.0598,0.0,0.0,0.0,0.0,3.0598,3.0598,3.0598,3.1787,3.2453,3.2468,3.3701,3.4353,3.4368,3.4382,3.4397,3.4397,3.4397,3.4397,3.4397,3.4397,3.4397,3.4397,3.4397,3.4397,3.4397,3.4351,3.4334,3.432,3.4305,3.3819,3.295,3.1741,0.0,0.0,0.0,3.0646,3.0187,3.071,3.088,0.0,3.0037,3.0182,3.0477,0.0,0.0,3.0575,3.0575,3.0575,3.0701,3.1223,3.1356,3.1369,3.1381,3.1381,3.1537,3.2089,3.219,3.2378,3.2977,3.3077,3.3077,3.3102,3.3102,3.3124,3.3145,3.3886,3.4724,0.0,3.5655,3.5675,3.5675,3.6458,3.6557,3.5715,3.729,3.781,3.6975,3.7772,3.8202,3.8202,3.8202,3.8202,3.8202,3.8202,3.8202,3.8202,3.8202,3.8202,3.8202,3.8202,3.8202,3.8202,3.8202,3.8202,3.8202,3.8202,3.8202,3.8202,3.8202,3.8202,3.8202,0.0,0.0,0.0,0.0,0.0,0.0,0.0,0.0,0.0,0.0,0.0,0.0,0.0,0.0,0.0,0.0,0.0,0.0,0.0,3.1859,3.1859,3.1859,3.2264,3.2497,3.2497,3.3371,3.3806,3.3806,3.4196,3.4397,3.4397,3.4397,3.4397,3.4397,3.4397,3.4397,3.4397,3.4397,3.4397,3.4349,3.3811,3.3311,3.2875,3.2875,3.2069,3.0957,0.0,0.0,0.0,3.0259,3.0086,2.9935,3.0114,3.0177,3.0196,3.0297,3.0721,3.1085,3.0896,0.0,3.1135,3.1135,3.1135,3.1173,3.1369,3.1406,3.1499,3.1863,3.1938,3.2114,3.2679,3.2801,3.2855,3.3065,3.3102,3.3102,3.3102,3.3102,3.3102,3.3102,3.3368,0.0,0.0,0.0,0.0,3.729,3.7606,3.7625,3.7328,3.7886,3.8071,3.7772,3.7491,3.7342,3.7342,3.7342,3.7342,3.7342,3.7924,3.8202,3.8202,3.8202,3.8202,3.8202,3.8202,3.8202,3.8202,3.8202,3.8202,3.8202,3.8202,3.8202,3.8202,3.8202,3.8202,3.8202,0.0,0.0,0.0,0.0,0.0,0.0,0.0,0.0,0.0,0.0,0.0,0.0,0.0,0.0,0.0,0.0,0.0,0.0,0.0,0.0,3.2497,3.2497,3.273,3.2861,3.2861,3.3501,3.3821,3.3821,3.4211,3.4397,3.4397,3.4397,3.4397,3.4397,3.4397,3.4397,3.4397,3.4397,3.423,3.3928,3.3402,3.2755,3.2092,3.2092,3.1312,0.0,0.0,0.0,0.0,3.0016,2.9792,2.9829,3.003,3.0218,3.0432,3.0783,3.1273,3.1637,3.1449,3.1537,3.1687,3.1687,3.1687,3.1738,3.1972,3.2009,3.2123,3.2453,3.2516,3.2641,3.3027,3.3102,3.3102,3.3102,3.3102,3.3102,3.3102,3.3102,3.3102,3.3102,3.3102,3.3219,0.0,0.0,0.0,3.6379,3.6669,3.6708,3.6399,3.6961,3.7136,3.6858,3.659,3.6439,3.6439,3.6439,3.6576,3.6917,3.7791,3.8202,3.8202,3.8202,3.8202,3.8202,3.8202,3.8202,3.8202,3.8202,3.8202,3.8202,3.8202,3.8202,3.8202,3.8202,3.8202,3.8202,0.0,0.0,0.0,0.0,0.0,0.0,0.0,0.0,0.0,0.0,0.0,0.0,0.0,0.0,0.0,0.0,0.0,0.0,0.0,0.0,0.0,3.2598,3.3211,3.3547,3.3547,3.4109,3.4397,3.4397,3.4397,3.4397,3.4397,3.4397,3.4397,3.4397,3.4397,3.4397,3.4397,3.4397,3.3928,3.3196,3.3231,3.2773,3.2037,3.2074,0.0,0.0,0.0,0.0,0.0,0.0,0.0,0.0,0.0,3.1009,3.1436,3.1436,3.1825,3.2139,3.1625,3.1863,3.2252,3.2252,3.2252,3.2403,3.2977,3.3102,3.3102,3.3102,3.3102,3.3102,0.0,0.0,3.3102,3.3102,3.3128,3.314,3.314,3.3165,3.3178,0.0,0.0,0.0,0.0,0.0,0.0,3.3294,0.0,3.423,3.3398,3.4869,3.5379,3.4613,3.5325,3.5729,3.5729,3.5757,3.6204,3.706,3.7868,3.826,3.826,3.8217,3.8202,3.8202,3.8202,3.8202,3.8202,3.8202,3.8202,3.8202,3.8202,3.8202,3.8202,3.8202,3.8202,3.8202,0.0,0.0,0.0,0.0,0.0,0.0,0.0,0.0,0.0,0.0,0.0,0.0,0.0,0.0,0.0,0.0,0.0,0.0,0.0,0.0,0.0,0.0,0.0,0.0,0.0,0.0,0.0,3.4397,3.4397,3.4397,3.4397,3.4397,3.4397,3.4397,3.4397,3.4397,3.4397,3.4397,3.3928,3.3262,0.0,3.2928,3.1267,0.0,0.0,0.0,0.0,0.0,0.0,0.0,0.0,0.0,0.0,3.1562,3.2001,3.2001,3.2403,3.2851,3.27,3.2776,3.2876,3.2876,3.2876,3.2914,3.3065,3.3102,3.3102,3.3102,3.3102,3.3102,0.0,0.0,0.0,3.3102,3.3442,0.0,3.3696,3.4048,0.0,3.4276,0.0,3.4388,3.4597,3.4805,0.0,0.0,3.6123,3.713,3.6922,3.729,3.7438,3.7227,3.7279,3.7318,3.7318,3.7813,3.8474,3.9283,3.9064,3.8942,3.8928,3.8434,3.8202,3.8202,3.8202,3.8202,3.8202,3.8202,3.8202,3.8202,3.8202,3.8202,3.8202,3.8202,3.8202,3.8202,0.0,0.0,0.0,0.0,0.0,0.0,0.0,0.0,0.0,0.0,0.0,0.0,0.0,0.0,0.0,0.0,0.0,0.0,0.0,0.0,0.0,0.0,0.0,0.0,0.0,0.0,0.0,0.0,0.0,0.0,3.4397,3.4397,3.4397,3.4397,3.4397,3.4213,3.3894,3.4247,0.0,0.0,0.0,0.0,0.0,0.0,0.0,0.0,0.0,0.0,0.0,0.0,0.0,3.175,3.175,3.2139,3.2591,3.2591,0.0,3.3102,3.3102,3.3102,3.3102,3.3102,3.3102,3.3102,3.3102,3.3102,3.3102,3.3102,3.3102,0.0,0.0,0.0,0.0,0.0,0.0,0.0,3.4223,3.4502,3.4703,0.0,3.4703,0.0,3.4703,3.506,3.5258,0.0,3.6138,3.6661,3.6661,3.6661,3.6661,3.6661,3.6554,3.6511,3.6511,3.7661,3.8469,3.8926,3.9388,3.9596,3.9581,3.9204,3.903,3.903,0.0,3.903,3.9015,3.8754,3.8638,3.8609,3.8318,3.8202,3.8202,3.8202,3.8202,3.8202,0.0,0.0,0.0,0.0,0.0,0.0,0.0,0.0,0.0,0.0,0.0,0.0,0.0,0.0,0.0,0.0,0.0,0.0,0.0,0.0,0.0,0.0,0.0,0.0,0.0,0.0,0.0,0.0,0.0,0.0,0.0,0.0,0.0,0.0,0.0,0.0,0.0,0.0,0.0,0.0,0.0,0.0,0.0,0.0,0.0,0.0,0.0,0.0,0.0,0.0,3.2763,3.2328,3.2328,3.2667,3.3102,3.3102,3.3102,3.3102,3.3102,3.3102,3.3102,3.3102,3.3102,3.3102,3.3102,3.3102,3.3102,3.3102,0.0,3.3102,3.3102,3.3153,3.3366,3.3822,0.0,3.4264,3.4741,3.4879,3.4939,3.4939,3.4939,3.4939,3.4939,3.5609,3.605,3.605,3.5353,3.4954,3.505,3.5038,3.5098,3.5161,3.5174,3.5235,3.5298,3.686,3.7685,3.7833,3.9319,4.0101,4.0234,4.0133,4.0104,4.0104,4.0104,4.0104,4.006,3.9538,3.932,3.9262,3.8681,3.8449,3.8449,3.8362,3.8333,3.8318,0.0,0.0,0.0,0.0,0.0,0.0,0.0,0.0,0.0,0.0,0.0,0.0,0.0,0.0,0.0,0.0,0.0,0.0,0.0,0.0,0.0,0.0,0.0,0.0,0.0,0.0,0.0,0.0,0.0,0.0,0.0,0.0,0.0,0.0,0.0,0.0,0.0,0.0,0.0,0.0,0.0,0.0,0.0,0.0,0.0,0.0,0.0,0.0,0.0,0.0,3.3177,3.2952,3.2952,3.3027,3.3102,3.3102,3.3102,3.3102,3.3102,3.3102,3.3102,3.3102,3.3102,3.3102,3.3102,3.3102,0.0,0.0,3.3102,3.3102,3.3102,3.3467,3.3784,3.3884,0.0,0.0,0.0,0.0,3.6105,0.0,0.0,0.0,0.0,0.0,0.0,0.0,3.6186,3.6309,3.6825,3.6836,3.7107,3.7653,3.7667,3.793,3.8399,3.8722,3.9292,4.0032,3.9851,4.0177,4.0902,4.035,4.0104,4.0104,4.0104,0.0,4.0089,3.9987,3.9944,3.9929,3.9813,3.977,3.9712,3.9218,3.903,3.8942,0.0,0.0,0.0,0.0,0.0,0.0,0.0,0.0,0.0,0.0,3.4281,0.0,0.0,0.0,0.0,0.0,0.0,0.0,0.0,0.0,0.0,0.0,0.0,0.0,0.0,0.0,0.0,0.0,0.0,0.0,0.0,0.0,0.0,0.0,0.0,0.0,0.0,0.0,0.0,0.0,0.0,0.0,0.0,0.0,0.0,0.0,0.0,0.0,0.0,0.0,3.3492,3.3377,3.3176,3.3102,3.3102,3.3102,3.3102,3.3102,3.3102,3.3102,3.3102,3.3102,3.3102,3.3102,3.3102,0.0,0.0,0.0,3.3102,3.3328,3.4097,0.0,0.0,0.0,0.0,0.0,0.0,0.0,0.0,0.0,0.0,0.0,0.0,0.0,0.0,3.6405,3.6405,3.6527,3.6831,3.7307,3.7714,3.8038,3.8051,3.7924,3.7736,3.8238,3.8698,3.9166,3.9341,3.9692,4.0104,4.029,4.0355,4.0375,4.0903,4.1134,4.1105,4.0757,4.0612,4.0583,4.0234,4.0104,4.006,3.977,3.9668,3.9625,0.0,0.0,0.0,0.0,0.0,0.0,0.0,3.4769,3.4968,3.4968,3.5001,3.5017,3.5017,3.485,0.0,0.0,0.0,0.0,0.0,0.0,0.0,0.0,0.0,0.0,0.0,0.0,0.0,0.0,0.0,0.0,0.0,0.0,0.0,0.0,0.0,0.0,0.0,0.0,0.0,0.0,0.0,0.0,0.0,0.0,0.0,0.0,0.0,0.0,0.0,0.0,3.3755,3.3641,3.3334,3.3197,3.3154,3.3124,3.3102,3.3102,3.3102,3.3102,3.3102,3.3102,3.3102,3.3102,3.3102,3.3102,0.0,0.0,3.3438,3.3964,3.5243,0.0,0.0,0.0,0.0,0.0,0.0,0.0,0.0,0.0,0.0,0.0,0.0,0.0,0.0,3.6405,3.6405,3.6405,3.6405,3.7106,3.75,3.75,3.75,3.7152,3.6405,3.7129,3.7602,3.7808,3.8742,3.921,3.9219,4.0159,4.0482,4.0367,4.1353,4.1773,4.175,4.143,4.1308,4.123,4.0513,4.035,4.049,4.0132,4.0148,4.0292,0.0,0.0,0.0,0.0,0.0,0.0,0.0,3.5049,3.5164,3.5164,3.5326,3.5439,3.5439,3.5115,0.0,0.0,0.0,0.0,0.0,0.0,0.0,0.0,0.0,0.0,0.0,0.0,0.0,0.0,0.0,0.0,0.0,0.0,0.0,0.0,0.0,0.0,0.0,0.0,0.0,0.0,0.0,0.0,0.0,0.0,0.0,0.0,0.0,0.0,0.0,0.0,0.0,3.3691,3.3649,3.3513,3.3334,3.3154,0.0,0.0,3.3102,3.3102,3.3102,3.3102,3.3102,3.3102,3.3102,0.0,0.0,3.3721,3.449,3.5278,3.5918,0.0,0.0,0.0,0.0,0.0,0.0,0.0,0.0,0.0,0.0,0.0,0.0,0.0,0.0,3.6405,3.6405,3.6405,3.6405,3.6476,3.6523,3.6523,3.6523,3.6499,3.6405,3.6499,3.6956,3.7808,3.8742,3.921,3.9219,4.0159,4.0138,3.9373,4.0324,4.0731,0.0,4.1659,4.2005,4.1908,4.0936,4.1111,4.1728,4.027,4.0283,4.0916,0.0,0.0,0.0,0.0,0.0,0.0,0.0,3.5164,3.5343,3.5213,3.5375,3.5504,3.5504,3.5359,0.0,0.0,0.0,0.0,0.0,0.0,0.0,0.0,0.0,0.0,0.0,0.0,0.0,0.0,0.0,0.0,0.0,0.0,0.0,0.0,0.0,0.0,0.0,0.0,0.0,0.0,0.0,0.0,0.0,0.0,0.0,0.0,0.0,0.0,0.0,0.0,0.0,0.0,3.3979,3.3886,0.0,0.0,3.3197,3.3102,3.3102,3.3102,3.3102,3.3102,3.3102,3.3328,3.4221,0.0,3.4058,3.5785,3.5933,3.6126,3.7259,0.0,0.0,0.0,0.0,0.0,0.0,0.0,0.0,0.0,0.0,0.0,0.0,0.0,3.6405,3.6405,3.6405,3.6405,3.6405,3.6956,3.7245,3.7245,3.7245,3.6979,3.6405,3.6405,3.6886,3.7808,3.8183,3.8653,3.9219,4.0159,4.0094,3.9241,4.0181,4.0603,0.0,4.1015,4.1556,4.2009,4.0993,4.0831,4.1043,3.9845,3.9632,3.9912,0.0,0.0,0.0,0.0,0.0,0.0,3.5098,3.5326,3.5455,3.531,3.5423,3.5504,3.5504,3.5504,3.5439,3.5294,0.0,0.0,0.0,0.0,0.0,0.0,0.0,0.0,0.0,0.0,0.0,0.0,0.0,0.0,0.0,0.0,0.0,0.0,0.0,0.0,0.0,0.0,0.0,0.0,0.0,0.0,0.0,0.0,0.0,0.0,0.0,0.0,0.0,0.0,0.0,0.0,0.0,0.0,0.0,0.0,3.3356,3.3197,3.3197,3.3154,3.3192,3.3644,3.3747,3.4131,0.0,0.0,3.5174,3.7377,3.7284,3.7155,3.8399,3.8324,0.0,0.0,0.0,3.8576,0.0,0.0,0.0,0.0,0.0,0.0,0.0,3.6405,3.6405,3.6405,3.6405,3.6405,3.6405,3.7026,3.7384,3.7384,3.7384,3.7059,3.6405,3.6405,3.6722,3.7384,3.7671,3.816,3.881,3.9768,3.9834,3.9241,3.9899,4.0181,0.0,4.0181,4.0781,4.1556,4.0575,4.0353,4.0482,3.9549,3.921,3.921,0.0,0.0,0.0,0.0,0.0,0.0,0.0,3.5504,3.5504,3.5504,3.5504,3.5504,3.5504,3.5504,3.5504,3.5504,0.0,0.0,0.0,0.0,0.0,0.0,0.0,0.0,0.0,0.0,0.0,0.0,0.0,0.0,0.0,0.0,0.0,0.0,0.0,0.0,0.0,0.0,0.0,0.0,0.0,0.0,0.0,0.0,0.0,0.0,0.0,0.0,0.0,0.0,0.0,0.0,0.0,0.0,0.0,0.0,3.3556,3.3398,3.3398,3.3261,3.3452,3.4915,3.528,3.568,0.0,0.0,3.652,3.8071,3.838,3.8534,3.9088,3.9929,4.0267,3.9351,0.0,0.0,3.7955,0.0,0.0,0.0,0.0,0.0,3.6593,3.6405,3.6405,3.6405,3.6405,0.0,3.6405,3.6405,3.6405,3.6405,3.6405,3.6405,3.6405,3.6405,3.6405,3.6428,3.7361,3.7808,3.7854,3.8787,3.921,3.921,3.921,3.921,0.0,3.921,3.9768,4.0504,3.9571,3.9768,4.0482,3.9549,3.921,3.921,0.0,0.0,0.0,0.0,0.0,0.0,0.0,3.5504,3.5504,3.5504,3.5504,3.5504,3.5504,3.5504,3.5504,3.5504,0.0,0.0,0.0,0.0,0.0,0.0,0.0,0.0,0.0,0.0,0.0,0.0,0.0,0.0,0.0,0.0,0.0,0.0,0.0,0.0,0.0,0.0,0.0,0.0,0.0,0.0,0.0,0.0,0.0,0.0,0.0,0.0,0.0,0.0,0.0,0.0,0.0,0.0,0.0,3.5588,3.4808,3.3839,3.4828,3.4988,3.5126,3.6139,3.6635,3.7128,3.8123,0.0,3.8085,3.9592,3.9903,3.9958,4.0131,4.0396,4.0504,4.0202,3.9615,0.0,0.0,0.0,0.0,0.0,0.0,0.0,0.0,0.0,3.6405,3.6405,3.6405,3.6405,3.6405,3.6405,3.6405,3.6405,3.6405,3.6405,3.6405,3.6405,3.6722,3.7361,3.7648,3.8137,3.8765,3.9055,3.921,3.9166,3.8531,3.8621,3.9166,3.8509,3.8787,3.9549,3.8621,3.8419,3.8563,3.7635,3.7302,3.7302,0.0,0.0,0.0,0.0,0.0,0.0,0.0,3.5504,3.5504,3.5504,3.5504,3.5504,3.5504,3.5504,3.5504,3.5504,0.0,0.0,0.0,0.0,0.0,0.0,0.0,0.0,0.0,0.0,0.0,0.0,0.0,0.0,0.0,0.0,0.0,0.0,0.0,0.0,0.0,0.0,0.0,0.0,0.0,0.0,3.4397,0.0,0.0,0.0,0.0,0.0,0.0,0.0,0.0,0.0,0.0,0.0,0.0,0.0,3.6109,3.4543,0.0,3.6064,3.6356,3.7378,3.8075,0.0,0.0,0.0,3.9607,4.0901,4.0852,4.0603,4.0603,4.0603,4.0603,4.0603,4.0116,0.0,0.0,0.0,0.0,0.0,0.0,0.0,0.0,3.6617,3.6405,3.6405,3.6405,3.6405,3.6405,3.6405,3.6405,3.6405,3.6405,3.6405,3.6405,3.6405,3.6675,3.7268,3.7268,3.775,3.8653,3.8653,3.8877,3.9166,3.8206,3.8137,0.0,3.7658,3.7818,3.8621,3.8024,3.7808,3.7717,3.7129,3.6698,3.6405,0.0,0.0,0.0,0.0,0.0,0.0,0.0,0.0,0.0,0.0,3.5504,3.5504,3.5504,3.5504,0.0,0.0,0.0,0.0,0.0,0.0,0.0,0.0,0.0,0.0,0.0,0.0,0.0,3.5504,3.5504,3.5534,3.5578,0.0,0.0,0.0,0.0,0.0,0.0,0.0,0.0,0.0,3.4397,3.4397,0.0,0.0,0.0,0.0,0.0,0.0,0.0,0.0,0.0,0.0,0.0,0.0,0.0,0.0,0.0,0.0,0.0,3.6772,0.0,0.0,0.0,0.0,0.0,0.0,0.0,4.1814,4.1296,4.071,4.071,4.071,4.071,4.071,4.0582,0.0,0.0,0.0,0.0,0.0,3.7451,0.0,3.7625,3.6896,3.6405,3.6405,3.6405,3.6405,3.6405,3.6405,3.6405,3.6405,3.6405,3.6405,3.6405,3.6405,3.6405,3.6405,3.6405,3.6862,3.7694,3.7694,3.8215,0.0,3.8115,3.774,3.7717,3.6792,3.6896,3.7694,3.7694,3.7694,3.7694,3.7694,3.7152,3.6405,0.0,0.0,0.0,0.0,0.0,0.0,0.0,0.0,0.0,0.0,0.0,3.5504,3.5504,3.5504,0.0,0.0,0.0,0.0,0.0,0.0,0.0,0.0,0.0,0.0,0.0,0.0,0.0,3.5504,3.5504,3.5759,3.6252,3.5531,0.0,0.0,0.0,0.0,0.0,0.0,0.0,0.0,3.4397,3.4397,0.0,0.0,0.0,0.0,3.4397,3.4397,0.0,0.0,0.0,0.0,0.0,0.0,0.0,0.0,3.8429,3.7991,3.9475,0.0,3.8991,3.9815,4.0953,4.1742,0.0,0.0,0.0,0.0,0.0,4.1752,4.1752,4.1752,4.1752,4.1752,4.0503,3.9439,3.9219,0.0,0.0,3.707,3.6675,3.6499,3.6698,3.6523,3.6405,3.6405,3.6405,3.6405,3.6405,3.6405,3.6405,3.6405,3.6405,3.6405,3.6405,3.6405,3.6405,3.6405,3.6405,3.6523,3.6722,3.6722,3.7245,3.8069,3.7129,3.7129,3.7717,3.6792,3.6523,3.6722,3.6722,3.6722,3.6722,3.6722,3.6581,3.6405,0.0,0.0,0.0,0.0,0.0,0.0,0.0,0.0,0.0,0.0,0.0,0.0,0.0,0.0,0.0,0.0,0.0,0.0,0.0,0.0,0.0,0.0,0.0,0.0,0.0,0.0,0.0,0.0,0.0,3.5716,0.0,0.0,0.0,0.0,0.0,0.0,0.0,0.0,0.0,0.0,3.4397,0.0,0.0,0.0,0.0,0.0,3.4397,3.4397,0.0,3.4847,3.5555,3.6237,0.0,0.0,0.0,0.0,3.8588,3.8755,4.0377,4.0392,4.0006,4.0126,4.1352,4.226,0.0,0.0,0.0,0.0,0.0,0.0,4.2092,4.1717,4.1416,4.1416,4.0165,0.0,0.0,0.0,0.0,3.6452,3.6769,3.6886,0.0,3.6405,3.6405,3.6405,3.6405,3.6405,3.6405,3.6405,3.6405,3.6405,3.6405,3.6405,3.6405,3.6405,3.6405,3.6405,3.6405,3.6405,3.6405,3.6405,3.6675,3.7129,3.6617,3.6675,3.7129,3.6617,3.6405,3.6405,3.6405,3.6405,3.6405,3.6405,3.6405,3.6405,0.0,0.0,0.0,0.0,0.0,0.0,0.0,0.0,0.0,0.0,0.0,0.0,0.0,0.0,0.0,0.0,0.0,0.0,0.0,0.0,0.0,0.0,0.0,0.0,0.0,0.0,0.0,0.0,0.0,0.0,0.0,0.0,0.0,0.0,0.0,0.0,0.0,0.0,0.0,0.0,3.4397,0.0,0.0,0.0,0.0,0.0,0.0,0.0,0.0,3.5676,3.6399,3.6838,3.6852,0.0,0.0,0.0,0.0,0.0,4.0633,4.0781,4.0482,4.0238,4.1331,4.2225,0.0,0.0,0.0,0.0,0.0,0.0,0.0,0.0,0.0,0.0,0.0,0.0,3.774,3.7592,3.7292,3.6499,3.7106,0.0,3.6476,3.6405,3.6405,3.6405,3.6405,3.6405,3.6405,3.6405,3.6405,3.6405,3.6405,3.6405,3.6405,3.6405,3.6405,3.6405,3.6405,3.6405,3.6405,3.6405,3.6405,3.6405,0.0,0.0,3.6405,3.6405,3.6405,3.6405,3.6405,3.6405,3.6405,3.6405,3.6405,3.6405,0.0,0.0,0.0,0.0,0.0,0.0,0.0,0.0,0.0,0.0,0.0,0.0,0.0,0.0,0.0,0.0,0.0,0.0,0.0,0.0,0.0,0.0,0.0,0.0,0.0,0.0,0.0,0.0,0.0,0.0,3.8034,3.7212,3.6357,0.0,0.0,0.0,0.0,0.0,0.0,3.4397,3.4397,0.0,0.0,0.0,0.0,0.0,0.0,0.0,0.0,3.6848,3.7115,3.6798,3.8121,0.0,0.0,0.0,0.0,0.0,4.2629,4.1601,4.0454,4.124,4.1339,4.1423,4.2034,0.0,0.0,0.0,0.0,0.0,0.0,0.0,0.0,0.0,0.0,3.8585,0.0,0.0,3.657,3.6428,0.0,3.657,3.6405,3.6405,3.6405,3.6405,3.6405,3.6405,3.6405,3.6405,3.6405,3.6405,3.6405,3.6405,3.6405,3.6405,3.6405,3.6405,3.6405,3.6405,3.6405,3.6405,3.6405,3.6405,0.0,3.6405,3.6405,3.6405,3.6405,3.6405,3.6405,3.6405,3.6405,3.6405,3.6405,3.6405,0.0,0.0,0.0,0.0,0.0,0.0,0.0,0.0,0.0,0.0,0.0,0.0,0.0,0.0,0.0,0.0,0.0,0.0,0.0,0.0,0.0,0.0,0.0,0.0,0.0,0.0,0.0,0.0,0.0,3.7638,3.8267,3.6997,3.6376,3.634,0.0,0.0,0.0,0.0,3.484,3.4397,0.0,0.0,0.0,0.0,0.0,0.0,0.0,0.0,0.0,0.0,3.7488,3.7336,3.9379,0.0,0.0,0.0,0.0,0.0,4.2217,4.1734,4.093,4.1505,4.0923,4.0181,4.0094,0.0,0.0,0.0,0.0,0.0,0.0,0.0,4.0057,3.8572,0.0,3.7381,3.6523,3.6839,3.6979,0.0,0.0,3.6956,3.6452,3.6405,3.6405,3.6405,3.6405,3.6405,3.6405,3.6405,3.6405,3.6405,3.6405,3.6405,3.6405,3.6405,3.6405,3.6405,3.6405,3.6405,3.6405,3.6405,3.6405,3.6405,0.0,3.6405,3.6405,3.6405,3.6405,3.6405,3.6405,3.6405,3.6405,3.6405,3.6405,3.6405,0.0,0.0,0.0,0.0,0.0,0.0,0.0,0.0,0.0,0.0,0.0,0.0,0.0,0.0,0.0,0.0,0.0,0.0,0.0,0.0,0.0,0.0,0.0,0.0,0.0,0.0,3.7883,3.8409,3.7743,3.7587,3.7872,3.6786,3.6399,0.0,0.0,0.0,0.0,0.0,3.5135,3.4696,0.0,0.0,0.0,0.0,0.0,0.0,0.0,0.0,0.0,0.0,0.0,0.0,0.0,0.0,0.0,4.0569,4.0568,4.0468,4.1914,4.1852,4.1407,4.1497,0.0,3.9508,3.8635,0.0,0.0,0.0,0.0,0.0,0.0,3.9681,0.0,3.6989,3.6722,3.6664,3.6428,3.7026,3.7199,3.6499,3.7036,3.7199,3.6476,3.6405,3.6405,3.6405,3.6405,3.6405,3.6405,3.6405,3.6405,3.6405,3.6405,3.6405,3.6405,3.6405,3.6405,3.6405,3.6405,3.6405,3.6405,3.6405,3.6405,3.6405,3.6405,3.6405,3.6405,3.6405,3.6405,3.6405,3.6405,3.6405,3.6405,3.6405,3.6405,3.6405,0.0,0.0,0.0,0.0,0.0,0.0,0.0,0.0,0.0,0.0,0.0,0.0,0.0,0.0,0.0,0.0,0.0,0.0,0.0,0.0,0.0,0.0,0.0,0.0,0.0,3.7988,3.8365,3.8409,3.8227,3.7738,3.7011,3.7687,3.7208,3.5816,0.0,0.0,0.0,0.0,3.4909,3.5548,3.4737,0.0,0.0,0.0,0.0,0.0,0.0,0.0,0.0,0.0,0.0,0.0,0.0,0.0,4.1767,4.1873,4.2421,4.3036,4.317,4.2406,4.1539,4.1365,4.0923,0.0,3.9574,3.9293,0.0,0.0,0.0,0.0,0.0,3.9241,3.8877,3.7864,3.7694,3.7407,3.6523,0.0,3.6476,3.6405,3.6452,3.6476,3.6405,3.6405,3.6405,3.6405,3.6405,3.6405,3.6405,3.6405,3.6405,3.6405,3.6405,3.6405,3.6405,3.6405,3.6405,3.6405,3.6405,3.6405,3.6405,3.6405,3.6405,3.6405,3.6405,3.6405,3.6405,3.6405,3.6405,3.6405,3.6405,3.6405,3.6405,3.6405,3.6405,3.6405,0.0,0.0,0.0,0.0,0.0,0.0,0.0,0.0,0.0,0.0,0.0,0.0,0.0,0.0,0.0,0.0,0.0,0.0,0.0,0.0,0.0,0.0,0.0,3.7955,3.8626,3.8883,3.9017,3.9017,3.8967,3.8523,3.7706,3.7501,0.0,0.0,0.0,0.0,0.0,0.0,0.0,3.5669,3.5345,3.541,0.0,0.0,0.0,0.0,0.0,0.0,0.0,0.0,4.0713,4.0506,4.1848,4.1755,4.1359,4.2482,4.1838,4.112,4.284,4.1518,3.9929,4.1029,0.0,0.0,0.0,0.0,0.0,0.0,0.0,0.0,0.0,0.0,3.7348,3.6989,3.6932,3.6815,3.6452,3.6405,3.6405,3.6405,3.6405,3.6405,3.6405,3.6405,3.6405,3.6405,3.6405,3.6405,3.6405,3.6405,3.6405,3.6405,3.6405,3.6405,3.6405,3.6405,3.6405,3.6405,3.6405,3.6405,3.6405,3.6405,3.6405,3.6405,3.6405,3.6405,3.6405,3.6405,3.6405,3.6405,3.6405,3.6405,3.6405,3.6405,3.6405,3.6405,0.0,0.0,0.0,0.0,0.0,0.0,0.0,0.0,0.0,0.0,0.0,0.0,0.0,0.0,0.0,0.0,0.0,0.0,0.0,0.0,0.0,0.0,0.0,3.8376,3.9373,3.9156,3.9156,3.9406,3.887,3.8046,3.6995,0.0,0.0,0.0,0.0,0.0,0.0,0.0,0.0,0.0,3.6034,3.6219,0.0,0.0,0.0,0.0,0.0,0.0,0.0,0.0,4.1173,4.147,4.1568,4.1526,4.1574,4.2243,4.1267,4.0382,4.2249,4.1148,3.9689,0.0,0.0,0.0,0.0,0.0,0.0,0.0,0.0,0.0,0.0,0.0,0.0,0.0,3.6405,3.6405,3.6405,3.6405,3.6405,3.6405,3.6405,3.6405,3.6405,3.6405,3.6405,3.6405,3.6405,3.6405,3.6405,3.6405,3.6405,3.6405,3.6405,3.6405,3.6405,3.6405,3.6405,3.6405,3.6405,3.6405,3.6405,3.6405,3.6405,3.6405,3.6405,3.6405,3.6405,3.6405,3.6405,3.6405,3.6405,3.6405,3.6405,3.6405,3.6405,3.6405,0.0,0.0,0.0,0.0,0.0,0.0,0.0,0.0,0.0,0.0,0.0,0.0,0.0,0.0,0.0,0.0,0.0,0.0,0.0,0.0,0.0,0.0,0.0,3.9388,3.9406,3.8627,3.8608,3.9388,3.7715,3.6049,3.4439,3.5305,0.0,0.0,0.0,0.0,0.0,0.0,0.0,0.0,3.6762,3.6633,3.6694,0.0,0.0,0.0,0.0,0.0,0.0,0.0,4.1817,4.2659,3.9064,4.0403,4.2935,4.1155,4.1099,4.1587,4.1608,4.1587,4.1239,0.0,0.0,0.0,0.0,0.0,0.0,0.0,0.0,0.0,0.0,0.0,0.0,3.6546,3.6405,3.6405,3.6405,3.6405,3.6405,3.6405,3.6405,3.6405,3.6405,3.6405,3.6405,3.6405,3.6405,3.6405,3.6405,3.6405,3.6405,3.6405,3.6405,3.6405,3.6405,3.6405,3.6405,3.6405,3.6405,3.6405,3.6405,3.6405,3.6405,3.6405,3.6405,3.6405,3.6405,3.6405,3.6405,3.6405,3.6405,3.6405,3.6405,3.6405,3.6405,3.6405,0.0,0.0,0.0,0.0,0.0,0.0,0.0,0.0,0.0,0.0,0.0,0.0,0.0,0.0,0.0,0.0,0.0,0.0,0.0,0.0,0.0,0.0,0.0,0.0,0.0,0.0,3.8885,3.8557,3.7448,3.6646,0.0,0.0,0.0,3.4418,0.0,0.0,0.0,0.0,0.0,0.0,3.8,3.8379,3.8804,0.0,0.0,0.0,0.0,0.0,0.0,0.0,0.0,0.0,4.1852,4.1997,4.24,4.2482,4.2114,4.1804,4.2406,4.093,0.0,4.0338,0.0,0.0,0.0,0.0,0.0,0.0,0.0,0.0,0.0,0.0,0.0,3.6452,3.6405,3.6405,3.6405,3.6405,3.6405,3.6405,3.6405,3.6405,3.6405,3.6405,3.6405,3.6405,3.6405,3.6405,3.6405,3.6405,3.6405,3.6405,3.6405,3.6405,3.6405,3.6405,3.6405,3.6405,3.6405,3.6405,3.6405,3.6405,3.6405,3.6405,3.6405,3.6405,3.6405,3.6405,3.6405,3.6405,3.6405,3.6405,3.6405,3.6405,3.6405,3.6405,0.0,0.0,0.0,0.0,0.0,0.0,0.0,0.0,0.0,0.0,0.0,0.0,0.0,0.0,0.0,0.0,0.0,0.0,0.0,0.0,0.0,0.0,0.0,0.0,0.0,3.8401,3.8159,0.0,0.0,0.0,0.0,0.0,0.0,3.5343,0.0,3.6021,0.0,0.0,3.7816,3.7737,3.8746,3.9332,3.9746,0.0,0.0,0.0,0.0,0.0,0.0,0.0,0.0,0.0,4.174,4.2058,4.238,4.1734,4.1275,4.0979,4.1042,3.9645,0.0,3.9002,3.8111,0.0,0.0,0.0,0.0,0.0,0.0,3.7059,3.6499,3.6405,0.0,3.6405,3.6405,3.6405,3.6405,3.6405,3.6405,3.6405,3.6405,3.6405,3.6405,3.6405,3.6405,3.6405,3.6405,3.6405,3.6405,3.6405,3.6405,3.6405,3.6405,3.6405,3.6405,3.6405,3.6405,3.6405,3.6405,3.6405,3.6405,3.6405,3.6405,3.6405,3.6405,3.6405,3.6405,3.6405,3.6405,3.6405,3.6405,3.6405,3.6405,3.6405,3.6405,3.6405,0.0,0.0,0.0,0.0,0.0,0.0,0.0,0.0,0.0,0.0,3.7494,0.0,0.0,0.0,0.0,0.0,0.0,0.0,0.0,0.0,0.0,0.0,0.0,0.0,0.0,0.0,0.0,0.0,0.0,0.0,0.0,0.0,3.5341,3.6673,0.0,3.7783,0.0,3.9332,3.9112,3.7736,3.9187,3.9739,3.9872,4.1408,0.0,0.0,0.0,0.0,0.0,0.0,0.0,0.0,3.9964,4.1057,4.2441,3.9927,3.9533,3.9659,3.8559,0.0,0.0,3.6779,3.7243,0.0,3.6651,0.0,0.0,0.0,0.0,3.6405,3.6405,3.6405,3.6405,3.6405,3.6405,3.6405,3.6405,3.6405,3.6405,3.6405,3.6405,3.6405,3.6405,3.6405,3.6405,3.6405,3.6405,3.6405,3.6405,3.6405,3.6405,3.6405,3.6405,3.6405,3.6405,3.6405,3.6405,3.6405,3.6405,3.6405,3.6405,3.6405,3.6405,3.6405,3.6405,3.6405,3.6405,3.6405,3.6405,3.6405,3.6405,3.6405,3.6405,3.6405,3.6405,3.6405,0.0,0.0,0.0,0.0,0.0,0.0,0.0,0.0,0.0,0.0,0.0,0.0,0.0,0.0,0.0,0.0,0.0,0.0,0.0,0.0,0.0,0.0,0.0,0.0,0.0,0.0,0.0,0.0,0.0,0.0,0.0,0.0,0.0,3.6303,0.0,3.822,3.7522,3.9117,3.9521,3.9215,4.0069,4.0407,4.0506,4.1587,4.154,0.0,0.0,0.0,0.0,0.0,0.0,0.0,4.1296,4.0781,4.0246,4.1085,4.0646,3.9834,3.9579,3.872,0.0,0.0,3.7129,3.6686,3.6452,3.6405,3.6405,3.6405,3.6405,3.6405,3.6405,3.6405,3.6405,3.6405,3.6405,3.6405,3.6405,3.6405,3.6405,3.6405,3.6405,3.6405,3.6405,3.6405,3.6405,3.6405,3.6405,3.6405,3.6405,3.6405,3.6405,3.6405,3.6405,3.6405,3.6405,3.6405,3.6405,3.6405,3.6405,3.6405,3.6405,3.6405,3.6405,3.6405,3.6405,3.6405,3.6405,3.6405,3.6405,3.6405,3.6405,3.6405,3.6405,3.6405,3.6405,3.6405,0.0,0.0,0.0,0.0,0.0,0.0,0.0,0.0,0.0,0.0,0.0,0.0,0.0,0.0,0.0,0.0,0.0,0.0,0.0,0.0,0.0,0.0,0.0,0.0,0.0,0.0,0.0,0.0,0.0,0.0,0.0,0.0,0.0,3.7225,0.0,3.85,3.835,3.9604,3.9857,3.9479,4.027,4.0603,4.0646,4.1134,4.1029,4.0717,4.1672,0.0,0.0,0.0,0.0,0.0,0.0,0.0,4.0993,4.0108,3.9869,3.9681,3.8639,0.0,0.0,3.7129,0.0,3.6405,3.6405,3.6405,3.6405,3.6405,3.6405,3.6405,3.6405,3.6405,3.6405,3.6405,3.6405,3.6405,3.6405,3.6405,3.6405,3.6405,3.6405,3.6405,3.6405,3.6405,3.6405,3.6405,3.6405,3.6405,3.6405,3.6405,3.6405,3.6405,3.6405,3.6405,3.6405,3.6405,3.6405,3.6405,3.6405,3.6405,3.6405,3.6405,3.6405,3.6405,3.6405,3.6405,3.6405,3.6405,3.6405,3.6405,3.6405,3.6405,3.6405,3.6405,3.6405,3.6405,0.0,0.0,0.0,0.0,0.0,0.0,0.0,0.0,0.0,0.0,0.0,0.0,0.0,0.0,0.0,0.0,0.0,0.0,0.0,0.0,0.0,0.0,0.0,0.0,0.0,0.0,0.0,0.0,0.0,0.0,0.0,0.0,0.0,3.8335,0.0,0.0,3.9046,4.0138,4.0051,3.9285,4.0224,4.0504,4.0375,4.0525,0.0,4.0375,4.0525,4.0603,4.0689,4.1317,0.0,0.0,0.0,0.0,4.1961,3.8747,3.859,3.9099,3.7256,0.0,3.6405,3.6405,3.6405,0.0,3.6405,3.6405,3.6405,3.6405,3.6405,3.6405,3.6405,3.6405,3.6405,3.6405,3.6405,3.6405,3.6405,3.6405,3.6405,3.6405,3.6405,3.6405,3.6405,3.6405,3.6405,3.6405,3.6405,3.6405,3.6405,3.6405,3.6405,3.6405,3.6405,3.6405,3.6405,3.6405,3.6405,3.6405,3.6405,3.6405,3.6405,3.6405,3.6405,3.6405,3.6405,3.6405,3.6405,3.6405,3.6405,3.6405,3.6405,3.6405,3.6405,3.6405,3.6405,3.6405,0.0,0.0,0.0,0.0,0.0,0.0,0.0,0.0,0.0,0.0,0.0,0.0,0.0,0.0,0.0,0.0,0.0,0.0,3.9406,0.0,0.0,3.6914,3.7467,0.0,0.0,0.0,0.0,0.0,0.0,0.0,0.0,0.0,0.0,3.8043,0.0,0.0,0.0,3.9883,4.0051,3.9285,4.0224,4.0116,3.9483,0.0,0.0,0.0,0.0,4.0603,4.0482,3.9812,4.0116,0.0,0.0,0.0,3.9659,3.9121,3.8423,3.771,0.0,0.0,3.6405,0.0,3.6405,3.6405,0.0,0.0,3.6405,0.0,3.6405,3.6405,3.6405,3.6405,3.6405,3.6405,3.6405,3.6405,3.6405,3.6405,3.6405,3.6405,3.6405,3.6405,3.6405,3.6405,3.6405,3.6405,3.6405,3.6405,3.6405,3.6405,3.6405,3.6405,3.6405,3.6405,3.6405,3.6405,3.6405,3.6405,3.6405,3.6405,3.6405,3.6405,3.6405,3.6405,3.6405,3.6405,3.6405,3.6405,3.6405,3.6405,3.6405,3.6405,3.6405,3.6405,3.6405,3.6405,0.0,0.0,0.0,0.0,0.0,0.0,0.0,0.0,0.0,0.0,0.0,0.0,0.0,0.0,0.0,3.9406,3.9406,3.9406,3.9406,3.9065,3.8433,3.7448,3.8052,3.832,3.8144,0.0,0.0,0.0,0.0,0.0,0.0,3.8043,3.8034,0.0,0.0,0.0,0.0,0.0,0.0,3.9241,3.9659,3.9571,0.0,0.0,0.0,0.0,0.0,0.0,0.0,3.9942,4.0267,4.0439,3.9505,0.0,0.0,0.0,3.8381,3.8086,3.7142,3.664,3.6405,0.0,3.6405,3.6405,3.6405,0.0,3.6405,3.6405,3.6405,3.6405,3.6405,3.6405,3.6405,3.6405,3.6405,3.6405,3.6405,3.6405,3.6405,3.6405,3.6405,3.6405,3.6405,3.6405,3.6405,3.6405,3.6405,3.6405,3.6405,3.6405,3.6405,3.6405,3.6405,3.6405,3.6405,3.6405,3.6405,3.6405,3.6405,3.6405,3.6405,3.6405,3.6405,3.6405,3.6405,3.6405,3.6405,3.6405,3.6405,3.6405,3.6405,3.6405,3.6405,3.6405,3.6405,3.6405,0.0,0.0,0.0,0.0,0.0,0.0,0.0,0.0,0.0,0.0,0.0,0.0,0.0,0.0,0.0,0.0,3.9556,3.9541,3.9283,3.9928,3.9537,3.7786,3.8542,3.8832,3.8377,0.0,0.0,0.0,0.0,0.0,3.79,3.79,3.79,0.0,3.79,0.0,0.0,0.0,0.0,0.0,0.0,0.0,0.0,0.0,0.0,0.0,0.0,0.0,0.0,0.0,0.0,0.0,3.9157,3.9497,0.0,0.0,0.0,0.0,0.0,0.0,3.6405,3.6405,3.6405,3.6405,0.0,0.0,3.6405,0.0,3.6405,3.6405,3.6405,3.6405,3.6405,3.6405,3.6405,3.6405,3.6405,3.6405,3.6405,3.6405,3.6405,3.6405,3.6405,3.6405,3.6405,3.6405,3.6405,3.6405,3.6405,3.6405,3.6405,3.6405,3.6405,3.6405,3.6405,3.6405,3.6405,3.6405,3.6405,3.6405,3.6405,3.6405,3.6405,3.6405,3.6405,3.6405,3.6405,3.6405,3.6405,3.6405,3.6405,3.6405,3.6381,3.6085,3.5989,3.5989,0.0,0.0,0.0,0.0,0.0,0.0,0.0,0.0,0.0,0.0,0.0,0.0,0.0,3.9406,3.9406,3.9406,3.9993,3.9904,3.89,3.9638,3.9307,3.7496,3.8852,0.0,3.8326,0.0,0.0,0.0,0.0,0.0,3.79,3.79,3.79,3.79,3.79,3.79,3.79,0.0,0.0,0.0,0.0,0.0,0.0,0.0,0.0,0.0,0.0,0.0,0.0,0.0,0.0,0.0,0.0,0.0,0.0,0.0,0.0,0.0,0.0,3.6557,0.0,3.6405,3.6405,0.0,0.0,0.0,3.6405,3.6405,3.6405,3.6405,3.6405,3.6405,3.6405,3.6405,3.6405,3.6405,3.6405,3.6405,3.6405,3.6405,3.6405,3.6405,3.6405,3.6405,3.6405,3.6405,3.6405,3.6405,3.6405,3.6405,3.6405,3.6405,3.6405,3.6405,3.6405,3.6405,3.6405,3.6405,3.6405,3.6405,3.6405,3.6405,3.6405,3.6405,3.6405,3.6405,3.6405,3.6405,3.6405,3.6405,3.6405,3.6405,3.6287,3.5247,3.4872,3.4872,0.0,0.0,0.0,0.0,0.0,0.0,0.0,0.0,0.0,0.0,0.0,0.0,0.0,3.9676,3.9966,3.9805,4.0001,3.9969,3.9596,3.9701,3.9249,3.8022,3.889,3.9213,3.8876,0.0,0.0,0.0,0.0,3.79,3.79,3.79,3.79,3.79,3.79,3.79,3.79,3.79,0.0,0.0,0.0,0.0,0.0,0.0,0.0,0.0,0.0,0.0,0.0,0.0,0.0,0.0,0.0,0.0,0.0,0.0,0.0,0.0,0.0,0.0,0.0,3.6581,3.6499,3.6405,3.6405,3.6405,3.6405,3.6405,3.6405,3.6405,3.6405,3.6405,3.6405,3.6405,3.6405,3.6405,3.6405,3.6405,3.6405,3.6405,3.6405,3.6405,3.6405,3.6405,3.6405,3.6405,3.6405,3.6405,3.6405,3.6405,3.6405,3.6405,3.6405,3.6405,3.6405,3.6405,3.6405,3.6405,3.6405,3.6405,3.6405,3.6405,3.6405,3.6358,3.5667,3.5763,3.6405,3.6405,3.6405,3.6405,3.6405,3.5989,3.5331,3.4945,3.4361,3.3771,0.0,0.0,0.0,0.0,0.0,0.0,0.0,0.0,0.0,0.0,0.0,0.0,0.0,0.0,3.9814,3.9868,3.9871,3.9836,3.973,3.9851,3.9405,3.8211,3.8821,3.9055,3.8783,0.0,0.0,0.0,0.0,0.0,0.0,3.79,3.79,3.79,3.79,3.79,0.0,0.0,0.0,3.79,0.0,0.0,3.7969,0.0,0.0,0.0,0.0,0.0,0.0,0.0,0.0,0.0,0.0,0.0,0.0,0.0,0.0,0.0,3.7377,0.0,0.0,0.0,3.6557,3.6405,3.6405,3.6405,3.6405,3.6405,3.6405,3.6405,3.6405,3.6405,3.6405,3.6405,3.6405,3.6405,3.6405,3.6405,3.6405,3.6405,3.6405,3.6405,3.6405,3.6405,3.6405,3.6405,3.6405,0.0,3.6405,3.6405,3.6405,3.6405,3.6405,3.6405,3.6405,3.6405,3.6405,3.6405,3.6405,3.6405,3.6381,3.6037,3.5858,3.5786,3.4727,3.4884,3.5834,3.5463,3.5331,3.5331,3.5331,3.4896,3.4214,3.3858,3.3252,3.2664,0.0,0.0,0.0,0.0,0.0,0.0,0.0,0.0,0.0,0.0,0.0,0.0,0.0,0.0,0.0,3.9564,3.9599,3.9491,3.9214,4.0029,3.9744,3.7969,3.8715,3.8783,3.7923,0.0,0.0,0.0,0.0,0.0,0.0,0.0,3.79,3.79,3.79,3.79,3.79,0.0,3.79,3.79,0.0,3.79,3.79,0.0,0.0,0.0,3.79,3.79,0.0,0.0,0.0,0.0,0.0,0.0,0.0,0.0,0.0,0.0,0.0,0.0,0.0,0.0,0.0,0.0,3.6405,3.6405,3.6405,3.6405,3.6405,3.6405,3.6405,3.6405,3.6405,3.6405,3.6405,3.6405,3.6405,3.6405,3.6405,3.6405,3.6405,3.6405,3.6405,3.6405,3.6405,3.6405,3.6405,3.6405,3.6405,3.6405,3.6405,3.6405,3.6405,3.6405,3.6405,3.6405,3.6405,3.6405,3.6405,3.6405,3.6358,3.5295,3.4799,3.4727,3.3648,3.3747,3.4629,3.3623,3.3201,3.3201,3.3201,3.3176,3.3026,3.1982,3.1586,3.156,0.0,0.0,0.0,0.0,0.0,0.0,0.0,0.0,0.0,0.0,0.0,0.0,0.0,0.0,0.0,4.0237,3.9694,3.9284,3.9205,3.885,3.8408,3.7923,3.8125,3.8148,3.79,0.0,0.0,0.0,0.0,0.0,0.0,0.0,0.0,0.0,3.79,3.79,3.79,3.79,0.0,0.0,3.79,3.79,0.0,0.0,0.0,0.0,0.0,3.79,3.8015,0.0,3.8836,3.8836,0.0,0.0,0.0,0.0,0.0,0.0,3.7703,0.0,0.0,0.0,0.0,0.0,3.6405,3.6405,3.6405,3.6405,3.6405,3.6405,3.6405,3.6405,3.6405,3.6405,3.6405,3.6405,3.6405,3.6405,3.6405,3.6405,3.6405,3.6405,3.6405,3.6405,3.6405,0.0,3.6405,3.6405,3.6405,3.6405,3.6405,3.6405,3.6405,3.6405,3.6405,3.6405,3.6405,3.6405,3.6405,3.6405,3.6358,3.5295,3.4799,3.4702,3.2853,3.221,3.2527,3.3001,3.3201,3.3201,3.3201,3.2725,3.2007,3.1702,3.1109,3.0443,0.0,0.0,0.0,0.0,0.0,0.0,0.0,0.0,0.0,0.0,0.0,0.0,0.0,0.0,0.0,3.9428,3.8962,3.8661,3.8661,3.8181,3.79,3.79,3.79,3.79,3.79,0.0,0.0,0.0,0.0,0.0,0.0,0.0,0.0,0.0,0.0,0.0,0.0,0.0,0.0,0.0,3.79,0.0,0.0,3.79,3.79,0.0,0.0,0.0,3.8449,3.8616,3.8661,0.0,0.0,0.0,0.0,0.0,0.0,0.0,0.0,0.0,0.0,0.0,0.0,0.0,3.6428,3.6452,3.6499,3.6428,3.6405,3.6405,3.6405,3.6405,3.6405,3.6405,3.6405,3.6405,3.6405,3.6405,3.6405,3.6405,3.6405,3.6405,3.6405,3.6405,3.6405,3.6405,3.6405,3.6405,3.6405,3.6405,3.6405,3.6405,3.6405,3.6405,3.6405,3.6405,3.6405,3.6381,3.5942,3.5739,3.5691,3.4153,3.3451,3.3377,3.1662,3.094,3.0991,3.1597,3.1852,3.1852,3.1852,3.1469,3.094,3.094,3.0547,2.9994,0.0,0.0,0.0,0.0,0.0,0.0,0.0,0.0,0.0,0.0,0.0,0.0,0.0,0.0,0.0,0.0,3.79,3.79,3.79,3.79,3.79,3.79,3.79,3.79,3.79,0.0,0.0,0.0,0.0,0.0,0.0,0.0,0.0,0.0,0.0,0.0,0.0,0.0,0.0,3.79,3.79,3.79,0.0,0.0,3.79,3.79,3.79,3.8395,3.8935,3.8272,3.7992,0.0,0.0,0.0,0.0,0.0,3.79,0.0,0.0,0.0,0.0,0.0,0.0,0.0,3.657,3.6581,3.6651,3.6476,3.6428,3.6405,3.6405,3.6405,3.6405,3.6405,3.6405,3.6405,3.6405,3.6405,3.6405,3.6405,3.6405,3.6405,3.6405,3.6405,3.6405,3.6405,3.6405,3.6405,3.6405,3.6405,3.6405,3.6405,3.6405,3.6405,3.6405,3.6405,3.6334,3.6203,3.5247,3.4727,3.4556,3.2527,3.16,3.1549,3.0469,2.9994,2.9994,2.9994,2.9994,2.9994,2.9994,2.9994,2.9994,2.9994,2.9994,2.9994,4.177,0.0,0.0,0.0,0.0,0.0,0.0,0.0,0.0,0.0,0.0,0.0,0.0,0.0,0.0,0.0,0.0,3.79,3.79,3.79,3.79,3.79,3.79,3.79,3.79,3.79,0.0,0.0,0.0,0.0,0.0,0.0,0.0,0.0,0.0,0.0,0.0,0.0,0.0,3.79,3.79,0.0,3.79,3.79,3.79,3.79,3.79,3.8001,3.8226,0.0,3.8472,3.8024,0.0,0.0,0.0,0.0,0.0,0.0,0.0,0.0,0.0,0.0,0.0,0.0,3.6968,3.6815,3.6698,3.6651,3.6523,3.6405,3.6405,3.6405,3.6405,3.6405,3.6405,3.6405,3.6405,3.6405,3.6405,3.6405,3.6405,3.6405,3.6405,3.6405,3.6405,3.6405,3.6405,3.6405,3.6405,3.6405,3.6405,3.6405,3.6405,3.6405,3.6405,3.6405,3.5966,3.5102,3.4896,3.4361,3.3474,3.2185,3.16,3.1549,3.0469,2.9994,2.9994,2.9994,2.9994,2.9994,2.9994,2.9994,2.9994,2.9994,2.9994,2.9994,4.1343,0.0,0.0,0.0,0.0,0.0,0.0,0.0,0.0,0.0,0.0,0.0,0.0,0.0,0.0,0.0,0.0,0.0,0.0,0.0,3.79,3.79,3.79,3.79,3.79,3.79,3.79,0.0,0.0,0.0,0.0,0.0,0.0,0.0,0.0,0.0,0.0,0.0,3.8057,3.8279,3.8018,0.0,3.79,3.79,3.807,3.8305,3.8305,3.8501,3.8877,3.9791,3.9497,0.0,0.0,3.8658,3.8253,0.0,3.79,3.79,0.0,0.0,0.0,3.7528,0.0,0.0,0.0,3.7108,3.7062,3.6945,3.6828,3.6758,3.6758,3.664,3.6557,3.6557,3.6476,3.6405,3.6405,3.6405,3.6405,3.6405,3.6405,3.6405,3.6405,3.6405,3.6405,3.6405,3.6405,3.6405,3.6405,3.6405,3.6405,3.6405,3.6405,3.6405,3.6405,3.587,3.5319,3.4775,3.3735,3.2928,3.2362,3.1289,3.0785,3.0759,3.0245,2.9994,2.9994,2.9994,2.9994,2.9994,2.9994,2.9994,2.9994,2.9994,2.9994,2.9994,4.0482,0.0,0.0,0.0,0.0,0.0,0.0,0.0,0.0,0.0,0.0,0.0,0.0,0.0,0.0,0.0,0.0,0.0,0.0,0.0,0.0,3.79,3.79,3.79,3.79,3.79,3.79,0.0,0.0,0.0,0.0,0.0,0.0,0.0,0.0,0.0,0.0,0.0,0.0,3.8841,0.0,3.824,3.824,3.824,3.8501,3.888,3.888,3.9194,3.9719,4.0472,4.0226,3.9496,3.9037,3.888,0.0,0.0,0.0,0.0,0.0,0.0,0.0,0.0,0.0,3.7785,0.0,0.0,0.0,3.7214,3.7132,3.7108,3.7108,0.0,0.0,3.6686,0.0,0.0,0.0,3.6405,0.0,3.6405,3.6405,3.6405,3.6405,3.6405,3.6405,3.6405,3.6405,3.6405,3.6405,3.6405,3.6405,3.6405,3.6216,3.6085,3.6085,3.503,3.4385,3.4153,3.2426,3.1472,3.1253,3.0391,2.9994,2.9994,2.9994,2.9994,2.9994,2.9994,2.9994,2.9994,2.9994,2.9994,2.9994,2.9994,2.9994,2.9994,3.9373,3.9439,0.0,0.0,0.0,0.0,0.0,0.0,0.0,0.0,0.0,0.0,0.0,0.0,0.0,0.0,0.0,0.0,3.79,0.0,0.0,3.79,3.79,3.79,3.79,3.79,3.79,3.79,0.0,0.0,0.0,0.0,0.0,0.0,3.79,0.0,0.0,0.0,3.8958,0.0,3.9442,3.9416,0.0,3.9416,3.9431,3.9507,3.9507,3.9523,3.9612,0.0,3.9695,3.9599,0.0,3.9507,3.9494,0.0,0.0,0.0,0.0,0.0,0.0,0.0,3.7877,0.0,0.0,0.0,3.7482,3.7459,0.0,3.7108,0.0,0.0,0.0,0.0,0.0,0.0,3.6405,3.6405,3.6405,3.6405,3.6405,3.6405,3.6405,3.6405,3.6405,3.6405,3.6405,3.6405,3.6405,3.6405,3.6405,3.6405,3.5475,3.4969,3.4969,3.3919,3.2889,3.1957,3.1728,3.1109,3.0167,3.0073,2.9994,2.9994,2.9994,2.9994,2.9994,2.9994,2.9994,2.9994,2.9994,2.9994,2.9994,2.9994,2.9994,2.9994,3.8449,3.8859,0.0,0.0,0.0,0.0,0.0,0.0,0.0,0.0,0.0,0.0,0.0,0.0,0.0,0.0,0.0,3.79,0.0,0.0,0.0,0.0,0.0,0.0,3.79,3.79,3.79,3.79,3.79,0.0,0.0,0.0,0.0,0.0,3.824,0.0,3.8713,0.0,3.956,0.0,0.0,0.0,0.0,3.986,3.9784,4.0122,4.0474,4.0605,4.0605,0.0,4.0605,0.0,0.0,0.0,0.0,0.0,0.0,0.0,0.0,0.0,0.0,0.0,0.0,0.0,3.79,0.0,3.7726,0.0,0.0,0.0,0.0,0.0,0.0,0.0,3.664,0.0,0.0,0.0,3.6405,3.6405,0.0,0.0,3.6405,3.6405,3.6405,3.6405,3.6405,3.6405,3.6405,3.6405,3.6405,3.6405,3.5367,3.4799,3.4799,3.3114,3.2058,3.1575,3.0955,3.0443,2.9994,2.9994,2.9994,2.9994,2.9994,2.9994,2.9994,2.9994,2.9994,2.9994,2.9994,2.9994,2.9994,2.9994,2.9994,2.9994,3.79,0.0,0.0,0.0,0.0,0.0,0.0,0.0,0.0,0.0,0.0,0.0,3.79,3.79,0.0,0.0,0.0,3.79,0.0,0.0,3.8057,0.0,0.0,0.0,0.0,0.0,3.79,3.79,0.0,0.0,0.0,0.0,0.0,0.0,0.0,3.9037,3.9183,0.0,4.0136,4.0657,4.0657,4.0907,4.1194,4.0396,4.0318,4.0698,4.1129,4.1286,4.1286,4.1211,4.1186,0.0,4.0664,0.0,0.0,0.0,0.0,0.0,3.9179,0.0,0.0,0.0,0.0,0.0,0.0,0.0,0.0,0.0,0.0,0.0,0.0,0.0,0.0,0.0,0.0,3.6452,0.0,3.6405,0.0,0.0,0.0,0.0,0.0,3.6405,3.6405,3.6405,3.6405,3.6405,3.6405,3.6108,3.5966,3.5966,3.4654,3.3932,3.3932,3.2083,3.1161,3.1161,3.0365,2.9994,2.9994,2.9994,2.9994,2.9994,2.9994,2.9994,2.9994,2.9994,2.9994,2.9994,2.9994,2.9994,2.9994,2.9994,2.9994,2.9994,3.79,3.7923,0.0,0.0,0.0,0.0,0.0,0.0,0.0,0.0,0.0,0.0,0.0,0.0,0.0,0.0,0.0,3.79,3.79,0.0,3.8449,0.0,0.0,3.8436,0.0,0.0,0.0,3.79,0.0,0.0,0.0,0.0,0.0,0.0,0.0,3.9873,4.0332,4.0383,4.0711,4.126,4.126,4.1273,4.1286,0.0,4.1247,4.126,4.1286,0.0,0.0,4.0997,4.0908,0.0,0.0,0.0,0.0,0.0,0.0,0.0,0.0,0.0,0.0,3.8757,0.0,0.0,0.0,0.0,3.79,0.0,0.0,0.0,0.0,0.0,0.0,0.0,0.0,0.0,0.0,0.0,0.0,0.0,0.0,0.0,0.0,3.6405,3.6405,3.6405,3.6405,3.6405,3.6405,3.5427,3.4848,3.4848,3.2803,3.1702,3.1702,3.0588,3.0047,3.0047,3.002,2.9994,2.9994,2.9994,2.9994,2.9994,2.9994,2.9994,2.9994,2.9994,2.9994,2.9994,2.9994,2.9994,2.9994,2.9994,2.9994,2.9994,0.0,0.0,0.0,0.0,0.0,0.0,0.0,3.79,0.0,0.0,0.0,0.0,0.0,3.9037,3.9037,0.0,0.0,3.9037,3.9037,3.9183,0.0,0.0,0.0,3.922,0.0,0.0,0.0,0.0,0.0,0.0,0.0,0.0,0.0,0.0,0.0,4.013,0.0,0.0,0.0,0.0,0.0,4.1286,4.1286,0.0,4.1047,4.1047,4.1047,4.1047,0.0,4.0933,4.0908,4.0858,4.0694,4.0643,4.0643,4.0643,4.0489,4.0245,0.0,0.0,3.9382,3.9093,0.0,0.0,0.0,0.0,0.0,0.0,0.0,0.0,0.0,0.0,0.0,0.0,0.0,0.0,0.0,0.0,0.0,0.0,0.0,0.0,0.0,0.0,3.6405,3.6405,3.6405,3.6405,3.6405,3.5367,3.4799,3.4799,3.2728,3.16,3.16,3.0547,2.9994,2.9994,2.9994,2.9994,2.9994,2.9994,2.9994,2.9994,2.9994,2.9994,2.9994,2.9994,2.9994,2.9994,2.9994,2.9994,2.9994,2.9994,2.9994,2.9994,3.79,0.0,0.0,0.0,0.0,0.0,0.0,0.0,0.0,0.0,3.9013,0.0,3.9573,0.0,3.9612,0.0,3.9612,3.9612,3.9612,3.9795,0.0,3.9625,3.9771,0.0,0.0,0.0,0.0,0.0,0.0,3.9612,0.0,0.0,0.0,0.0,0.0,4.0563,4.0365,4.0916,4.1047,0.0,0.0,4.1161,0.0,0.0,4.0732,4.0883,0.0,4.077,4.0744,4.0656,4.0605,4.058,4.0415,4.0377,4.0377,4.0377,4.0377,4.0262,3.9879,3.9777,0.0,3.9407,3.9044,0.0,3.8744,0.0,0.0,0.0,0.0,0.0,0.0,0.0,0.0,0.0,0.0,0.0,0.0,3.6405,0.0,0.0,0.0,0.0,0.0,3.6405,3.6405,3.6405,3.6405,3.6227,3.5834,3.4799,3.4067,3.3674,3.1957,3.1032,3.1032,3.0339,2.9994,2.9994,2.9994,2.9994,2.9994,2.9994,2.9994,2.9994,2.9994,2.9994,2.9994,2.9994,2.9994,2.9994,2.9994,2.9994,2.9994,2.9994,2.9994,2.9994,0.0,0.0,0.0,0.0,3.841,0.0,0.0,0.0,3.9625,0.0,3.9651,3.964,3.969,3.969,3.969,3.969,3.969,0.0,3.969,4.015,0.0,0.0,4.0163,4.0226,3.9703,0.0,0.0,0.0,0.0,0.0,0.0,0.0,0.0,0.0,4.1038,0.0,4.0883,4.0883,4.0883,4.0883,4.0883,4.0883,4.0807,4.03,4.0427,4.0846,4.0567,4.0478,4.0453,4.0185,4.0096,4.0096,4.007,4.007,4.007,4.007,4.007,4.007,4.007,4.007,3.9994,3.9699,3.9596,0.0,0.0,0.0,3.8098,0.0,0.0,0.0,0.0,0.0,0.0,0.0,0.0,0.0,0.0,0.0,0.0,0.0,0.0,0.0,0.0,3.6405,3.6405,3.6405,3.6405,3.5942,0.0,3.3796,3.2725,3.1626,3.0562,2.9994,2.9994,2.9994,2.9994,2.9994,2.9994,2.9994,2.9994,2.9994,2.9994,2.9994,2.9994,2.9994,2.9994,2.9994,2.9994,2.9994,2.9994,2.9994,2.9994,2.9994,2.9994,2.9994,3.9168,3.9261,3.9337,0.0,3.9285,3.9377,0.0,0.0,0.0,0.0,4.0189,4.0383,4.0803,4.0855,4.0855,4.0855,4.0855,0.0,0.0,0.0,0.0,4.0855,4.101,4.0999,4.0855,4.0855,0.0,4.0855,0.0,0.0,4.0855,0.0,0.0,0.0,0.0,4.1035,4.0618,4.082,4.0795,4.0605,4.0605,4.0605,4.058,0.0,4.0185,4.03,4.0236,4.0211,4.0185,4.0121,4.0096,4.0083,3.9865,3.9788,3.9788,3.9788,3.9788,3.9788,3.9788,3.9788,3.9827,3.9944,3.9626,3.9333,0.0,0.0,0.0,0.0,0.0,0.0,0.0,0.0,0.0,0.0,0.0,0.0,0.0,0.0,0.0,3.6405,0.0,3.6405,3.6405,3.6405,3.6405,3.6405,3.6405,3.5942,3.486,0.0,3.2725,3.1626,3.0562,2.9994,2.9994,2.9994,2.9994,2.9994,2.9994,2.9994,2.9994,2.9994,2.9994,2.9994,2.9994,2.9994,2.9994,2.9994,2.9994,2.9994,2.9994,2.9994,2.9994,2.9994,2.9994,2.9994,3.9612,0.0,0.0,4.0133,0.0,0.0,3.998,4.0163,0.0,4.0737,4.079,0.0,4.1247,4.1286,4.1286,4.1286,4.1286,0.0,4.1286,0.0,0.0,4.1286,4.1286,4.1286,4.1286,4.1286,0.0,4.1286,0.0,0.0,4.1286,0.0,0.0,0.0,0.0,4.101,4.0504,4.0542,4.0542,4.0478,4.0377,4.0313,0.0,4.0044,3.9929,3.9929,3.9929,3.9929,3.9929,3.9929,3.9929,3.9916,3.9736,3.9697,3.9697,3.9697,3.9697,3.9697,3.9697,3.9697,3.9736,3.989,3.9676,3.9474,3.9614,3.9245,3.8865,0.0,3.869,3.836,0.0,0.0,0.0,0.0,0.0,0.0,0.0,0.0,0.0,0.0,3.6405,3.6405,3.6405,3.6405,3.6405,3.6405,3.6405,3.5739,3.419,0.0,3.2499,3.0966,3.0313,2.9994,2.9994,2.9994,2.9994,2.9994,2.9994,2.9994,2.9994,2.9994,2.9994,2.9994,2.9994,2.9994,2.9994,2.9994,2.9994,2.9994,2.9994,2.9994,2.9994,2.9994,2.9994,2.9994,0.0,0.0,0.0,0.0,0.0,0.0,0.0,4.0934,0.0,4.1286,0.0,4.1236,4.1236,4.1236,4.1236,4.1236,0.0,4.1286,4.1286,4.1286,4.1286,4.1286,4.1286,4.1286,4.1286,4.1286,0.0,0.0,0.0,0.0,0.0,0.0,0.0,0.0,0.0,0.0,0.0,4.016,4.0185,4.0377,4.0134,4.0057,4.0032,3.9788,3.9697,3.9697,3.9697,3.9697,3.9697,3.9697,3.9697,3.9697,3.9697,3.9697,3.9697,3.9697,3.9697,3.9697,3.9697,3.9697,3.9697,3.9697,3.9697,3.9697,3.9697,3.9346,3.9145,3.9597,3.8906,3.8354,0.0,0.0,0.0,0.0,0.0,0.0,0.0,0.0,0.0,0.0,0.0,0.0,3.6595,3.6556,3.6494,3.6494,3.6438,3.5502,3.3496,0.0,3.2243,3.0249,3.018,3.018,3.018,3.018,3.018,3.018,3.018,3.018,3.018,3.018,3.018,3.018,3.018,3.0144,3.0117,3.018,3.018,3.018,3.018,3.018,3.018,3.018,3.0144,3.0097,0.0,0.0,0.0,0.0,0.0,4.1134,4.0565,4.0945,4.1286,4.1286,4.1097,4.0972,4.0972,4.0972,4.0972,4.0972,4.1186,0.0,0.0,0.0,0.0,4.1286,4.1286,4.1286,4.1286,4.1286,4.1286,0.0,0.0,0.0,0.0,0.0,0.0,0.0,0.0,0.0,4.0147,3.989,0.0,3.9852,3.98,3.9762,3.9762,3.9723,3.9697,3.9697,3.9697,3.9697,3.9697,3.9697,3.9697,3.9697,3.9697,3.9697,3.9697,3.9697,3.9697,3.9697,3.9697,3.9697,3.9697,3.9697,3.9697,3.9697,3.9697,3.9622,3.9584,3.9672,3.9534,3.9295,3.8957,0.0,0.0,0.0,0.0,0.0,0.0,0.0,0.0,0.0,0.0,3.7713,3.7713,3.7336,3.706,3.706,3.6604,3.5771,3.4495,0.0,3.2404,0.0,3.116,3.116,0.0,0.0,3.116,3.116,3.116,3.116,3.116,3.116,3.116,3.116,3.116,3.1014,3.0765,3.1041,3.116,3.116,3.116,3.116,3.116,3.116,3.0976,3.0663,0.0,0.0,0.0,0.0,0.0,0.0,0.0,4.1725,4.1827,4.1362,4.1697,4.193,4.1815,4.1905,4.1982,4.1982,4.1969,4.1982,4.1982,4.1982,4.1982,4.1982,4.2097,0.0,4.1755,4.1755,4.1561,4.1097,0.0,0.0,0.0,0.0,0.0,4.0504,0.0,4.0415,0.0,0.0,4.019,4.0332,4.0478,4.0349,4.0124,4.0124,3.9936,3.9697,3.9697,3.9697,3.9697,3.9697,3.9697,3.9697,3.9697,3.9697,3.9697,3.9697,3.9697,3.9697,3.9697,3.9697,3.9697,3.9697,3.9697,3.9697,3.9697,3.9697,3.9697,3.9697,3.9697,3.9534,3.8994,3.8668,0.0,0.0,0.0,0.0,0.0,0.0,0.0,0.0,0.0,0.0,0.0,0.0,0.0,0.0,3.6457,3.5547,3.387,0.0,3.2448,0.0,0.0,0.0,3.1408,0.0,3.1408,3.1408,3.1408,3.1408,3.1408,3.1408,3.1408,3.1408,3.1408,3.1316,3.1158,3.1316,3.1206,3.0911,3.1076,3.1021,3.0884,3.0884,3.0791,3.061,0.0,4.1867,0.0,0.0,4.2327,4.238,4.205,4.2391,4.2407,4.1671,4.2254,4.2644,4.2433,4.2604,4.2722,4.2722,4.2578,4.2486,4.2486,4.2486,4.2512,4.2604,4.2801,4.2736,4.2382,4.2369,4.2019,0.0,0.0,0.0,0.0,0.0,0.0,0.0,0.0,0.0,0.0,0.0,4.0782,4.0992,4.1207,4.1051,4.0662,4.0662,4.0425,4.0049,4.0049,3.9973,3.9873,3.9873,3.9785,3.9697,3.9697,3.9697,3.9697,3.9697,3.9697,3.9697,3.9697,3.9697,3.9697,3.9697,3.9697,3.9697,3.9697,3.9697,3.9697,3.9697,3.9697,3.9559,3.9158,3.907,0.0,0.0,0.0,0.0,0.0,0.0,0.0,0.0,0.0,0.0,3.8366,0.0,0.0,0.0,3.6043,3.512,3.3349,3.2998,3.2476,0.0,0.0,3.1671,3.1671,0.0,3.1671,3.1671,3.1671,3.1671,3.1671,3.1671,3.1671,3.1671,3.1671,3.1633,3.1578,3.1439,3.1113,3.0731,3.0982,3.0926,3.0703,3.0703,3.0647,3.062,0.0,0.0,0.0,0.0,0.0,4.197,4.1476,4.2296,4.2853,4.2512,4.2091,4.1825,4.1798,4.1825,4.1825,4.1825,4.2011,4.2156,4.2156,4.2156,4.2288,4.2604,4.2617,4.2722,4.2918,4.2918,4.2892,0.0,0.0,4.206,0.0,0.0,0.0,0.0,0.0,0.0,0.0,4.1241,4.124,4.1266,4.129,4.1277,4.124,4.124,4.1175,4.1152,4.1152,4.0838,4.0411,4.0411,4.0111,3.9697,3.9697,3.9697,3.9697,3.9697,3.9697,3.9697,3.9697,3.9697,3.9697,3.9697,3.9697,3.9697,3.9697,3.9697,3.9697,3.9697,3.9697,3.9672,3.9622,3.9622,3.9597,0.0,0.0,0.0,0.0,0.0,0.0,0.0,0.0,0.0,0.0,3.8497,0.0,0.0,3.5254,3.4587,3.4366,3.3307,3.2688,3.2574,3.2574,3.2574,3.2574,3.2574,3.2574,3.2574,3.2574,3.2574,3.2574,3.2574,3.2574,3.2574,3.2574,3.245,3.2183,3.1552,3.1436,3.1667,3.1685,3.1695,3.1667,3.1667,3.1494,3.1234,0.0,0.0,0.0,0.0,0.0,0.0,4.2597,4.2964,4.3207,4.3099,4.3059,4.295,4.2734,4.2883,4.3017,4.3017,4.2938,4.287,4.287,4.287,4.2925,4.3073,4.3262,4.3269,4.3016,4.3149,4.3007,0.0,0.0,0.0,0.0,0.0,0.0,0.0,0.0,4.1315,4.1327,4.1693,4.1831,4.1856,4.2195,4.212,4.1831,4.1831,4.163,4.1315,4.1315,4.1177,4.0989,4.0989,4.0399,3.9697,3.9697,3.9697,3.9697,3.9697,3.9697,3.9697,3.9697,3.9697,3.9697,3.9697,3.9697,3.9697,3.9697,3.9697,3.9697,3.9697,3.9697,3.9697,3.9697,3.9697,3.9697,3.9697,0.0,0.0,0.0,0.0,0.0,0.0,0.0,0.0,0.0,3.8003,3.6684,0.0,3.5151,3.4173,3.3462,3.2944,3.2698,3.2698,0.0,3.2698,3.2698,3.2698,3.2698,3.2698,3.2698,3.2698,3.2698,3.2698,3.2612,3.2459,3.2258,3.1971,3.1701,3.1643,3.1479,3.1286,3.145,3.1392,3.1257,3.1257,3.117,3.1054,4.3196,0.0,4.2702,4.3192,4.3295,4.3295,4.3295,4.3295,4.3295,4.3295,4.3487,4.3543,4.3323,4.3487,4.3638,4.3638,4.3419,4.3295,4.3295,4.3295,4.331,4.3394,4.364,0.0,4.3257,4.3461,4.3255,4.2709,4.2589,0.0,0.0,0.0,0.0,0.0,4.1792,4.1792,4.1817,4.2261,4.2451,4.2462,4.2851,4.2776,4.2451,4.2451,4.2158,4.1792,4.1792,4.1691,4.1553,4.1553,4.0926,4.0174,4.0174,4.0174,4.0149,3.9986,3.9936,3.9898,3.9735,3.9697,3.9697,3.9697,3.9697,3.9697,3.9697,3.9697,3.9697,3.9697,3.9697,3.9697,3.9697,3.9697,3.9697,3.9697,0.0,0.0,0.0,3.9697,0.0,0.0,3.9697,3.9555,3.9206,3.7367,0.0,0.0,0.0,3.3604,3.2755,3.2698,3.2698,0.0,0.0,0.0,3.2698,3.2698,3.2698,3.2698,3.2698,3.2698,3.2698,3.2612,3.243,3.2133,3.1787,3.1527,3.1296,3.1479,3.1286,3.0918,3.1112,3.1083,3.0889,3.0889,3.0889,3.0889,4.3045,4.3199,4.331,4.3058,4.3002,4.3002,4.3002,4.3002,4.3002,4.3002,4.3002,4.3002,4.3002,4.3002,4.3002,4.3002,4.3002,4.3002,4.3002,4.3002,4.3113,0.0,0.0,4.3545,4.3887,4.3887,4.3887,4.3887,0.0,0.0,4.2567,0.0,4.2462,4.2989,4.2989,4.2989,4.2989,4.2989,4.3002,4.3002,4.3002,4.3002,4.3002,4.3002,4.2989,4.2989,4.2989,4.2637,4.22,4.22,4.1769,4.1263,4.1263,4.1263,4.1189,4.0637,4.0487,4.0361,3.9835,3.9697,3.9697,3.9697,3.9697,3.9697,3.9697,3.9697,3.9697,3.9697,3.9697,3.9697,3.9697,3.9697,3.9697,3.9697,0.0,0.0,0.0,0.0,0.0,3.9697,3.9697,3.9232,3.8029,3.6873,0.0,0.0,0.0,3.2737,0.0,0.0,0.0,3.2698,3.2698,0.0,3.2698,3.2698,3.2698,3.2698,3.2698,3.2698,3.2698,3.243,3.2104,3.1787,3.1441,3.1296,3.1276,3.1025,3.0928,3.0889,3.0889,3.0889,3.0889,3.0889,3.0889,3.0889,4.3295,4.3184,4.3113,4.3002,4.3002,4.3002,4.3002,4.3002,4.3002,4.3002,4.3002,4.3002,4.3002,4.3002,4.3002,0.0,4.3002,4.3002,0.0,4.3002,4.303,4.3113,4.3129,4.3169,4.3293,4.3474,4.3545,4.3545,0.0,0.0,0.0,4.2806,4.2838,4.3002,4.3002,4.3002,4.3002,4.3002,4.3002,4.3002,4.3002,4.3002,4.3002,4.3002,4.3002,4.3002,4.3002,4.2889,4.275,4.275,4.2625,4.2459,4.2459,4.1917,4.1277,4.1102,4.1051,4.1014,4.0838,4.0512,4.0262,4.0262,3.9973,3.9697,3.9697,3.9697,3.9697,3.9697,3.9697,3.9697,3.9697,3.9697,3.9697,3.9697,3.9697,0.0,3.9697,0.0,3.8463,3.8463,3.7779,3.7168,3.6792,3.5717,0.0,0.0,0.0,0.0,0.0,0.0,0.0,0.0,3.2698,0.0,3.2698,3.2698,3.2698,3.2698,3.2698,3.2612,3.2402,3.1874,3.1556,3.1441,3.1141,3.1025,3.1025,3.0947,3.0889,3.0889,3.0889,3.0889,3.0889,3.0889,3.0889,3.0889,4.324,4.3113,4.3002,4.3002,4.3002,4.3002,4.3002,4.3002,4.3002,4.3002,4.3002,4.3002,4.3002,4.3002,4.3002,4.3002,4.3002,4.3002,4.3002,4.3002,4.3002,4.3002,4.3002,4.3002,4.3002,4.3156,0.0,4.324,4.324,4.3156,4.3002,4.3002,4.3002,4.3002,4.3002,4.3002,4.3002,4.3002,4.3002,4.3002,4.3002,4.3002,4.3002,4.3002,4.3002,4.3002,4.3002,4.3002,4.3002,4.3002,4.3002,4.3002,4.3002,4.2509,4.1907,4.1706,4.1643,4.1605,4.1365,4.1064,4.08,4.08,4.0537,4.0262,4.0049,3.9835,3.9697,3.9697,3.9697,3.9697,3.9697,3.9697,3.9697,3.9697,3.9697,3.9697,3.9697,0.0,3.8411,0.0,0.0,0.0,0.0,3.4902,3.4312,0.0,0.0,0.0,0.0,0.0,3.2698,3.2698,3.2698,3.2698,3.2698,3.2698,3.2698,3.2698,3.2612,3.2315,3.1903,3.1498,3.1247,3.1131,3.0976,3.0889,3.0889,3.0889,3.0889,3.0889,3.0889,3.0889,3.0889,3.0889,3.0889,3.0889,4.3052,4.3065,4.3077,4.3115,4.3115,4.3115,4.3115,4.3115,4.3115,4.3115,4.3115,4.3115,4.3115,4.3115,4.3115,4.3115,4.3052,4.3002,4.3002,4.3002,4.3002,4.3002,4.3002,4.3002,4.3002,4.3002,4.3002,4.3002,4.3002,4.3002,4.3002,4.3002,4.3002,4.3002,4.3002,4.3002,4.3002,4.3002,4.3002,4.3002,4.3002,4.3002,4.3002,4.3002,4.3002,4.3002,4.3002,4.3002,4.3002,4.3002,4.3002,4.3002,4.3002,4.3002,4.2901,4.2386,4.2263,4.2122,4.1566,4.1403,4.1365,4.1365,4.134,4.1177,4.0662,4.0149,3.9747,3.9747,3.9722,3.9697,3.9697,3.9697,3.9697,3.9697,3.9697,3.9697,3.9697,3.9633,3.9115,0.0,0.0,0.0,3.458,3.4368,3.3903,0.0,0.0,0.0,0.0,0.0,3.2669,3.2698,3.2698,3.2698,3.2698,3.2698,3.2698,3.2669,3.2373,3.1903,3.1296,3.1267,3.1131,3.0889,3.0889,3.0889,3.0889,3.0889,3.0889,3.0889,3.0889,3.0889,3.0889,3.0889,3.0889,3.0889,4.3526,4.3601,4.374,4.4166,4.42,4.42,4.42,4.42,4.42,4.42,4.42,4.42,4.42,4.42,4.42,4.42,4.3463,4.3002,4.3002,4.3002,4.3002,4.3002,4.3002,4.3002,4.3002,4.3002,4.3002,4.3002,4.3002,4.3002,4.3002,4.3002,4.3002,4.3002,4.3002,4.3002,4.3002,4.3002,4.3002,4.3002,4.3002,4.3002,4.3002,4.3002,4.3002,4.3002,4.3002,4.3002,4.3002,4.3002,4.3002,4.3002,4.3002,4.3002,4.2977,4.2851,4.2813,4.2776,4.2622,4.2311,4.1997,4.1997,4.1643,4.1277,4.1152,4.0688,4.0325,4.0325,3.9986,3.9697,3.9697,3.9697,3.9697,3.9697,3.9697,3.9697,3.9697,3.8895,3.7897,0.0,3.5827,3.4719,3.3275,3.3143,3.3001,0.0,0.0,3.2698,3.2698,3.2526,3.2498,3.2698,3.2698,3.2698,3.2698,3.2698,3.2612,3.2402,3.1816,3.1441,3.1296,3.1083,3.0976,3.0889,3.0889,3.0889,3.0889,3.0889,3.0889,3.0889,3.0889,3.0889,3.0889,3.0889,3.0889,3.0889,4.4116,4.4179,4.4267,4.4539,4.4589,4.4589,4.4589,4.4589,4.4589,4.4589,4.4589,4.4589,4.4589,4.4589,4.4589,4.4589,4.4079,4.3727,4.3727,4.3727,4.3614,4.3363,4.3363,4.3266,4.3014,4.3002,4.3002,4.3002,4.3002,4.3002,4.3002,4.3002,4.3002,4.3002,4.3002,4.3002,4.3002,4.3002,4.3002,4.3002,4.3002,4.3002,4.3002,4.3002,4.3002,4.3002,4.3002,4.3002,4.3002,4.3002,4.3002,4.3002,4.3002,4.3002,4.3002,4.3002,4.3002,4.3002,4.3002,4.2788,4.2562,4.2562,4.2147,4.1706,4.1706,4.1265,4.0876,4.0876,4.045,4.0074,4.0074,3.9873,3.9697,3.9697,3.9232,3.8868,3.8868,3.8293,3.7287,3.5635,3.5333,3.4597,3.2869,3.2698,3.2698,3.2698,3.2584,0.0,3.2516,3.2229,3.2201,3.2526,3.2373,3.2287,3.2287,3.2287,3.2143,3.1845,3.1469,3.1247,3.1112,3.0976,3.0889,3.0889,3.0889,3.0889,3.0889,3.0889,3.0889,3.0889,3.0889,3.0889,3.0889,3.0889,3.0889,3.0889,4.4702,4.4727,4.4752,4.4828,4.4853,4.4853,4.4853,4.4853,4.4853,4.4853,4.4853,4.4853,4.4853,4.4853,4.4853,4.4853,4.4853,4.4778,4.4602,4.4589,4.4389,4.3953,4.3928,4.3702,4.3266,4.3165,4.309,4.3002,4.3002,4.3002,4.3002,4.3002,4.3002,4.3002,4.3002,4.3002,4.3002,4.3002,4.3002,4.3002,4.3002,4.3002,4.3002,4.3002,4.3002,4.3002,4.3002,4.3002,4.3002,4.3002,4.3002,4.3002,4.3002,4.3002,4.3002,4.3002,4.3002,4.3002,4.3002,4.3002,4.3002,4.3002,4.265,4.2338,4.2338,4.1856,4.144,4.144,4.1001,4.0612,4.0612,4.0262,3.9859,3.9615,3.869,3.7954,3.7684,0.0,3.6858,3.4747,3.5361,3.5085,3.2916,3.2698,3.2669,3.2641,3.243,3.2277,3.2219,3.1903,3.1845,3.2133,3.1903,3.1787,3.1787,3.1759,3.1585,3.1296,3.1276,3.1102,3.0889,3.0889,3.0889,3.0889,3.0889,3.0889,3.0889,3.0889,3.0889,3.0889,3.0889,3.0889,3.0889,3.0889,3.0889,3.0889,4.5259,4.5347,4.5497,4.5974,4.605,4.605,4.605,4.605,4.605,4.605,4.605,4.605,4.605,4.605,4.605,4.605,4.605,4.5618,4.4652,4.4589,4.4552,4.4476,4.4464,4.4426,4.4338,4.3915,4.3438,4.3002,4.3002,4.3002,4.3002,4.3002,4.3002,4.3002,4.3002,4.3002,4.3002,4.3002,4.3002,4.3002,4.3002,4.3002,4.3002,4.3002,4.3002,4.3002,4.3002,4.3002,4.3002,4.3002,4.3002,4.3002,4.3002,4.3002,4.3002,4.3002,4.3002,4.3002,4.3002,4.3002,4.3002,4.3002,4.2939,4.2876,4.2876,4.2449,4.206,4.206,4.1593,4.1189,4.1189,4.1114,4.0595,3.9167,3.8787,3.8147,3.6661,0.0,3.5979,3.4664,3.4664,3.4228,3.2841,3.2698,3.2612,3.2373,3.2305,3.219,3.1903,3.1556,3.1412,3.1441,3.1672,3.1787,3.1787,3.1527,3.1354,3.1296,3.1083,3.0947,3.0889,3.0889,3.0889,3.0889,3.0889,3.0889,3.0889,3.0889,3.0889,3.0889,3.0889,3.0889,3.0889,3.0889,3.0889,3.0889,4.5886,4.5937,4.6012,4.6276,4.6313,4.6313,4.6313,4.6313,4.6313,4.6313,4.6313,4.6313,4.6313,4.6313,4.6313,4.6313,4.6313,4.6087,4.5543,4.5505,4.5397,4.5095,4.5083,4.4945,4.4602,4.4351,4.4116,4.3865,4.3564,4.3426,4.3413,4.3152,4.3002,4.3002,4.3002,4.3002,4.3002,4.3002,4.3002,4.3002,4.3002,4.3002,4.3002,4.3002,4.3002,4.3002,4.3002,4.3002,4.3002,4.3002,4.3002,4.3002,4.3002,4.3002,4.3002,4.3002,4.3002,4.3002,4.3002,4.3002,4.3002,4.3002,4.3002,4.3002,4.3002,4.2813,4.2625,4.2625,4.2185,4.1769,4.1769,4.095,4.0246,4.0148,3.8481,3.7136,3.7007,3.6426,3.5464,3.4072,3.4438,3.4256,3.2833,3.2584,3.243,3.2315,3.196,3.1701,3.1527,3.1247,3.1083,3.1083,3.1228,3.1315,3.1315,3.117,3.1083,3.1083,3.0947,3.0889,3.0889,3.0889,3.0889,3.0889,3.0889,3.0889,3.0889,3.0889,3.0889,3.0889,3.0889,3.0889,3.0889,3.0889,3.0889,3.0889,4.6313,4.6313,4.6313,4.6313,4.6313,4.6313,4.6313,4.6313,4.6313,4.6313,4.6313,4.6313,4.6313,4.6313,4.6313,4.6313,4.6313,4.6313,4.6313,4.6313,4.6125,4.5698,4.5686,4.5409,4.4803,4.4819,4.4727,4.4589,4.4204,4.3991,4.3978,4.3564,4.3316,4.3203,4.3203,4.3127,4.3002,4.3002,4.3002,4.3002,4.3002,4.3002,4.3002,4.3002,4.3002,4.3002,4.3002,4.3002,4.3002,4.3002,4.3002,4.3002,4.3002,4.3002,4.3002,4.3002,4.3002,4.3002,4.3002,4.3002,4.3002,4.3002,4.3002,4.3002,4.3002,4.3002,4.3002,4.3002,4.2663,4.2401,4.2401,4.0982,3.9964,4.0553,0.0,3.6194,3.6783,3.6034,3.4907,3.3605,3.4212,3.4248,3.2924,3.2593,3.2448,3.239,3.1895,3.1573,3.1515,3.1201,3.0996,3.0898,3.0889,3.0889,3.0889,3.0889,3.0889,3.0889,3.0889,3.0889,3.0889,3.0889,3.0889,3.0889,3.0889,3.0889,3.0889,3.0889,3.0889,3.0889,3.0889,3.0889,3.0889,3.0889,3.0889,3.0889,4.6313,4.6313,4.6313,4.6313,4.6313,4.6313,4.6313,4.6313,4.6313,4.6313,4.6313,4.6313,4.6313,4.6313,4.6313,4.6313,4.6313,4.6313,4.6313,4.6313,4.6288,4.625,4.625,4.5987,4.5434,4.5422,4.5158,4.4589,4.4552,4.4539,4.4539,4.4489,4.4229,4.374,4.374,4.3463,4.3002,4.3002,4.3002,4.3002,4.3002,4.3002,4.3002,4.3002,4.3002,4.3002,4.3002,4.3002,4.3002,4.3002,4.3002,4.3002,4.3002,4.3002,4.3002,4.3002,4.3002,4.3002,4.3002,4.3002,4.3002,4.3002,4.3002,4.3002,4.3002,4.3002,4.3002,4.3002,4.2977,4.2951,4.2951,4.1853,4.0469,3.8942,0.0,0.0,3.4559,3.427,3.4081,3.3633,3.3653,3.3553,3.3105,3.3035,3.2915,3.2584,3.2524,3.2383,3.2161,3.1689,3.1299,3.0898,3.0889,3.0889,3.0889,3.0889,3.0889,3.0889,3.0889,3.0889,3.0889,3.0889,3.0889,3.0889,3.0889,3.0889,3.0889,3.0889,3.0889,3.0889,3.0889,3.0889,3.0889,3.0889,3.0889,3.0889,4.6313,4.6313,4.6313,4.6313,4.6313,4.6313,4.6313,4.6313,4.6313,4.6313,4.6313,4.6313,4.6313,4.6313,4.6313,4.6313,4.6313,4.6313,4.6313,4.6313,4.6313,4.6313,4.6313,4.6213,4.5999,4.5999,4.5886,4.5643,4.5321,4.5158,4.5146,4.4794,4.4476,4.4317,4.4317,4.4003,4.3489,4.3489,4.3288,4.3002,4.3002,4.3002,4.3002,4.3002,4.3002,4.3002,4.3002,4.3002,4.3002,4.3002,4.3002,4.3002,4.3002,4.3002,4.3002,4.3002,4.3002,4.3002,4.3002,4.3002,4.3002,4.3002,4.3002,4.3002,4.3002,4.3002,4.3002,4.3002,4.3002,4.3002,4.3002,4.1301,3.9977,4.0095,0.0,3.5838,3.5788,3.5092,3.4381,3.3801,3.373,3.3569,3.3135,3.2925,3.2744,3.2623,3.2461,3.231,3.2198,3.2042,3.1846,3.1719,3.171,3.1465,3.0898,3.0889,3.0889,3.0889,3.0889,3.0889,3.0889,3.0889,3.0889,3.0889,3.0889,3.0889,3.0889,3.0889,3.0889,3.0889,3.0889,3.0889,3.0889,3.0889,3.0889,3.0889,4.6313,4.6313,4.6313,4.6313,4.6313,4.6313,4.6313,4.6313,4.6313,4.6313,4.6313,4.6313,4.6313,4.6313,4.6313,4.6313,4.6313,4.6313,4.6313,4.6313,4.6313,4.6313,4.6313,4.6313,4.6313,4.6313,4.6313,4.6313,4.5937,4.5748,4.5736,4.5334,4.5029,4.4895,4.4895,4.4581,4.4053,4.4053,4.374,4.3266,4.3266,4.3165,4.3002,4.3002,4.3002,4.3002,4.3002,4.3002,4.3002,4.3002,4.3002,4.3002,4.3002,4.3002,4.3002,4.3002,4.3002,4.3002,4.3002,4.3002,4.3002,4.3002,4.3002,4.3002,4.3002,4.3002,4.3002,4.3002,4.3002,4.3002,4.3002,4.1243,3.996,4.0425,3.7869,3.593,3.6154,3.5356,3.453,3.3887,3.3826,3.3675,3.3243,3.2999,3.2856,3.2856,3.2672,3.2531,3.2404,3.2394,3.2335,3.2208,3.2198,3.1915,3.1299,3.1152,3.1094,3.1084,3.0957,3.0889,3.0889,3.0889,3.0889,3.0889,3.0889,3.0889,3.0889,3.0889,3.0889,3.0889,3.0889,3.0889,3.0889,3.0889,3.0889,3.0889,4.6313,4.6313,4.6313,4.6313,4.6313,4.6313,4.6313,4.6313,4.6313,4.6313,4.6313,4.6313,4.6313,4.6313,4.6313,4.6313,4.6313,4.6313,4.6313,4.6313,4.6313,4.6313,4.6313,4.6313,4.6313,4.6313,4.6313,4.6313,4.6313,4.6313,4.6313,4.6313,4.6024,4.5497,4.5497,4.5171,4.4602,4.4602,4.4276,4.3802,4.3802,4.3476,4.3002,4.3002,4.3002,4.3002,4.3002,4.3002,4.3002,4.3002,4.3002,4.3002,4.3002,4.3002,4.3002,4.3002,4.3002,4.3002,4.3002,4.3002,4.3002,4.3002,4.3002,4.3002,4.3002,4.3002,4.3002,4.3002,4.2974,4.2974,4.2974,4.1952,4.0656,3.9393,3.7828,3.6327,3.5067,3.461,3.4267,3.3953,3.389,3.3765,3.3418,3.3386,3.3386,3.3386,3.3386,3.3242,3.2822,3.2803,3.2607,3.2218,3.2208,3.2208,3.2208,3.1738,3.1523,3.1484,3.1103,3.0898,3.0898,3.0898,3.0898,3.0898,3.0898,3.0898,3.0898,3.0889,3.0889,3.0889,3.0889,3.0889,3.0889,3.0889,3.0889,3.0889,4.6313,4.6313,4.6313,4.6313,4.6313,4.6313,4.6313,4.6313,4.6313,4.6313,4.6313,4.6313,4.6313,4.6313,4.6313,4.6313,4.6313,4.6313,4.6313,4.6313,4.6313,4.6313,4.6313,4.6313,4.6313,4.6313,4.6313,4.6313,4.6313,4.6313,4.6313,4.6313,4.6225,4.6062,4.6062,4.5748,4.5234,4.5234,4.4681,4.3802,4.3802,4.3476,4.3002,4.3002,4.3002,4.3002,4.3002,4.3002,4.3002,4.3002,4.3002,4.3002,4.3002,4.3002,4.3002,4.3002,4.3002,4.3002,4.3002,4.3002,4.3002,4.3002,4.3002,4.3002,4.3002,4.3002,4.3002,4.3002,4.2303,4.1684,4.1684,3.9908,3.8216,3.7618,3.6368,3.518,3.4329,3.411,3.3922,3.3576,3.3544,3.3513,3.3418,3.3386,3.3386,3.3386,3.3386,3.3369,3.3242,3.3232,3.3174,3.3057,3.3047,3.3047,3.3047,3.2334,3.2003,3.2003,3.1876,3.1817,3.1817,3.1817,3.1817,3.1798,3.1465,3.1328,3.1309,3.1016,3.0889,3.0889,3.0889,3.0889,3.0889,3.0889,3.0889,3.0889,4.6313,4.6313,4.6313,4.6313,4.6313,4.6313,4.6313,4.6313,4.6313,4.6313,4.6313,4.6313,4.6313,4.6313,4.6313,4.6313,4.6313,4.6313,4.6313,4.6313,4.6313,4.6313,4.6313,4.6313,4.6313,4.6313,4.6313,4.6313,4.6313,4.6313,4.6313,4.6313,4.6313,4.6313,4.6313,4.6125,4.5811,4.5811,4.5296,4.4443,4.4217,4.379,4.3275,4.309,4.3002,4.2918,4.2416,4.2569,4.2918,4.2416,4.2597,4.3002,4.3002,4.3002,4.3002,4.3002,4.3002,4.3002,4.3002,4.3002,4.3002,4.3002,4.3002,4.3002,4.3002,4.3002,4.3002,4.3002,4.2388,4.1712,4.1186,3.9721,3.8205,3.7004,3.594,3.4953,3.4037,3.3796,3.3639,3.3418,3.3386,3.3386,3.3386,3.3386,3.3386,3.3386,3.3386,3.3386,3.3386,3.3386,3.3386,3.3386,3.3386,3.3386,3.3386,3.292,3.2578,3.2443,3.2276,3.2198,3.2198,3.2198,3.2198,3.2189,3.1894,3.1777,3.1758,3.1494,3.1396,3.1396,3.1396,3.1396,3.1407,3.1201,3.1143,3.1113,4.6313,4.6313,4.6313,4.6313,4.6313,4.6313,4.6313,4.6313,4.6313,4.6313,4.6313,4.6313,4.6313,4.6313,4.6313,4.6313,4.6313,4.6313,4.6313,4.6313,4.6313,4.6313,4.6313,4.6313,4.6313,4.6313,4.6313,4.6313,4.6313,4.6313,4.6313,4.6313,4.6313,4.6313,4.6313,4.6313,4.6313,4.6313,4.5962,4.5359,4.4803,4.4267,4.3677,4.3203,4.3002,4.2862,4.1684,4.2008,4.2821,4.1655,4.2037,4.3002,4.3002,4.3002,4.3002,4.3002,4.3002,4.3002,4.3002,4.3002,4.3002,4.3002,4.3002,4.3002,4.3002,4.3002,4.3002,4.3002,4.2918,4.2416,4.1129,4.0546,3.9434,3.6944,3.6031,3.5211,3.4037,3.3576,3.3386,3.3386,3.3386,3.3386,3.3386,3.3386,3.3386,3.3386,3.3386,3.3386,3.3386,3.3386,3.3386,3.3386,3.3386,3.3386,3.3386,3.3386,3.3232,3.2842,3.2492,3.2316,3.2316,3.2316,3.2316,3.2306,3.2276,3.2257,3.2247,3.2218,3.2198,3.2198,3.2198,3.2198,3.2149,3.1728,3.1542,3.1523,4.6313,4.6313,4.6313,4.6313,4.6313,4.6313,4.6313,4.6313,4.6313,4.6313,4.6313,4.6313,4.6313,4.6313,4.6313,4.6313,4.6313,4.6313,4.6313,4.6313,4.6313,4.6313,4.6313,4.6313,4.6313,4.6313,4.6313,4.6313,4.6313,4.6313,4.6313,4.6313,4.6313,4.6313,4.6313,4.6313,4.6313,4.6313,4.5736,4.4765,4.464,4.4028,4.3165,4.3052,4.3002,4.2946,4.2681,4.2765,4.2946,4.2681,4.2765,4.3002,4.3002,4.3002,4.3002,4.3002,4.3002,4.3002,4.3002,4.3002,4.3002,4.3002,4.3002,4.3002,4.3002,4.3002,4.3002,4.3002,4.2206,4.1031,3.9487,3.8354,3.6944,3.4881,3.4393,3.4121,3.3576,3.3449,3.3386,3.3386,3.3386,3.3386,3.3386,3.3386,3.3386,3.3386,3.3386,3.3386,3.3386,3.3386,3.3386,3.3386,3.3386,3.3386,3.3386,3.3386,3.3347,3.3281,3.3193,3.3144,3.3144,3.3144,3.3144,3.3135,3.2803,3.2656,3.2637,3.2335,3.2198,3.2198,3.2198,3.2198,3.2189,3.2091,3.2061,3.2042,4.6313,4.6313,4.6313,4.6313,4.6313,4.6313,4.6313,4.6313,4.6313,4.6313,4.6313,4.6313,4.6313,4.6313,4.6313,4.6313,4.6313,4.6313,4.6313,4.6313,4.6313,4.6313,4.6313,4.6313,4.6313,4.6313,4.6313,4.6313,4.6313,4.6313,4.6313,4.6313,4.6313,4.6313,4.6313,4.6313,4.6288,4.6037,4.5573,4.4982,4.4455,4.3878,4.3338,4.3102,4.2625,4.2008,4.1427,4.0789,4.0459,4.1672,4.2093,4.2206,4.2806,4.3002,4.3002,4.3002,4.3002,4.3002,4.3002,4.3002,4.3002,4.3002,4.3002,4.3002,4.3002,4.3002,4.3002,4.3002,4.2331,4.1129,3.9075,3.7906,3.653,3.4288,3.3765,3.3607,3.3418,3.3386,3.3386,3.3386,3.3386,3.3386,3.3386,3.3386,3.3386,3.3386,3.3386,3.3386,3.3386,3.3386,3.3386,3.3386,3.3386,3.3386,3.3386,3.3386,3.3386,3.3386,3.3386,3.3386,3.3386,3.3386,3.3386,3.3377,3.3193,3.3096,3.3076,3.2861,3.2764,3.2764,3.2764,3.2764,3.2744,3.257,3.2364,3.2198,4.6313,4.6313,4.6313,4.6313,4.6313,4.6313,4.6313,4.6313,4.6313,4.6313,4.6313,4.6313,4.6313,4.6313,4.6313,4.6313,4.6313,4.6313,4.6313,4.6313,4.6313,4.6313,4.6313,4.6313,4.6313,4.6313,4.6313,4.6313,4.6313,4.6313,4.6313,4.6313,4.6313,4.6313,4.6313,4.6263,4.6137,4.5686,4.5384,4.5121,4.4179,4.374,4.3586,4.2912,4.2008,4.0916,3.9656,3.8643,3.8276,4.0384,4.1243,4.1627,4.2653,4.3002,4.3002,4.3002,4.3002,4.3002,4.3002,4.3002,4.2974,4.2918,4.2918,4.289,4.2874,4.289,4.2918,4.2918,4.2666,4.1639,3.9046,3.8145,3.6913,3.4247,3.3576,3.3386,3.3386,3.3386,3.3386,3.3386,3.3386,3.3386,3.3386,3.3386,3.3386,3.3386,3.3386,3.3386,3.3386,3.3386,3.3386,3.3386,3.3386,3.3386,3.3386,3.3386,3.3386,3.3386,3.3386,3.3386,3.3386,3.3386,3.3386,3.3386,3.3386,3.3386,3.3386,3.3386,3.3386,3.3386,3.3386,3.3386,3.3347,3.3027,3.2685,3.2413,4.6313,4.6313,4.6313,4.6313,4.6313,4.6313,4.6313,4.6313,4.6313,4.6313,4.6313,4.6313,4.6313,4.6313,4.6313,4.6313,4.6313,4.6313,4.6313,4.6313,4.6313,4.6313,4.6313,4.6313,4.6313,4.6313,4.6313,4.6313,4.6313,4.6313,4.6313,4.6313,4.6313,4.6313,4.6313,4.605,4.5598,4.5522,4.492,4.4016,4.3865,4.3514,4.299,4.1806,4.1243,4.0916,3.9656,3.9803,4.0656,4.0973,4.1826,4.2765,4.2946,4.3002,4.3002,4.3002,4.3002,4.3002,4.3002,4.3002,4.2918,4.2638,4.2581,4.2497,4.2268,4.2397,4.2581,4.2581,4.234,4.128,3.8443,3.7876,3.6853,3.3933,3.3418,3.3386,3.3386,3.3386,3.3386,3.3386,3.3386,3.3386,3.3386,3.3386,3.3386,3.3386,3.3386,3.3386,3.3386,3.3386,3.3386,3.3386,3.3386,3.3386,3.3386,3.3386,3.3386,3.3386,3.3386,3.3386,3.3386,3.3386,3.3386,3.3386,3.3386,3.3386,3.3386,3.3386,3.3386,3.3386,3.3386,3.3386,3.3386,3.3328,3.3269,3.3252,4.6313,4.6313,4.6313,4.6313,4.6313,4.6313,4.6313,4.6313,4.6313,4.6313,4.6313,4.6313,4.6313,4.6313,4.6313,4.6313,4.6313,4.6313,4.6313,4.6313,4.6313,4.6313,4.6313,4.6313,4.6313,4.6313,4.5926,4.5178,4.5926,4.6313,4.6313,4.6313,4.615,4.5849,4.5849,4.5535,4.4982,4.4681,4.4254,4.3777,4.3463,4.278,4.1895,4.1301,4.021,3.881,3.7519,3.791,3.9075,3.9803,4.0425,4.1129,4.2569,4.3002,4.3002,4.3002,4.2862,4.2722,4.2722,4.261,4.2466,4.2312,4.2284,4.2256,4.2126,4.2057,4.2033,4.2227,4.2029,4.1009,3.8294,3.7637,3.6621,3.3849,3.3386,3.3386,3.3386,3.3386,3.3386,3.3386,3.3386,3.3386,3.3386,3.3386,3.3386,3.3386,3.3386,3.3386,3.3386,3.3386,3.3386,3.3386,3.3386,3.3386,3.3386,3.3386,3.3386,3.3386,3.3386,3.3386,3.3386,3.3386,3.3386,3.3386,3.3386,3.3386,3.3386,3.3386,3.3386,3.3386,3.3386,3.3386,3.3386,3.3386,3.3386,3.3292]},{"header":{"parameterUnit":"m.s-1","parameterCategory":1,"la1":30.6,"la2":28.766,"lo1":-90.7593,"lo2":-88.6598,"dy":0.0162,"dx":0.0183,"nx":116,"ny":114,"refTime":"2023-11-20T18:00:00:Z","depth":0,"parameterNumber":3,"parameterNumberName":"V-component_of_WINDS"},"data":[0.0,0.0,0.0,0.0,0.0,0.0,0.0,0.0,0.0,0.0,0.0,0.0,0.0,0.0,0.0,0.0,0.0,0.0,0.0,0.0,0.0,0.0,0.0,0.0,0.0,0.0,0.0,0.0,0.0,0.0,0.0,0.0,0.0,0.0,0.0,0.0,0.0,0.0,0.0,0.0,0.0,0.0,0.0,0.0,0.0,0.0,0.0,0.0,0.0,0.0,0.0,0.0,0.0,0.0,0.0,0.0,0.0,0.0,0.0,0.0,0.0,0.0,0.0,0.0,0.0,0.0,0.0,0.0,0.0,0.0,0.0,0.0,0.0,0.0,0.0,0.0,0.0,0.0,0.0,0.0,0.0,0.0,0.0,0.0,0.0,0.0,0.0,0.0,0.0,0.0,0.0,0.0,0.0,0.0,0.0,0.0,0.0,0.0,0.0,0.0,0.0,0.0,0.0,0.0,0.0,0.0,0.0,0.0,0.0,0.0,0.0,0.0,0.0,0.0,0.0,0.0,0.0,0.0,0.0,0.0,0.0,0.0,0.0,0.0,0.0,0.0,0.0,0.0,0.0,0.0,0.0,0.0,0.0,0.0,0.0,0.0,0.0,0.0,0.0,0.0,0.0,0.0,0.0,0.0,0.0,0.0,0.0,0.0,0.0,0.0,0.0,0.0,0.0,0.0,0.0,0.0,0.0,0.0,0.0,0.0,0.0,0.0,0.0,0.0,0.0,0.0,0.0,0.0,0.0,0.0,0.0,0.0,0.0,0.0,0.0,0.0,0.0,0.0,0.0,0.0,0.0,0.0,0.0,0.0,0.0,0.0,0.0,0.0,0.0,0.0,0.0,0.0,0.0,0.0,0.0,0.0,0.0,0.0,0.0,0.0,0.0,0.0,0.0,0.0,0.0,0.0,0.0,0.0,0.0,0.0,0.0,0.0,0.0,0.0,0.0,0.0,0.0,0.0,0.0,0.0,0.0,0.0,0.0,0.0,0.0,0.0,0.0,0.0,0.0,0.0,0.0,0.0,0.0,0.0,0.0,0.0,0.0,0.0,0.0,0.0,0.0,0.0,0.0,0.0,0.0,0.0,0.0,0.0,0.0,0.0,0.0,0.0,0.0,0.0,0.0,0.0,0.0,0.0,0.0,0.0,0.0,0.0,0.0,0.0,0.0,0.0,0.0,0.0,0.0,0.0,0.0,0.0,0.0,0.0,0.0,0.0,0.0,0.0,0.0,0.0,0.0,0.0,0.0,0.0,0.0,0.0,0.0,0.0,0.0,0.0,0.0,0.0,0.0,0.0,0.0,0.0,0.0,0.0,0.0,0.0,0.0,0.0,0.0,0.0,0.0,0.0,0.0,0.0,0.0,0.0,0.0,0.0,0.0,0.0,0.0,0.0,0.0,0.0,0.0,0.0,0.0,0.0,0.0,0.0,0.0,0.0,0.0,0.0,0.0,0.0,0.0,0.0,0.0,0.0,0.0,0.0,0.0,0.0,0.0,0.0,0.0,0.0,0.0,0.0,0.0,0.0,0.0,0.0,0.0,0.0,0.0,0.0,0.0,0.0,0.0,0.0,0.0,0.0,0.0,0.0,0.0,0.0,0.0,0.0,0.0,0.0,0.0,0.0,0.0,0.0,0.0,0.0,0.0,0.0,0.0,0.0,0.0,0.0,0.0,0.0,0.0,0.0,0.0,0.0,0.0,0.0,0.0,0.0,0.0,0.0,0.0,0.0,0.0,0.0,0.0,0.0,0.0,0.0,0.0,0.0,0.0,0.0,0.0,0.0,0.0,0.0,0.0,0.0,0.0,0.0,0.0,0.0,0.0,0.0,0.0,0.0,0.0,0.0,0.0,0.0,0.0,0.0,0.0,0.0,0.0,0.0,0.0,0.0,0.0,0.0,0.0,0.0,0.0,0.0,0.0,0.0,0.0,0.0,0.0,0.0,0.0,0.0,0.0,0.0,0.0,0.0,0.0,0.0,0.0,0.0,0.0,0.0,0.0,0.0,0.0,0.0,0.0,0.0,0.0,0.0,0.0,0.0,0.0,0.0,0.0,0.0,0.0,0.0,0.0,0.0,0.0,0.0,0.0,0.0,0.0,0.0,0.0,0.0,0.0,0.0,0.0,0.0,0.0,0.0,0.0,0.0,0.0,0.0,0.0,0.0,0.0,0.0,0.0,0.0,0.0,0.0,0.0,0.0,0.0,0.0,0.0,0.0,0.0,0.0,0.0,0.0,0.0,0.0,0.0,0.0,0.0,0.0,0.0,0.0,0.0,0.0,0.0,0.0,0.0,0.0,0.0,0.0,0.0,0.0,0.0,0.0,0.0,0.0,0.0,0.0,0.0,0.0,0.0,0.0,0.0,0.0,0.0,0.0,0.0,0.0,0.0,0.0,0.0,0.0,0.0,0.0,0.0,0.0,0.0,0.0,0.0,0.0,0.0,0.0,0.0,0.0,0.0,0.0,0.0,0.0,0.0,0.0,0.0,0.0,0.0,0.0,0.0,0.0,0.0,0.0,0.0,0.0,0.0,0.0,0.0,0.0,0.0,0.0,0.0,0.0,0.0,0.0,0.0,0.0,0.0,0.0,0.0,0.0,0.0,0.0,0.0,0.0,0.0,0.0,0.0,0.0,0.0,0.0,0.0,0.0,0.0,0.0,0.0,0.0,0.0,0.0,0.0,0.0,0.0,0.0,0.0,0.0,0.0,0.0,0.0,0.0,0.0,0.0,0.0,0.0,0.0,0.0,0.0,0.0,0.0,0.0,0.0,0.0,0.0,0.0,0.0,0.0,0.0,0.0,0.0,0.0,0.0,0.0,0.0,0.0,0.0,0.0,0.0,0.0,0.0,0.0,0.0,0.0,0.0,0.0,0.0,0.0,0.0,0.0,0.0,0.0,0.0,0.0,0.0,0.0,0.0,0.0,0.0,0.0,0.0,0.0,0.0,0.0,0.0,0.0,0.0,0.0,0.0,0.0,0.0,0.0,0.0,0.0,0.0,0.0,0.0,0.0,0.0,0.0,0.0,0.0,0.0,0.0,0.0,0.0,0.0,0.0,0.0,0.0,0.0,0.0,0.0,0.0,0.0,0.0,0.0,0.0,0.0,0.0,0.0,0.0,0.0,0.0,0.0,0.0,0.0,0.0,0.0,0.0,0.0,0.0,0.0,0.0,0.0,0.0,0.0,0.0,0.0,0.0,0.0,0.0,0.0,0.0,0.0,0.0,0.0,0.0,0.0,0.0,0.0,0.0,0.0,0.0,0.0,0.0,0.0,0.0,0.0,0.0,0.0,0.0,0.0,0.0,0.0,0.0,0.0,0.0,0.0,0.0,0.0,0.0,0.0,0.0,0.0,0.0,0.0,0.0,0.0,0.0,0.0,0.0,0.0,0.0,0.0,0.0,0.0,0.0,0.0,0.0,0.0,0.0,0.0,0.0,0.0,0.0,0.0,0.0,0.0,0.0,0.0,0.0,0.0,0.0,0.0,0.0,0.0,0.0,0.0,0.0,0.0,0.0,0.0,0.0,0.0,0.0,0.0,0.0,0.0,0.0,0.0,0.0,0.0,0.0,0.0,0.0,0.0,0.0,0.0,0.0,0.0,0.0,0.0,0.0,0.0,0.0,0.0,0.0,0.0,0.0,0.0,0.0,0.0,0.0,0.0,0.0,0.0,0.0,0.0,0.0,0.0,0.0,0.0,0.0,0.0,0.0,0.0,0.0,0.0,0.0,0.0,0.0,0.0,0.0,0.0,0.0,0.0,0.0,0.0,0.0,0.0,0.0,0.0,0.0,0.0,0.0,0.0,0.0,0.0,0.0,0.0,0.0,0.0,0.0,0.0,0.0,0.0,0.0,0.0,0.0,0.0,0.0,0.0,0.0,0.0,0.0,0.0,0.0,0.0,0.0,0.0,0.0,0.0,0.0,0.0,0.0,0.0,0.0,0.0,0.0,0.0,0.0,0.0,0.0,0.0,0.0,0.0,0.0,0.0,0.0,0.0,0.0,0.0,0.0,0.0,0.0,0.0,0.0,0.0,0.0,0.0,0.0,0.0,0.0,0.0,0.0,0.0,0.0,0.0,0.0,0.0,0.0,0.0,0.0,0.0,0.0,0.0,0.0,0.0,0.0,0.0,0.0,0.0,0.0,0.0,0.0,0.0,0.0,0.0,0.0,0.0,0.0,0.0,0.0,0.0,0.0,0.0,0.0,0.0,0.0,0.0,0.0,0.0,0.0,0.0,0.0,0.0,0.0,0.0,0.0,0.0,0.0,0.0,0.0,0.0,0.0,0.0,0.0,0.0,0.0,0.0,0.0,0.0,0.0,0.0,0.0,0.0,0.0,0.0,0.0,0.0,0.0,0.0,0.0,0.0,0.0,0.0,0.0,0.0,0.0,0.0,0.0,0.0,0.0,0.0,0.0,0.0,0.0,0.0,0.0,0.0,0.0,0.0,0.0,0.0,0.0,0.0,0.0,0.0,0.0,0.0,0.0,0.0,0.0,0.0,0.0,0.0,0.0,0.0,0.0,0.0,0.0,0.0,0.0,0.0,0.0,0.0,0.0,0.0,0.0,0.0,0.0,0.0,0.0,0.0,0.0,0.0,0.0,0.0,0.0,0.0,0.0,0.0,0.0,0.0,0.0,0.0,0.0,0.0,0.0,0.0,0.0,0.0,0.0,0.0,0.0,0.0,0.0,0.0,0.0,0.0,0.0,0.0,0.0,0.0,0.0,0.0,0.0,0.0,0.0,0.0,0.0,0.0,0.0,0.0,0.0,0.0,0.0,0.0,0.0,0.0,0.0,0.0,0.0,0.0,0.0,0.0,0.0,0.0,0.0,0.0,0.0,0.0,0.0,0.0,0.0,0.0,0.0,0.0,0.0,0.0,0.0,0.0,0.0,0.0,0.0,0.0,0.0,0.0,0.0,0.0,0.0,0.0,0.0,0.0,0.0,0.0,0.0,0.0,0.0,0.0,0.0,0.0,0.0,0.0,0.0,0.0,0.0,0.0,0.0,0.0,0.0,0.0,0.0,0.0,0.0,0.0,0.0,0.0,0.0,0.0,0.0,0.0,0.0,0.0,0.0,0.0,0.0,0.0,0.0,0.0,0.0,0.0,0.0,0.0,0.0,0.0,0.0,0.0,0.0,0.0,0.0,0.0,0.0,0.0,0.0,0.0,0.0,0.0,0.0,0.0,0.0,0.0,0.0,0.0,0.0,0.0,0.0,0.0,0.0,0.0,0.0,0.0,0.0,0.0,0.0,0.0,0.0,0.0,0.0,0.0,0.0,0.0,0.0,0.0,0.0,0.0,0.0,0.0,0.0,0.0,0.0,0.0,0.0,0.0,0.0,0.0,0.0,0.0,0.0,0.0,0.0,0.0,0.0,0.0,0.0,0.0,0.0,0.0,0.0,0.0,0.0,0.0,0.0,0.0,0.0,0.0,0.0,0.0,0.0,0.0,0.0,0.0,0.0,0.0,0.0,0.0,0.0,0.0,0.0,0.0,0.0,0.0,0.0,0.0,0.0,0.0,0.0,0.0,0.0,0.0,0.0,0.0,0.0,0.0,0.0,0.0,0.0,0.0,0.0,0.0,0.0,0.0,0.0,0.0,0.0,0.0,0.0,0.0,0.0,0.0,0.0,0.0,0.0,0.0,0.0,0.0,0.0,0.0,0.0,0.0,0.0,0.0,0.0,0.0,0.0,0.0,0.0,0.0,0.0,0.0,0.0,0.0,0.0,0.0,0.0,0.0,0.0,0.0,0.0,0.0,0.0,0.0,0.0,0.0,0.0,0.0,0.0,0.0,0.0,0.0,0.0,0.0,0.0,0.0,0.0,0.0,0.0,0.0,0.0,0.0,0.0,0.0,0.0,0.0,0.0,0.0,0.0,0.0,0.0,0.0,0.0,0.0,0.0,0.0,0.0,0.0,0.0,0.0,0.0,0.0,0.0,0.0,0.0,0.0,0.0,0.0,0.0,0.0,0.0,0.0,0.0,0.0,0.0,0.0,0.0,0.0,0.0,0.0,0.0,0.0,0.0,0.0,0.0,0.0,0.0,0.0,0.0,0.0,0.0,0.0,0.0,0.0,0.0,0.0,0.0,2.253,0.0,0.0,0.0,0.0,0.0,0.0,0.0,0.0,0.0,0.0,0.0,0.0,0.0,0.0,0.0,0.0,0.0,0.0,0.0,0.0,0.0,0.0,0.0,0.0,0.0,0.0,0.0,0.0,0.0,0.0,0.0,0.0,0.0,0.0,0.0,0.0,0.0,0.0,0.0,0.0,0.0,0.0,0.0,0.0,0.0,0.0,0.0,0.0,0.0,0.0,0.0,0.0,0.0,0.0,0.0,0.0,0.0,0.0,0.0,0.0,0.0,0.0,0.0,0.0,0.0,0.0,0.0,0.0,0.0,0.0,0.0,0.0,0.0,0.0,0.0,0.0,0.0,0.0,0.0,0.0,0.0,0.0,0.0,0.0,0.0,0.0,0.0,0.0,0.0,0.0,0.0,0.0,0.0,0.0,0.0,0.0,0.0,0.0,0.0,0.0,0.0,0.0,0.0,0.0,0.0,0.0,0.0,0.0,0.0,0.0,0.0,0.0,0.0,0.0,0.0,0.0,2.2913,0.0,0.0,0.0,0.0,0.0,0.0,0.0,0.0,0.0,0.0,0.0,0.0,0.0,0.0,0.0,0.0,0.0,0.0,0.0,0.0,0.0,0.0,0.0,0.0,0.0,0.0,2.3989,2.3663,2.3663,2.3236,2.2995,2.2995,2.3508,2.3728,2.3628,0.0,0.0,0.0,0.0,0.0,0.0,0.0,0.0,0.0,0.0,0.0,0.0,0.0,0.0,0.0,0.0,0.0,0.0,0.0,0.0,0.0,0.0,0.0,0.0,0.0,0.0,0.0,0.0,0.0,0.0,0.0,0.0,0.0,0.0,0.0,0.0,0.0,0.0,0.0,0.0,0.0,0.0,0.0,0.0,0.0,0.0,0.0,0.0,0.0,0.0,0.0,0.0,0.0,0.0,0.0,0.0,0.0,0.0,0.0,0.0,0.0,0.0,0.0,0.0,0.0,0.0,0.0,0.0,0.0,0.0,0.0,0.0,0.0,2.4516,2.4516,2.4516,2.4516,2.4516,2.4516,2.4516,2.4355,2.4047,2.3431,0.0,0.0,0.0,0.0,0.0,0.0,0.0,0.0,0.0,0.0,0.0,0.0,0.0,0.0,0.0,0.0,0.0,0.0,0.0,0.0,0.0,2.5291,2.5004,2.5004,2.4552,2.4275,2.4275,2.4222,2.4189,2.4189,2.4622,2.4665,2.4194,2.5195,0.0,0.0,0.0,0.0,2.6594,2.6594,2.6484,2.6248,2.5721,0.0,0.0,0.0,0.0,0.0,0.0,0.0,0.0,0.0,0.0,0.0,0.0,0.0,0.0,0.0,0.0,0.0,0.0,0.0,0.0,0.0,0.0,0.0,0.0,0.0,0.0,0.0,0.0,0.0,0.0,0.0,0.0,0.0,0.0,0.0,0.0,0.0,0.0,0.0,0.0,0.0,0.0,0.0,2.6499,2.6499,0.0,0.0,0.0,0.0,0.0,0.0,0.0,0.0,0.0,0.0,0.0,0.0,0.0,2.6332,2.6332,2.6245,2.6181,2.6181,2.6181,2.6181,2.6181,2.6181,2.6181,2.6181,2.6181,0.0,2.4102,2.3993,0.0,0.0,0.0,0.0,0.0,0.0,0.0,0.0,0.0,0.0,0.0,0.0,0.0,0.0,0.0,0.0,0.0,0.0,0.0,0.0,0.0,2.6567,2.6452,2.6452,2.5991,2.5691,2.5691,2.5409,2.5241,2.5241,2.5735,2.5889,2.5649,2.6404,0.0,0.0,2.6598,2.685,2.7138,2.7138,2.7138,2.7138,2.6905,2.6311,2.5511,2.5511,0.0,0.0,0.0,0.0,0.0,0.0,0.0,0.0,0.0,0.0,0.0,0.0,0.0,0.0,0.0,0.0,0.0,0.0,0.0,0.0,0.0,0.0,0.0,0.0,0.0,0.0,0.0,0.0,0.0,0.0,0.0,0.0,0.0,0.0,0.0,0.0,0.0,0.0,0.0,2.6499,2.6499,2.6499,2.6499,2.6499,0.0,0.0,0.0,0.0,0.0,0.0,0.0,0.0,0.0,2.6499,2.6801,2.6952,2.6952,2.7248,2.7399,2.7399,2.7399,2.7399,2.7399,2.7399,2.7399,2.7399,2.7399,2.7011,2.6275,2.5206,2.4576,2.4245,0.0,0.0,0.0,0.0,2.3087,2.3143,0.0,0.0,0.0,0.0,0.0,0.0,0.0,0.0,0.0,0.0,0.0,0.0,2.749,2.749,2.749,2.749,2.7138,2.6901,2.6901,2.653,2.6311,2.6311,2.6684,2.6833,2.6696,2.7087,0.0,2.749,2.7104,2.7104,2.749,2.749,2.749,2.749,2.749,2.6973,2.6087,2.6087,2.5587,0.0,0.0,0.0,0.0,0.0,0.0,0.0,0.0,0.0,0.0,0.0,0.0,0.0,0.0,0.0,0.0,0.0,0.0,0.0,0.0,0.0,0.0,0.0,0.0,0.0,0.0,0.0,0.0,0.0,0.0,0.0,0.0,0.0,0.0,0.0,0.0,0.0,0.0,2.6499,2.6499,2.6499,2.6499,2.6516,0.0,0.0,0.0,0.0,0.0,0.0,2.6774,2.6821,2.6932,2.7053,2.7458,2.7637,2.7571,2.7986,2.8152,2.8109,2.8109,2.8109,2.8109,2.8109,2.8109,2.8109,2.8109,2.8109,2.7967,2.644,2.5694,2.5421,2.4683,2.4282,2.409,2.409,2.409,2.4138,0.0,0.0,0.0,0.0,0.0,0.0,0.0,0.0,0.0,0.0,0.0,2.749,2.749,2.749,2.749,2.749,2.7486,2.7469,2.7469,2.7423,2.7423,2.7423,2.7453,2.7222,2.6714,2.6726,0.0,2.749,2.7473,2.7473,2.749,2.749,2.749,2.749,2.749,2.7188,2.6662,2.6662,2.6341,2.5762,0.0,0.0,0.0,0.0,0.0,0.0,0.0,0.0,0.0,0.0,0.0,0.0,0.0,0.0,0.0,0.0,0.0,0.0,0.0,0.0,0.0,0.0,0.0,0.0,0.0,0.0,0.0,0.0,0.0,0.0,0.0,0.0,0.0,0.0,0.0,0.0,0.0,0.0,0.0,2.6499,2.6499,0.0,0.0,0.0,0.0,2.6692,2.6679,2.6955,2.751,2.7736,2.8049,2.8569,2.862,2.853,2.8355,2.8363,2.8297,2.8109,2.8109,2.8109,2.8109,2.8109,2.8109,2.8109,2.8109,2.8109,2.8041,2.7446,2.6755,2.6009,2.5451,2.4761,2.409,2.409,2.409,2.421,0.0,0.0,0.0,0.0,0.0,0.0,0.0,0.0,0.0,2.749,2.749,2.749,2.749,2.749,2.749,2.749,2.749,2.749,2.749,2.749,2.749,2.749,2.749,2.7406,2.7222,2.7205,2.7306,2.749,2.749,2.749,2.749,2.749,2.749,2.749,2.749,2.739,2.7205,2.7205,2.6918,2.6393,2.6186,2.5878,0.0,0.0,0.0,0.0,0.0,0.0,0.0,0.0,0.0,0.0,0.0,0.0,0.0,0.0,0.0,0.0,0.0,0.0,0.0,0.0,0.0,0.0,0.0,0.0,0.0,0.0,0.0,0.0,0.0,0.0,0.0,0.0,0.0,0.0,0.0,0.0,0.0,2.6516,2.6688,0.0,2.6709,2.6773,2.7011,2.7442,2.748,2.7723,2.8285,2.8377,2.8503,2.8677,2.903,2.9173,2.9105,2.9481,2.9654,2.9579,2.9579,2.9579,2.9579,2.9579,2.9504,2.9385,2.9385,2.9309,2.9151,2.8574,2.7957,2.7371,2.7186,2.6936,2.6676,2.6676,2.6676,2.6663,0.0,0.0,0.0,0.0,0.0,0.0,0.0,0.0,2.749,2.749,2.749,2.749,2.749,2.749,2.749,2.749,2.749,2.749,2.749,2.749,2.749,2.749,2.749,2.749,2.749,2.749,2.749,2.749,2.749,2.749,2.749,2.749,2.749,2.749,2.749,2.749,2.749,2.749,2.7289,2.6952,2.6765,2.6491,2.6139,0.0,0.0,0.0,0.0,0.0,0.0,0.0,0.0,0.0,0.0,0.0,0.0,0.0,0.0,0.0,0.0,0.0,0.0,0.0,0.0,0.0,0.0,0.0,0.0,0.0,0.0,0.0,0.0,0.0,0.0,0.0,0.0,0.0,0.0,0.0,2.6658,2.6521,2.6972,2.7242,2.7109,2.7391,2.7776,2.8241,2.8267,2.8507,2.9042,2.9135,2.9261,2.9473,2.9829,2.9967,2.9905,3.0302,3.0476,3.0406,3.0406,3.0406,3.0406,3.0406,3.033,3.0209,3.0209,3.0094,2.987,2.9536,2.9157,2.873,2.8278,2.8109,2.8109,2.8109,2.8133,2.8156,0.0,0.0,0.0,0.0,0.0,0.0,0.0,2.749,2.749,2.749,2.749,2.749,2.749,2.749,2.749,2.749,2.749,2.749,2.749,2.749,2.749,2.749,2.749,2.749,2.749,2.749,2.749,2.749,2.749,2.749,2.749,2.749,2.749,2.749,2.749,2.749,2.749,2.749,2.749,2.744,2.6918,2.6714,2.6662,0.0,0.0,0.0,0.0,0.0,0.0,0.0,0.0,0.0,0.0,0.0,0.0,0.0,0.0,0.0,0.0,0.0,0.0,0.0,0.0,0.0,0.0,0.0,0.0,0.0,0.0,0.0,0.0,0.0,0.0,0.0,0.0,0.0,2.6709,2.6739,2.67,2.6559,2.7381,2.7935,2.7922,2.8405,2.8798,2.9025,2.9043,2.9284,2.9831,3.0048,3.0432,3.1031,3.1057,3.0963,3.075,3.075,3.0661,3.0477,3.0477,3.0477,3.0477,3.0477,3.0477,3.0458,3.0458,3.0356,3.0183,3.0362,3.0343,3.0043,2.8679,2.8178,2.8178,2.8178,2.828,2.8455,0.0,0.0,0.0,0.0,0.0,0.0,0.0,2.749,2.749,2.749,2.749,2.749,2.749,2.749,2.749,2.749,2.749,2.749,2.749,2.749,2.749,2.749,2.749,2.749,2.749,2.749,2.749,2.749,2.749,2.749,2.749,2.749,2.749,2.749,2.749,2.749,2.749,2.749,2.749,2.749,2.7339,2.7272,2.7255,0.0,0.0,0.0,0.0,0.0,0.0,0.0,0.0,0.0,0.0,0.0,0.0,0.0,0.0,0.0,0.0,0.0,0.0,0.0,0.0,0.0,0.0,0.0,0.0,0.0,0.0,0.0,0.0,0.0,0.0,0.0,0.0,2.8001,2.7045,2.7288,2.7561,2.7522,2.8337,2.8863,2.8713,2.8957,2.9319,2.9772,2.9798,3.0228,3.1199,3.1289,3.1608,3.2202,3.2228,3.2208,3.215,3.215,3.213,3.2058,3.2058,3.2058,3.2058,3.2058,3.198,3.1855,3.1855,3.1737,3.1546,3.1612,3.1605,3.1431,3.0228,2.9775,2.9775,2.9775,2.9526,2.9237,0.0,0.0,0.0,0.0,0.0,0.0,0.0,2.749,2.749,2.749,2.749,2.749,2.749,2.749,2.749,2.749,2.749,2.749,2.749,2.749,2.749,2.749,2.749,2.749,2.749,2.749,2.749,2.749,2.749,2.749,2.749,2.749,2.749,2.749,2.749,2.749,2.749,2.749,2.749,2.749,2.749,2.749,2.749,2.749,2.749,2.749,2.749,2.7453,2.7386,2.7319,0.0,0.0,0.0,0.0,0.0,0.0,0.0,0.0,0.0,0.0,0.0,0.0,0.0,0.0,0.0,0.0,0.0,0.0,0.0,0.0,0.0,0.0,0.0,0.0,2.9383,2.9612,2.8966,2.886,2.8669,2.8291,2.9061,2.9647,2.9704,3.0111,3.0594,3.1137,3.119,3.1477,3.2143,3.2182,3.2326,3.2685,3.2685,3.2685,3.2685,3.2685,3.2685,3.2685,3.2685,3.2685,3.2685,3.2685,3.2639,3.252,3.252,3.242,3.2227,3.2327,3.2307,0.0,0.0,0.0,0.0,0.0,3.1023,3.0739,0.0,0.0,0.0,0.0,0.0,0.0,0.0,2.749,2.749,2.749,2.749,2.749,2.749,2.749,2.749,2.749,2.749,2.749,2.749,2.749,2.749,2.749,2.749,2.749,2.749,2.749,2.749,2.749,2.7572,2.7611,2.7611,2.7676,2.7702,2.7702,2.762,2.7611,2.7611,2.7529,2.749,2.749,2.749,2.749,2.749,2.749,2.749,2.749,2.749,2.749,2.7486,2.7352,0.0,0.0,0.0,0.0,0.0,0.0,0.0,0.0,0.0,0.0,0.0,0.0,0.0,0.0,0.0,0.0,0.0,0.0,0.0,0.0,0.0,0.0,0.0,0.0,3.1252,3.1385,3.1666,3.1047,3.0195,2.9194,2.9855,3.0533,3.0896,3.1512,3.213,3.2659,3.2685,3.2744,3.279,0.0,0.0,0.0,0.0,3.2881,3.2881,3.2881,3.2881,3.2881,3.2881,3.2881,3.2881,3.2881,3.2881,3.2881,3.2881,3.2795,3.2635,3.2835,3.2795,3.2602,3.2299,3.2175,3.2187,3.236,3.2433,3.246,0.0,0.0,0.0,0.0,0.0,0.0,0.0,2.749,2.749,2.749,2.749,2.749,2.749,2.749,2.749,2.749,2.749,2.749,2.749,2.749,2.749,2.749,2.749,2.749,2.749,2.749,2.749,2.749,2.7994,2.8233,2.8246,2.8712,2.8952,2.8939,2.8438,2.8233,2.8194,2.7715,2.749,2.749,2.749,2.749,2.749,2.749,2.749,2.749,2.749,2.749,2.749,2.7469,2.7352,2.7248,2.7248,0.0,0.0,0.0,0.0,0.0,0.0,0.0,0.0,0.0,0.0,0.0,0.0,0.0,0.0,0.0,0.0,0.0,0.0,0.0,0.0,3.1148,3.2212,3.3004,3.2961,3.316,3.2873,3.1586,3.1897,3.2241,3.2306,3.2444,3.2568,3.2685,3.2685,3.2908,3.3391,3.3417,3.3613,3.4058,3.4071,3.4071,3.4071,3.4071,3.4071,3.4071,0.0,0.0,3.4071,3.4071,3.4071,3.4071,3.4071,3.405,3.4009,3.405,3.405,3.3917,3.2951,3.2586,3.2586,3.2639,3.2639,3.2659,0.0,0.0,0.0,0.0,0.0,0.0,0.0,2.749,2.749,2.749,2.749,2.749,2.749,2.749,2.749,2.749,2.749,2.749,0.0,2.749,2.749,2.749,2.749,2.765,2.7941,2.7954,2.8098,2.8399,2.8704,2.8848,2.8861,2.9161,2.9292,2.9292,2.8978,2.8848,2.8834,2.8529,2.8399,2.8373,2.8072,2.7954,2.7928,2.7611,2.749,2.749,2.749,2.749,2.749,2.749,2.7419,2.7302,2.7386,2.7231,2.7092,0.0,0.0,0.0,0.0,0.0,0.0,0.0,0.0,0.0,0.0,0.0,0.0,0.0,0.0,3.2036,0.0,0.0,3.2877,3.3721,3.4501,3.5074,3.5318,3.5521,3.4994,3.3223,3.2831,3.2836,3.3117,3.3143,3.326,3.3522,3.3548,3.3679,3.3979,3.3992,3.4123,3.4384,3.4397,3.4397,3.4397,3.4397,3.4397,3.4397,3.4397,3.4397,3.4397,3.4397,3.4397,3.4397,3.4397,3.4397,3.4397,3.4397,3.4397,3.4345,3.377,3.3548,3.3548,3.3548,3.3548,3.3548,0.0,0.0,0.0,0.0,0.0,0.0,0.0,0.0,2.749,2.749,2.749,2.749,2.749,2.749,2.749,2.749,2.749,0.0,0.0,2.749,2.749,2.749,2.7611,2.7902,2.839,2.8508,2.8808,2.9292,2.941,2.9462,2.9462,2.958,2.9632,2.9619,2.9514,2.9462,2.9444,2.9344,2.9292,2.9253,2.8769,2.8573,2.8521,2.8029,2.7699,2.749,2.749,2.7573,2.7686,2.7687,2.7693,2.774,2.7992,2.788,2.7836,2.8741,2.9191,0.0,0.0,0.0,0.0,0.0,0.0,0.0,0.0,0.0,3.2783,3.3699,3.3509,3.3575,3.4965,3.48,3.4971,3.6451,3.6671,3.6881,3.7509,3.7381,3.6601,3.492,3.3881,3.3409,3.3725,3.3764,3.3927,3.4358,3.4397,3.4397,3.4397,3.4397,3.4397,3.4397,3.4397,3.4397,3.4397,3.4397,3.4397,3.4397,3.4397,3.4397,3.4397,3.4397,3.4397,3.4397,3.4397,3.4397,3.4397,3.4397,3.4397,3.4397,3.4397,3.4397,3.4397,3.4397,3.4397,3.4397,0.0,0.0,0.0,0.0,0.0,0.0,0.0,0.0,0.0,2.749,2.749,2.749,2.749,2.749,2.749,2.749,2.749,0.0,2.749,2.749,2.749,2.749,2.8007,2.8324,2.8403,2.8926,2.9227,2.9292,2.9779,3.0009,3.0009,3.0555,3.0809,3.0796,3.0249,3.0009,2.9988,2.9497,2.9292,2.9292,2.9227,2.9201,2.9188,2.9122,2.8438,2.749,2.749,2.7875,2.8384,2.8332,2.8694,2.9265,2.9876,3.0052,3.0171,3.0929,0.0,3.0965,3.1051,3.1871,3.2889,3.3732,3.4339,3.4778,0.0,0.0,3.5124,3.5262,3.5213,3.5408,3.6169,3.6272,3.6466,3.7178,3.73,3.7539,3.8182,3.7661,3.7334,3.7688,3.6337,3.5083,3.4376,3.4306,3.4332,3.4397,3.4397,3.4397,3.4397,3.4397,3.4397,3.4397,3.4397,3.4397,3.4397,3.4397,3.4397,3.4397,3.4397,3.4397,3.4397,3.4397,3.4397,3.4397,3.4397,3.4397,3.4397,3.4397,3.4397,3.4397,3.4397,3.4397,3.4397,3.4397,3.4397,3.4397,0.0,0.0,0.0,0.0,0.0,0.0,0.0,0.0,0.0,0.0,2.749,2.749,2.749,2.749,2.749,2.749,0.0,0.0,2.749,2.749,2.749,2.749,2.7742,2.8033,2.839,2.8991,2.9444,2.9784,3.0346,3.062,3.0634,3.0869,3.1005,3.0992,3.0738,3.062,3.062,3.0391,3.0299,3.0296,3.0365,3.0396,3.0356,3.0057,2.9892,2.9763,2.9342,2.9376,0.0,0.0,3.0397,3.0671,3.0954,3.1038,3.1174,3.1839,3.2272,0.0,3.3491,3.4058,3.4501,0.0,3.5197,3.5392,3.5488,3.5504,3.5576,3.5851,3.6007,3.6249,3.6807,3.6979,3.7225,0.0,3.7973,3.8212,3.8901,3.8689,3.8414,3.8229,3.7587,3.6643,3.5284,3.4696,3.4397,3.4397,3.4397,3.4397,3.4397,3.4397,3.4397,3.4397,3.4397,3.4397,3.4397,3.4397,3.4397,3.4397,3.4397,3.4397,3.4397,3.4397,3.4397,3.4397,3.4397,3.4397,3.4397,3.4397,3.4397,3.4397,3.4397,3.4397,3.4397,3.4397,3.4397,3.4397,0.0,0.0,0.0,0.0,0.0,0.0,0.0,0.0,0.0,0.0,0.0,2.749,2.749,2.749,2.749,0.0,0.0,0.0,0.0,2.749,2.749,2.749,2.782,2.8203,2.8638,2.9384,2.9954,3.0354,3.079,3.1005,3.1005,3.1005,3.1005,3.1005,3.1005,3.1005,3.1005,3.1005,3.1005,3.1003,3.1112,3.1142,3.1088,3.0711,3.1006,3.155,3.0692,3.0637,0.0,0.0,3.187,3.2047,3.2219,3.2276,3.2395,3.3066,3.3757,3.4501,3.5285,0.0,0.0,3.5774,3.5774,3.5818,3.5998,3.6028,3.6129,3.6458,3.6647,3.6907,3.7429,3.7602,3.7898,3.8571,3.8676,3.8856,3.9331,3.9406,3.9192,3.8608,3.8333,3.7625,3.6162,3.5454,3.5101,3.5101,3.4889,3.4847,3.508,3.4654,3.4522,3.4758,3.4543,3.4397,3.4397,3.4397,3.4397,3.4397,3.4397,3.4397,3.4397,3.4397,3.4397,3.4397,3.4397,3.4397,3.4397,3.4397,3.4397,3.4397,3.4397,3.4397,3.4397,3.4397,3.4397,3.4397,0.0,0.0,0.0,0.0,0.0,0.0,0.0,0.0,0.0,0.0,0.0,0.0,0.0,0.0,2.749,0.0,0.0,0.0,0.0,2.749,2.749,2.749,2.8621,2.9253,2.9266,3.0378,3.0966,3.0979,3.0992,3.1005,3.1005,3.1005,3.1005,3.1005,3.1005,3.1005,3.1005,3.1005,3.1005,3.1005,3.0998,3.1017,3.1003,3.099,3.1434,3.1924,3.0786,0.0,0.0,0.0,3.2792,3.3452,3.4032,3.4221,0.0,3.5169,3.589,3.6281,0.0,0.0,3.6479,3.6479,3.6479,3.6628,3.721,3.7327,3.7342,3.7357,3.7357,3.7584,3.8242,3.8362,3.8586,3.9257,3.9376,3.9376,3.9406,3.9406,3.9388,3.937,3.8682,3.7853,0.0,3.6841,3.6822,3.6822,3.6102,3.6002,3.6783,3.5271,3.4799,3.5629,3.484,3.4397,3.4397,3.4397,3.4397,3.4397,3.4397,3.4397,3.4397,3.4397,3.4397,3.4397,3.4397,3.4397,3.4397,3.4397,3.4397,3.4397,3.4397,3.4397,3.4397,3.4397,3.4397,3.4397,0.0,0.0,0.0,0.0,0.0,0.0,0.0,0.0,0.0,0.0,0.0,0.0,0.0,0.0,0.0,0.0,0.0,0.0,0.0,2.8686,2.8686,2.8686,2.9083,2.9292,2.9292,3.0014,3.0406,3.0406,3.079,3.1005,3.1005,3.1005,3.1005,3.1005,3.1005,3.1005,3.1005,3.1005,3.1005,3.103,3.1529,3.2028,3.2448,3.2448,3.3245,3.423,0.0,0.0,0.0,3.4277,3.461,3.4818,3.5026,3.51,3.5238,3.5947,3.6611,3.7045,3.6821,0.0,3.7105,3.7105,3.7105,3.715,3.7342,3.7387,3.7539,3.7973,3.8063,3.8272,3.8945,3.9047,3.9155,3.9361,3.9406,3.9406,3.9406,3.9406,3.9406,3.9406,3.9156,0.0,0.0,0.0,0.0,3.5271,3.4991,3.4971,3.523,3.4716,3.4543,3.484,3.5114,3.5244,3.5244,3.5244,3.5244,3.5244,3.4675,3.4397,3.4397,3.4397,3.4397,3.4397,3.4397,3.4397,3.4397,3.4397,3.4397,3.4397,3.4397,3.4397,3.4397,3.4397,3.4397,3.4397,0.0,0.0,0.0,0.0,0.0,0.0,0.0,0.0,0.0,0.0,0.0,0.0,0.0,0.0,0.0,0.0,0.0,0.0,0.0,0.0,2.9292,2.9292,2.947,2.9588,2.9588,3.0132,3.0419,3.0419,3.0803,3.1005,3.1005,3.1005,3.1005,3.1005,3.1005,3.1005,3.1005,3.1005,3.1161,3.1431,3.1905,3.2541,3.3196,3.3196,3.3985,0.0,0.0,0.0,0.0,3.5417,3.5504,3.5549,3.5789,3.6013,3.6267,3.6686,3.727,3.7704,3.7479,3.7584,3.7764,3.7764,3.7764,3.7823,3.806,3.8105,3.824,3.8676,3.8751,3.8901,3.9316,3.9406,3.9406,3.9406,3.9406,3.9406,3.9406,3.9406,3.9406,3.9406,3.9406,3.9283,0.0,0.0,0.0,3.6181,3.5916,3.5876,3.6162,3.5615,3.5433,3.5749,3.5996,3.6122,3.6122,3.6122,3.5983,3.5689,3.4819,3.4397,3.4397,3.4397,3.4397,3.4397,3.4397,3.4397,3.4397,3.4397,3.4397,3.4397,3.4397,3.4397,3.4397,3.4397,3.4397,3.4397,0.0,0.0,0.0,0.0,0.0,0.0,0.0,0.0,0.0,0.0,0.0,0.0,0.0,0.0,0.0,0.0,0.0,0.0,0.0,0.0,0.0,2.9384,2.9871,3.014,3.014,3.0712,3.1005,3.1005,3.1005,3.1005,3.1005,3.1005,3.1005,3.1005,3.1005,3.1005,3.1005,3.1005,3.1431,3.2092,3.2055,3.2523,3.3248,3.3213,0.0,0.0,0.0,0.0,0.0,0.0,0.0,0.0,0.0,3.6956,3.7464,3.7464,3.7928,3.8302,3.7689,3.7973,3.8437,3.8437,3.8437,3.8616,3.9257,3.9406,3.9406,3.9406,3.9406,3.9406,0.0,0.0,3.9406,3.9406,3.9436,3.9451,3.9451,3.9481,3.9496,0.0,0.0,0.0,0.0,0.0,0.0,3.9372,0.0,3.8352,3.9104,3.7639,3.716,3.7981,3.7265,3.6878,3.6878,3.6906,3.6522,3.571,3.4852,3.445,3.445,3.441,3.4397,3.4397,3.4397,3.4397,3.4397,3.4397,3.4397,3.4397,3.4397,3.4397,3.4397,3.4397,3.4397,3.4397,0.0,0.0,0.0,0.0,0.0,0.0,0.0,0.0,0.0,0.0,0.0,0.0,0.0,0.0,0.0,0.0,0.0,0.0,0.0,0.0,0.0,0.0,0.0,0.0,0.0,0.0,0.0,3.1005,3.1005,3.1005,3.1005,3.1005,3.1005,3.1005,3.1005,3.1005,3.1005,3.1005,3.1431,3.2051,0.0,3.2394,3.3973,0.0,0.0,0.0,0.0,0.0,0.0,0.0,0.0,0.0,0.0,3.7614,3.8138,3.8138,3.8616,3.9107,3.8928,3.9017,3.9137,3.9137,3.9137,3.9182,3.9361,3.9406,3.9406,3.9406,3.9406,3.9406,0.0,0.0,0.0,3.9406,3.981,0.0,4.0157,4.0576,0.0,4.0894,0.0,4.0801,4.0598,4.0394,0.0,0.0,3.7448,3.5467,3.5655,3.5271,3.5142,3.5366,3.6157,3.6593,3.6593,3.7037,3.6831,3.5996,3.5367,3.5064,3.5051,3.4607,3.4397,3.4397,3.4397,3.4397,3.4397,3.4397,3.4397,3.4397,3.4397,3.4397,3.4397,3.4397,3.4397,3.4397,0.0,0.0,0.0,0.0,0.0,0.0,0.0,0.0,0.0,0.0,0.0,0.0,0.0,0.0,0.0,0.0,0.0,0.0,0.0,0.0,0.0,0.0,0.0,0.0,0.0,0.0,0.0,0.0,0.0,0.0,3.1005,3.1005,3.1005,3.1005,3.1005,3.1179,3.1468,3.1142,0.0,0.0,0.0,0.0,0.0,0.0,0.0,0.0,0.0,0.0,0.0,0.0,0.0,3.7838,3.7838,3.8302,3.8841,3.8841,0.0,3.9406,3.9406,3.9406,3.9406,3.9406,3.9406,3.9406,3.9406,3.9406,3.9406,3.9406,3.9406,0.0,0.0,0.0,0.0,0.0,0.0,0.0,4.0786,4.1164,4.1403,0.0,4.1403,0.0,4.1403,4.105,4.0829,0.0,3.8753,3.747,3.747,3.747,3.747,3.747,3.8226,3.8644,3.8644,3.824,3.7762,3.7263,3.6171,3.5652,3.5639,3.5299,3.5142,3.5142,0.0,3.5142,3.5129,3.4894,3.4789,3.4763,3.4502,3.4397,3.4397,3.4397,3.4397,3.4397,0.0,0.0,0.0,0.0,0.0,0.0,0.0,0.0,0.0,0.0,0.0,0.0,0.0,0.0,0.0,0.0,0.0,0.0,0.0,0.0,0.0,0.0,0.0,0.0,0.0,0.0,0.0,0.0,0.0,0.0,0.0,0.0,0.0,0.0,0.0,0.0,0.0,0.0,0.0,0.0,0.0,0.0,0.0,0.0,0.0,0.0,0.0,0.0,0.0,0.0,3.9002,3.8527,3.8527,3.8931,3.9406,3.9406,3.9406,3.9406,3.9406,3.9406,3.9406,3.9406,3.9406,3.9406,3.9406,3.9406,3.9406,3.9406,0.0,3.9406,3.9406,3.9466,3.972,4.0307,0.0,4.0879,4.1448,4.1613,4.1639,4.1639,4.1639,4.1639,4.1639,4.0964,4.0524,4.0524,4.1211,4.1473,4.1084,4.1069,4.1095,4.1169,4.1184,4.1209,4.1283,3.9788,3.8981,3.8837,3.719,3.6345,3.6227,3.6136,3.6109,3.6109,3.6109,3.6109,3.607,3.56,3.5404,3.5351,3.4829,3.462,3.462,3.4541,3.4515,3.4502,0.0,0.0,0.0,0.0,0.0,0.0,0.0,0.0,0.0,0.0,0.0,0.0,0.0,0.0,0.0,0.0,0.0,0.0,0.0,0.0,0.0,0.0,0.0,0.0,0.0,0.0,0.0,0.0,0.0,0.0,0.0,0.0,0.0,0.0,0.0,0.0,0.0,0.0,0.0,0.0,0.0,0.0,0.0,0.0,0.0,0.0,0.0,0.0,0.0,0.0,3.919,3.9227,3.9227,3.9316,3.9406,3.9406,3.9406,3.9406,3.9406,3.9406,3.9406,3.9406,3.9406,3.9406,3.9406,3.9406,0.0,0.0,3.9406,3.9406,3.9406,3.984,4.0262,4.0382,0.0,0.0,0.0,0.0,4.298,0.0,0.0,0.0,0.0,0.0,0.0,0.0,4.2887,4.1907,3.9447,3.933,3.9532,3.9983,3.9997,4.0232,4.073,4.0449,3.9896,3.9125,3.8358,3.7589,3.6828,3.6332,3.6109,3.6109,3.6109,0.0,3.6096,3.6005,3.5966,3.5953,3.5848,3.5809,3.5757,3.5312,3.5142,3.5064,0.0,0.0,0.0,0.0,0.0,0.0,0.0,0.0,0.0,0.0,3.0196,0.0,0.0,0.0,0.0,0.0,0.0,0.0,0.0,0.0,0.0,0.0,0.0,0.0,0.0,0.0,0.0,0.0,0.0,0.0,0.0,0.0,0.0,0.0,0.0,0.0,0.0,0.0,0.0,0.0,0.0,0.0,0.0,0.0,0.0,0.0,0.0,0.0,0.0,0.0,3.8998,3.9123,3.9319,3.9406,3.9406,3.9406,3.9406,3.9406,3.9406,3.9406,3.9406,3.9406,3.9406,3.9406,3.9406,0.0,0.0,0.0,3.9406,3.9369,3.9224,0.0,0.0,0.0,0.0,0.0,0.0,0.0,0.0,0.0,0.0,0.0,0.0,0.0,0.0,4.329,4.329,4.2674,4.1266,4.0758,4.0621,4.088,4.0894,4.1251,4.2003,4.1547,4.1092,4.0646,3.9903,3.9304,3.8855,3.8067,3.7714,3.7692,3.7235,3.7037,3.7011,3.6698,3.6567,3.6541,3.6227,3.6109,3.607,3.5809,3.5717,3.5678,0.0,0.0,0.0,0.0,0.0,0.0,0.0,3.0558,3.033,3.033,3.0292,3.0273,3.0273,3.0495,0.0,0.0,0.0,0.0,0.0,0.0,0.0,0.0,0.0,0.0,0.0,0.0,0.0,0.0,0.0,0.0,0.0,0.0,0.0,0.0,0.0,0.0,0.0,0.0,0.0,0.0,0.0,0.0,0.0,0.0,0.0,0.0,0.0,0.0,0.0,0.0,3.8745,3.887,3.9159,3.9301,3.9337,3.9388,3.9406,3.9406,3.9406,3.9406,3.9406,3.9406,3.9406,3.9406,3.9406,3.9406,0.0,0.0,3.9455,3.9287,3.9228,0.0,0.0,0.0,0.0,0.0,0.0,0.0,0.0,0.0,0.0,0.0,0.0,0.0,0.0,4.329,4.329,4.329,4.329,4.2638,4.2293,4.2293,4.2293,4.2598,4.329,4.2618,4.2176,4.199,4.105,4.0603,4.0568,3.9637,3.9307,3.9453,3.8562,3.8194,3.8132,3.7468,3.7194,3.7164,3.688,3.6652,3.6497,3.6573,3.6468,3.6279,0.0,0.0,0.0,0.0,0.0,0.0,0.0,3.0267,3.0133,3.0133,2.9972,2.9869,2.9869,3.019,0.0,0.0,0.0,0.0,0.0,0.0,0.0,0.0,0.0,0.0,0.0,0.0,0.0,0.0,0.0,0.0,0.0,0.0,0.0,0.0,0.0,0.0,0.0,0.0,0.0,0.0,0.0,0.0,0.0,0.0,0.0,0.0,0.0,0.0,0.0,0.0,0.0,3.88,3.8837,3.898,3.9159,3.9337,0.0,0.0,3.9406,3.9406,3.9406,3.9406,3.9406,3.9406,3.9406,0.0,0.0,4.0187,3.9633,3.9223,3.9803,0.0,0.0,0.0,0.0,0.0,0.0,0.0,0.0,0.0,0.0,0.0,0.0,0.0,0.0,4.329,4.329,4.329,4.329,4.323,4.319,4.319,4.319,4.321,4.329,4.321,4.2795,4.199,4.105,4.0603,4.0568,3.9637,3.9659,4.0418,3.9497,3.9077,0.0,3.8173,3.7821,3.79,3.8635,3.8421,3.7779,3.8089,3.7647,3.6841,0.0,0.0,0.0,0.0,0.0,0.0,0.0,3.0133,2.9953,3.0075,2.9914,2.9792,2.9792,2.9934,0.0,0.0,0.0,0.0,0.0,0.0,0.0,0.0,0.0,0.0,0.0,0.0,0.0,0.0,0.0,0.0,0.0,0.0,0.0,0.0,0.0,0.0,0.0,0.0,0.0,0.0,0.0,0.0,0.0,0.0,0.0,0.0,0.0,0.0,0.0,0.0,0.0,0.0,3.8575,3.8682,0.0,0.0,3.9301,3.9406,3.9406,3.9406,3.9406,3.9406,3.9406,3.9369,3.9194,0.0,3.9877,3.9396,3.9473,3.9641,3.9737,0.0,0.0,0.0,0.0,0.0,0.0,0.0,0.0,0.0,0.0,0.0,0.0,0.0,4.329,4.329,4.329,4.329,4.329,4.2795,4.2517,4.2517,4.2517,4.2774,4.329,4.329,4.2855,4.199,4.1624,4.1134,4.0568,3.9637,3.9703,4.0546,3.9615,3.921,0.0,3.8836,3.8372,3.7992,3.8859,3.9002,3.8778,3.9455,3.9503,3.9136,0.0,0.0,0.0,0.0,0.0,0.0,3.0209,2.9972,2.985,2.9991,2.9888,2.9792,2.9792,2.9792,2.9869,3.0011,0.0,0.0,0.0,0.0,0.0,0.0,0.0,0.0,0.0,0.0,0.0,0.0,0.0,0.0,0.0,0.0,0.0,0.0,0.0,0.0,0.0,0.0,0.0,0.0,0.0,0.0,0.0,0.0,0.0,0.0,0.0,0.0,0.0,0.0,0.0,0.0,0.0,0.0,0.0,0.0,3.9141,3.9301,3.9301,3.9337,3.9382,3.9305,3.9295,3.922,0.0,0.0,4.0021,3.9087,3.9418,3.9888,3.9893,4.0209,0.0,0.0,0.0,4.1233,0.0,0.0,0.0,0.0,0.0,0.0,0.0,4.329,4.329,4.329,4.329,4.329,4.329,4.2734,4.2395,4.2395,4.2395,4.2679,4.329,4.329,4.2996,4.2395,4.2114,4.1645,4.0986,4.0029,3.9964,4.0546,3.9899,3.9615,0.0,3.9615,3.9082,3.8372,3.9268,3.9439,3.9307,4.0246,4.0603,4.0603,0.0,0.0,0.0,0.0,0.0,0.0,0.0,2.9792,2.9792,2.9792,2.9792,2.9792,2.9792,2.9792,2.9792,2.9792,0.0,0.0,0.0,0.0,0.0,0.0,0.0,0.0,0.0,0.0,0.0,0.0,0.0,0.0,0.0,0.0,0.0,0.0,0.0,0.0,0.0,0.0,0.0,0.0,0.0,0.0,0.0,0.0,0.0,0.0,0.0,0.0,0.0,0.0,0.0,0.0,0.0,0.0,0.0,0.0,3.8943,3.9104,3.9104,3.9247,3.9341,3.9076,3.9011,3.8937,0.0,0.0,3.9942,3.9639,3.9613,3.9817,4.0477,3.9842,3.9527,4.0439,0.0,0.0,4.1831,0.0,0.0,0.0,0.0,0.0,4.313,4.329,4.329,4.329,4.329,0.0,4.329,4.329,4.329,4.329,4.329,4.329,4.329,4.329,4.329,4.327,4.2415,4.199,4.1949,4.1007,4.0603,4.0603,4.0603,4.0603,0.0,4.0603,4.0029,3.9285,4.0224,4.0029,3.9307,4.0246,4.0603,4.0603,0.0,0.0,0.0,0.0,0.0,0.0,0.0,2.9792,2.9792,2.9792,2.9792,2.9792,2.9792,2.9792,2.9792,2.9792,0.0,0.0,0.0,0.0,0.0,0.0,0.0,0.0,0.0,0.0,0.0,0.0,0.0,0.0,0.0,0.0,0.0,0.0,0.0,0.0,0.0,0.0,0.0,0.0,0.0,0.0,0.0,0.0,0.0,0.0,0.0,0.0,0.0,0.0,0.0,0.0,0.0,0.0,0.0,3.6933,3.7696,3.8671,3.7677,3.8141,3.8755,3.8082,3.8311,3.8785,3.8964,0.0,3.9654,3.9377,3.9341,3.9396,3.961,3.9395,3.9285,3.9593,4.0181,0.0,0.0,0.0,0.0,0.0,0.0,0.0,0.0,0.0,4.329,4.329,4.329,4.329,4.329,4.329,4.329,4.329,4.329,4.329,4.329,4.329,4.2996,4.2415,4.2135,4.1665,4.1029,4.0753,4.0603,4.0646,4.1275,4.1191,4.0646,4.1296,4.1007,4.0246,4.1191,4.138,4.1218,4.212,4.2441,4.2441,0.0,0.0,0.0,0.0,0.0,0.0,0.0,2.9792,2.9792,2.9792,2.9792,2.9792,2.9792,2.9792,2.9792,2.9792,0.0,0.0,0.0,0.0,0.0,0.0,0.0,0.0,0.0,0.0,0.0,0.0,0.0,0.0,0.0,0.0,0.0,0.0,0.0,0.0,0.0,0.0,0.0,0.0,0.0,0.0,3.8202,0.0,0.0,0.0,0.0,0.0,0.0,0.0,0.0,0.0,0.0,0.0,0.0,0.0,3.7108,3.8702,0.0,3.8045,3.8817,3.8244,3.8242,0.0,0.0,0.0,3.9306,3.8814,3.8979,3.921,3.921,3.921,3.921,3.921,3.9681,0.0,0.0,0.0,0.0,0.0,0.0,0.0,0.0,4.311,4.329,4.329,4.329,4.329,4.329,4.329,4.329,4.329,4.329,4.329,4.329,4.329,4.3036,4.2496,4.2496,4.2017,4.1134,4.1134,4.0923,4.0646,4.1603,4.1665,0.0,4.2099,4.1955,4.1191,4.1769,4.199,4.2073,4.2618,4.3016,4.329,0.0,0.0,0.0,0.0,0.0,0.0,0.0,0.0,0.0,0.0,2.9792,2.9792,2.9792,2.9792,0.0,0.0,0.0,0.0,0.0,0.0,0.0,0.0,0.0,0.0,0.0,0.0,0.0,2.9792,2.9792,2.9817,2.9886,0.0,0.0,0.0,0.0,0.0,0.0,0.0,0.0,0.0,3.8202,3.8202,0.0,0.0,0.0,0.0,0.0,0.0,0.0,0.0,0.0,0.0,0.0,0.0,0.0,0.0,0.0,0.0,0.0,3.8665,0.0,0.0,0.0,0.0,0.0,0.0,0.0,3.8148,3.8594,3.9099,3.9099,3.9099,3.9099,3.9099,3.9232,0.0,0.0,0.0,0.0,0.0,4.2284,0.0,4.2155,4.282,4.329,4.329,4.329,4.329,4.329,4.329,4.329,4.329,4.329,4.329,4.329,4.329,4.329,4.329,4.329,4.2875,4.2093,4.2093,4.1568,0.0,4.1686,4.2052,4.2073,4.2935,4.282,4.2093,4.2093,4.2093,4.2093,4.2093,4.2598,4.329,0.0,0.0,0.0,0.0,0.0,0.0,0.0,0.0,0.0,0.0,0.0,2.9792,2.9792,2.9792,0.0,0.0,0.0,0.0,0.0,0.0,0.0,0.0,0.0,0.0,0.0,0.0,0.0,2.9792,2.9792,3.0005,3.0419,3.1436,0.0,0.0,0.0,0.0,0.0,0.0,0.0,0.0,3.8202,3.8202,0.0,0.0,0.0,0.0,3.8202,3.8202,0.0,0.0,0.0,0.0,0.0,0.0,0.0,0.0,3.7272,3.9255,3.7706,0.0,3.8652,3.8198,3.7815,3.7792,0.0,0.0,0.0,0.0,0.0,3.8217,3.8217,3.8217,3.8217,3.8217,3.937,4.0353,4.0568,0.0,0.0,4.2644,4.3036,4.321,4.3016,4.319,4.329,4.329,4.329,4.329,4.329,4.329,4.329,4.329,4.329,4.329,4.329,4.329,4.329,4.329,4.329,4.319,4.2996,4.2996,4.2517,4.1728,4.2618,4.2618,4.2073,4.2935,4.319,4.2996,4.2996,4.2996,4.2996,4.2996,4.3115,4.329,0.0,0.0,0.0,0.0,0.0,0.0,0.0,0.0,0.0,0.0,0.0,0.0,0.0,0.0,0.0,0.0,0.0,0.0,0.0,0.0,0.0,0.0,0.0,0.0,0.0,0.0,0.0,0.0,0.0,3.1047,0.0,0.0,0.0,0.0,0.0,0.0,0.0,0.0,0.0,0.0,3.8202,0.0,0.0,0.0,0.0,0.0,3.8202,3.8202,0.0,3.7739,3.7019,3.6435,0.0,0.0,0.0,0.0,3.842,3.9438,3.8317,3.8414,3.8844,3.8749,3.8017,3.7595,0.0,0.0,0.0,0.0,0.0,0.0,3.79,3.8226,3.8494,3.8494,3.9686,0.0,0.0,0.0,0.0,4.325,4.2955,4.2855,0.0,4.329,4.329,4.329,4.329,4.329,4.329,4.329,4.329,4.329,4.329,4.329,4.329,4.329,4.329,4.329,4.329,4.329,4.329,4.329,4.3036,4.2618,4.311,4.3036,4.2618,4.311,4.329,4.329,4.329,4.329,4.329,4.329,4.329,4.329,0.0,0.0,0.0,0.0,0.0,0.0,0.0,0.0,0.0,0.0,0.0,0.0,0.0,0.0,0.0,0.0,0.0,0.0,0.0,0.0,0.0,0.0,0.0,0.0,0.0,0.0,0.0,0.0,0.0,0.0,0.0,0.0,0.0,0.0,0.0,0.0,0.0,0.0,0.0,0.0,3.8202,0.0,0.0,0.0,0.0,0.0,0.0,0.0,0.0,3.7146,3.6439,3.6162,3.7419,0.0,0.0,0.0,0.0,0.0,3.8898,3.8997,3.9307,3.9585,3.85,3.7605,0.0,0.0,0.0,0.0,0.0,0.0,0.0,0.0,0.0,0.0,0.0,0.0,4.2052,4.2211,4.2476,4.321,4.2638,0.0,4.323,4.329,4.329,4.329,4.329,4.329,4.329,4.329,4.329,4.329,4.329,4.329,4.329,4.329,4.329,4.329,4.329,4.329,4.329,4.329,4.329,4.329,0.0,0.0,4.329,4.329,4.329,4.329,4.329,4.329,4.329,4.329,4.329,4.329,0.0,0.0,0.0,0.0,0.0,0.0,0.0,0.0,0.0,0.0,0.0,0.0,0.0,0.0,0.0,0.0,0.0,0.0,0.0,0.0,0.0,0.0,0.0,0.0,0.0,0.0,0.0,0.0,0.0,0.0,3.2305,3.3396,3.4919,0.0,0.0,0.0,0.0,0.0,0.0,3.8202,3.8202,0.0,0.0,0.0,0.0,0.0,0.0,0.0,0.0,3.6928,3.6993,3.7528,3.742,0.0,0.0,0.0,0.0,0.0,3.7057,3.8121,3.928,3.8626,3.8549,3.8459,3.7848,0.0,0.0,0.0,0.0,0.0,0.0,0.0,0.0,0.0,0.0,4.1197,0.0,0.0,4.315,4.327,0.0,4.315,4.329,4.329,4.329,4.329,4.329,4.329,4.329,4.329,4.329,4.329,4.329,4.329,4.329,4.329,4.329,4.329,4.329,4.329,4.329,4.329,4.329,4.329,0.0,4.329,4.329,4.329,4.329,4.329,4.329,4.329,4.329,4.329,4.329,4.329,0.0,0.0,0.0,0.0,0.0,0.0,0.0,0.0,0.0,0.0,0.0,0.0,0.0,0.0,0.0,0.0,0.0,0.0,0.0,0.0,0.0,0.0,0.0,0.0,0.0,0.0,0.0,0.0,0.0,3.2826,3.3412,3.4727,3.5629,3.6221,0.0,0.0,0.0,0.0,3.7772,3.8202,0.0,0.0,0.0,0.0,0.0,0.0,0.0,0.0,0.0,0.0,3.7366,3.8285,3.741,0.0,0.0,0.0,0.0,0.0,3.7556,3.8033,3.8841,3.8283,3.8877,3.9615,3.9703,0.0,0.0,0.0,0.0,0.0,0.0,0.0,3.9796,4.1183,0.0,4.2345,4.319,4.2895,4.2774,0.0,0.0,4.2795,4.325,4.329,4.329,4.329,4.329,4.329,4.329,4.329,4.329,4.329,4.329,4.329,4.329,4.329,4.329,4.329,4.329,4.329,4.329,4.329,4.329,4.329,0.0,4.329,4.329,4.329,4.329,4.329,4.329,4.329,4.329,4.329,4.329,4.329,0.0,0.0,0.0,0.0,0.0,0.0,0.0,0.0,0.0,0.0,0.0,0.0,0.0,0.0,0.0,0.0,0.0,0.0,0.0,0.0,0.0,0.0,0.0,0.0,0.0,0.0,3.1788,3.2194,3.3209,3.403,3.4703,3.5796,3.6162,0.0,0.0,0.0,0.0,0.0,3.7472,3.7905,0.0,0.0,0.0,0.0,0.0,0.0,0.0,0.0,0.0,0.0,0.0,0.0,0.0,0.0,0.0,3.8964,3.9219,3.9293,3.7864,3.7933,3.836,3.8234,0.0,4.0204,4.107,0.0,0.0,0.0,0.0,0.0,0.0,4.0116,0.0,4.2739,4.2996,4.307,4.327,4.2734,4.2557,4.321,4.2699,4.2557,4.323,4.329,4.329,4.329,4.329,4.329,4.329,4.329,4.329,4.329,4.329,4.329,4.329,4.329,4.329,4.329,4.329,4.329,4.329,4.329,4.329,4.329,4.329,4.329,4.329,4.329,4.329,4.329,4.329,4.329,4.329,4.329,4.329,4.329,0.0,0.0,0.0,0.0,0.0,0.0,0.0,0.0,0.0,0.0,0.0,0.0,0.0,0.0,0.0,0.0,0.0,0.0,0.0,0.0,0.0,0.0,0.0,0.0,0.0,3.1876,3.2156,3.2194,3.3635,3.4733,3.5507,3.4875,3.5386,3.6766,0.0,0.0,0.0,0.0,3.7682,3.7053,3.7867,0.0,0.0,0.0,0.0,0.0,0.0,0.0,0.0,0.0,0.0,0.0,0.0,0.0,3.7939,3.791,3.7325,3.6675,3.6546,3.7312,3.8189,3.8405,3.8877,0.0,4.0139,4.0468,0.0,0.0,0.0,0.0,0.0,4.0546,4.0923,4.1914,4.2093,4.2374,4.319,0.0,4.323,4.329,4.325,4.323,4.329,4.329,4.329,4.329,4.329,4.329,4.329,4.329,4.329,4.329,4.329,4.329,4.329,4.329,4.329,4.329,4.329,4.329,4.329,4.329,4.329,4.329,4.329,4.329,4.329,4.329,4.329,4.329,4.329,4.329,4.329,4.329,4.329,4.329,0.0,0.0,0.0,0.0,0.0,0.0,0.0,0.0,0.0,0.0,0.0,0.0,0.0,0.0,0.0,0.0,0.0,0.0,0.0,0.0,0.0,0.0,0.0,3.2848,3.2483,3.2663,3.2776,3.2776,3.3318,3.4008,3.4855,3.5047,0.0,0.0,0.0,0.0,0.0,0.0,0.0,3.6936,3.7246,3.7642,0.0,0.0,0.0,0.0,0.0,0.0,0.0,0.0,3.7759,3.8691,3.7763,3.8011,3.8441,3.7256,3.7919,3.8639,3.6873,3.8211,3.9842,3.8765,0.0,0.0,0.0,0.0,0.0,0.0,0.0,0.0,0.0,0.0,4.24,4.2739,4.2815,4.2915,4.325,4.329,4.329,4.329,4.329,4.329,4.329,4.329,4.329,4.329,4.329,4.329,4.329,4.329,4.329,4.329,4.329,4.329,4.329,4.329,4.329,4.329,4.329,4.329,4.329,4.329,4.329,4.329,4.329,4.329,4.329,4.329,4.329,4.329,4.329,4.329,4.329,4.329,4.329,4.329,0.0,0.0,0.0,0.0,0.0,0.0,0.0,0.0,0.0,0.0,0.0,0.0,0.0,0.0,0.0,0.0,0.0,0.0,0.0,0.0,0.0,0.0,0.0,3.3286,3.3111,3.3368,3.3368,3.3102,3.3641,3.4483,3.5609,0.0,0.0,0.0,0.0,0.0,0.0,0.0,0.0,0.0,3.699,3.7465,0.0,0.0,0.0,0.0,0.0,0.0,0.0,0.0,3.7894,3.8292,3.8215,3.826,3.8179,3.7497,3.8482,3.9382,3.7461,3.8581,4.008,0.0,0.0,0.0,0.0,0.0,0.0,0.0,0.0,0.0,0.0,0.0,0.0,0.0,4.329,4.329,4.329,4.329,4.329,4.329,4.329,4.329,4.329,4.329,4.329,4.329,4.329,4.329,4.329,4.329,4.329,4.329,4.329,4.329,4.329,4.329,4.329,4.329,4.329,4.329,4.329,4.329,4.329,4.329,4.329,4.329,4.329,4.329,4.329,4.329,4.329,4.329,4.329,4.329,4.329,4.329,0.0,0.0,0.0,0.0,0.0,0.0,0.0,0.0,0.0,0.0,0.0,0.0,0.0,0.0,0.0,0.0,0.0,0.0,0.0,0.0,0.0,0.0,0.0,3.3124,3.3102,3.3949,3.3971,3.3124,3.4787,3.6484,3.8165,3.7285,0.0,0.0,0.0,0.0,0.0,0.0,0.0,0.0,3.7206,3.7852,3.7874,0.0,0.0,0.0,0.0,0.0,0.0,0.0,3.7942,3.7083,4.0852,3.9445,3.6792,3.863,3.8662,3.8107,3.8085,3.8107,3.8456,0.0,0.0,0.0,0.0,0.0,0.0,0.0,0.0,0.0,0.0,0.0,0.0,4.317,4.329,4.329,4.329,4.329,4.329,4.329,4.329,4.329,4.329,4.329,4.329,4.329,4.329,4.329,4.329,4.329,4.329,4.329,4.329,4.329,4.329,4.329,4.329,4.329,4.329,4.329,4.329,4.329,4.329,4.329,4.329,4.329,4.329,4.329,4.329,4.329,4.329,4.329,4.329,4.329,4.329,4.329,0.0,0.0,0.0,0.0,0.0,0.0,0.0,0.0,0.0,0.0,0.0,0.0,0.0,0.0,0.0,0.0,0.0,0.0,0.0,0.0,0.0,0.0,0.0,0.0,0.0,0.0,3.3654,3.4,3.5074,3.5855,0.0,0.0,0.0,3.8183,0.0,0.0,0.0,0.0,0.0,0.0,3.718,3.7798,3.8174,0.0,0.0,0.0,0.0,0.0,0.0,0.0,0.0,0.0,3.7933,3.7772,3.7348,3.7256,3.7671,3.8014,3.7312,3.8841,0.0,3.9511,0.0,0.0,0.0,0.0,0.0,0.0,0.0,0.0,0.0,0.0,0.0,4.325,4.329,4.329,4.329,4.329,4.329,4.329,4.329,4.329,4.329,4.329,4.329,4.329,4.329,4.329,4.329,4.329,4.329,4.329,4.329,4.329,4.329,4.329,4.329,4.329,4.329,4.329,4.329,4.329,4.329,4.329,4.329,4.329,4.329,4.329,4.329,4.329,4.329,4.329,4.329,4.329,4.329,4.329,0.0,0.0,0.0,0.0,0.0,0.0,0.0,0.0,0.0,0.0,0.0,0.0,0.0,0.0,0.0,0.0,0.0,0.0,0.0,0.0,0.0,0.0,0.0,0.0,0.0,3.4087,3.4358,0.0,0.0,0.0,0.0,0.0,0.0,3.8025,0.0,3.7546,0.0,0.0,3.7284,3.7531,3.7703,3.8024,3.8298,0.0,0.0,0.0,0.0,0.0,0.0,0.0,0.0,0.0,3.7997,3.7704,3.7371,3.8033,3.8531,3.8845,3.8693,4.0124,0.0,4.0831,4.1637,0.0,0.0,0.0,0.0,0.0,0.0,4.2679,4.321,4.329,0.0,4.329,4.329,4.329,4.329,4.329,4.329,4.329,4.329,4.329,4.329,4.329,4.329,4.329,4.329,4.329,4.329,4.329,4.329,4.329,4.329,4.329,4.329,4.329,4.329,4.329,4.329,4.329,4.329,4.329,4.329,4.329,4.329,4.329,4.329,4.329,4.329,4.329,4.329,4.329,4.329,4.329,4.329,4.329,0.0,0.0,0.0,0.0,0.0,0.0,0.0,0.0,0.0,0.0,3.1461,0.0,0.0,0.0,0.0,0.0,0.0,0.0,0.0,0.0,0.0,0.0,0.0,0.0,0.0,0.0,0.0,0.0,0.0,0.0,0.0,0.0,3.8107,3.7976,0.0,3.7373,0.0,3.6919,3.7238,3.8822,3.8509,3.8418,3.842,3.7985,0.0,0.0,0.0,0.0,0.0,0.0,0.0,0.0,3.9834,3.8707,3.7302,3.9927,4.0317,4.0138,4.1169,0.0,0.0,4.2921,4.2467,0.0,4.3056,0.0,0.0,0.0,0.0,4.329,4.329,4.329,4.329,4.329,4.329,4.329,4.329,4.329,4.329,4.329,4.329,4.329,4.329,4.329,4.329,4.329,4.329,4.329,4.329,4.329,4.329,4.329,4.329,4.329,4.329,4.329,4.329,4.329,4.329,4.329,4.329,4.329,4.329,4.329,4.329,4.329,4.329,4.329,4.329,4.329,4.329,4.329,4.329,4.329,4.329,4.329,0.0,0.0,0.0,0.0,0.0,0.0,0.0,0.0,0.0,0.0,0.0,0.0,0.0,0.0,0.0,0.0,0.0,0.0,0.0,0.0,0.0,0.0,0.0,0.0,0.0,0.0,0.0,0.0,0.0,0.0,0.0,0.0,0.0,3.9531,0.0,3.7764,3.8813,3.8106,3.8082,3.8536,3.8863,3.902,3.8945,3.8107,3.8274,0.0,0.0,0.0,0.0,0.0,0.0,0.0,3.8509,3.8997,3.9549,3.8734,3.9166,3.9964,4.0189,4.1071,0.0,0.0,4.2618,4.3001,4.325,4.329,4.329,4.329,4.329,4.329,4.329,4.329,4.329,4.329,4.329,4.329,4.329,4.329,4.329,4.329,4.329,4.329,4.329,4.329,4.329,4.329,4.329,4.329,4.329,4.329,4.329,4.329,4.329,4.329,4.329,4.329,4.329,4.329,4.329,4.329,4.329,4.329,4.329,4.329,4.329,4.329,4.329,4.329,4.329,4.329,4.329,4.329,4.329,4.329,4.329,4.329,0.0,0.0,0.0,0.0,0.0,0.0,0.0,0.0,0.0,0.0,0.0,0.0,0.0,0.0,0.0,0.0,0.0,0.0,0.0,0.0,0.0,0.0,0.0,0.0,0.0,0.0,0.0,0.0,0.0,0.0,0.0,0.0,0.0,3.9876,0.0,3.8922,3.9669,3.9004,3.8997,3.9435,3.9273,3.921,3.9166,3.8653,3.8765,3.9064,3.8102,0.0,0.0,0.0,0.0,0.0,0.0,0.0,3.8774,3.9716,3.9956,4.0116,4.112,0.0,0.0,4.2618,0.0,4.329,4.329,4.329,4.329,4.329,4.329,4.329,4.329,4.329,4.329,4.329,4.329,4.329,4.329,4.329,4.329,4.329,4.329,4.329,4.329,4.329,4.329,4.329,4.329,4.329,4.329,4.329,4.329,4.329,4.329,4.329,4.329,4.329,4.329,4.329,4.329,4.329,4.329,4.329,4.329,4.329,4.329,4.329,4.329,4.329,4.329,4.329,4.329,4.329,4.329,4.329,4.329,4.329,0.0,0.0,0.0,0.0,0.0,0.0,0.0,0.0,0.0,0.0,0.0,0.0,0.0,0.0,0.0,0.0,0.0,0.0,0.0,0.0,0.0,0.0,0.0,0.0,0.0,0.0,0.0,0.0,0.0,0.0,0.0,0.0,0.0,4.0089,0.0,0.0,4.0788,3.9659,3.9746,4.0504,3.9571,3.9285,3.9417,3.9263,0.0,3.9417,3.9263,3.921,3.9121,3.8486,0.0,0.0,0.0,0.0,3.7782,4.1099,4.1247,4.071,4.2482,0.0,4.329,4.329,4.329,0.0,4.329,4.329,4.329,4.329,4.329,4.329,4.329,4.329,4.329,4.329,4.329,4.329,4.329,4.329,4.329,4.329,4.329,4.329,4.329,4.329,4.329,4.329,4.329,4.329,4.329,4.329,4.329,4.329,4.329,4.329,4.329,4.329,4.329,4.329,4.329,4.329,4.329,4.329,4.329,4.329,4.329,4.329,4.329,4.329,4.329,4.329,4.329,4.329,4.329,4.329,4.329,4.329,0.0,0.0,0.0,0.0,0.0,0.0,0.0,0.0,0.0,0.0,0.0,0.0,0.0,0.0,0.0,0.0,0.0,0.0,3.3102,0.0,0.0,3.5608,3.6103,0.0,0.0,0.0,0.0,0.0,0.0,0.0,0.0,0.0,0.0,4.1699,0.0,0.0,0.0,3.997,3.9746,4.0504,3.9571,3.9681,4.031,0.0,0.0,0.0,0.0,3.921,3.9307,3.9986,3.9681,0.0,0.0,0.0,4.0138,4.0689,4.1429,4.2158,0.0,0.0,4.329,0.0,4.329,4.329,0.0,0.0,4.329,0.0,4.329,4.329,4.329,4.329,4.329,4.329,4.329,4.329,4.329,4.329,4.329,4.329,4.329,4.329,4.329,4.329,4.329,4.329,4.329,4.329,4.329,4.329,4.329,4.329,4.329,4.329,4.329,4.329,4.329,4.329,4.329,4.329,4.329,4.329,4.329,4.329,4.329,4.329,4.329,4.329,4.329,4.329,4.329,4.329,4.329,4.329,4.329,4.329,0.0,0.0,0.0,0.0,0.0,0.0,0.0,0.0,0.0,0.0,0.0,0.0,0.0,0.0,0.0,3.3102,3.3102,3.3102,3.3102,3.4071,3.5102,3.6123,3.6707,3.7412,3.8311,0.0,0.0,0.0,0.0,0.0,0.0,4.1381,4.1416,0.0,0.0,0.0,0.0,0.0,0.0,4.0546,4.0138,4.0224,0.0,0.0,0.0,0.0,0.0,0.0,0.0,3.9855,3.9527,3.9351,4.0289,0.0,0.0,0.0,4.1521,4.1792,4.2633,4.309,4.329,0.0,4.329,4.329,4.329,0.0,4.329,4.329,4.329,4.329,4.329,4.329,4.329,4.329,4.329,4.329,4.329,4.329,4.329,4.329,4.329,4.329,4.329,4.329,4.329,4.329,4.329,4.329,4.329,4.329,4.329,4.329,4.329,4.329,4.329,4.329,4.329,4.329,4.329,4.329,4.329,4.329,4.329,4.329,4.329,4.329,4.329,4.329,4.329,4.329,4.329,4.329,4.329,4.329,4.329,4.329,0.0,0.0,0.0,0.0,0.0,0.0,0.0,0.0,0.0,0.0,0.0,0.0,0.0,0.0,0.0,0.0,3.3228,3.3548,3.4148,3.4328,3.5249,3.7092,3.7464,3.8285,3.9697,0.0,0.0,0.0,0.0,0.0,4.2092,4.2092,4.2092,0.0,4.2092,0.0,0.0,0.0,0.0,0.0,0.0,0.0,0.0,0.0,0.0,0.0,0.0,0.0,0.0,0.0,0.0,0.0,4.0681,4.0324,0.0,0.0,0.0,0.0,0.0,0.0,4.329,4.329,4.329,4.329,0.0,0.0,4.329,0.0,4.329,4.329,4.329,4.329,4.329,4.329,4.329,4.329,4.329,4.329,4.329,4.329,4.329,4.329,4.329,4.329,4.329,4.329,4.329,4.329,4.329,4.329,4.329,4.329,4.329,4.329,4.329,4.329,4.329,4.329,4.329,4.329,4.329,4.329,4.329,4.329,4.329,4.329,4.329,4.329,4.329,4.329,4.329,4.329,4.3309,4.3532,4.361,4.361,0.0,0.0,0.0,0.0,0.0,0.0,0.0,0.0,0.0,0.0,0.0,0.0,0.0,3.3102,3.3102,3.3102,3.3558,3.4803,3.7036,3.6361,3.6775,3.8701,3.8431,0.0,3.9774,0.0,0.0,0.0,0.0,0.0,4.2092,4.2092,4.2092,4.2092,4.2092,4.2092,4.2092,0.0,0.0,0.0,0.0,0.0,0.0,0.0,0.0,0.0,0.0,0.0,0.0,0.0,0.0,0.0,0.0,0.0,0.0,0.0,0.0,0.0,0.0,4.3135,0.0,4.329,4.329,0.0,0.0,0.0,4.329,4.329,4.329,4.329,4.329,4.329,4.329,4.329,4.329,4.329,4.329,4.329,4.329,4.329,4.329,4.329,4.329,4.329,4.329,4.329,4.329,4.329,4.329,4.329,4.329,4.329,4.329,4.329,4.329,4.329,4.329,4.329,4.329,4.329,4.329,4.329,4.329,4.329,4.329,4.329,4.329,4.329,4.329,4.329,4.329,4.329,4.3389,4.4163,4.4434,4.4434,0.0,0.0,0.0,0.0,0.0,0.0,0.0,0.0,0.0,0.0,0.0,0.0,0.0,3.3962,3.3983,3.4946,3.5196,3.5674,3.6522,3.7184,3.811,3.9416,3.9661,3.9947,4.0301,0.0,0.0,0.0,0.0,4.2092,4.2092,4.2092,4.2092,4.2092,4.2092,4.2092,4.2092,4.2092,0.0,0.0,0.0,0.0,0.0,0.0,0.0,0.0,0.0,0.0,0.0,0.0,0.0,0.0,0.0,0.0,0.0,0.0,0.0,0.0,0.0,0.0,0.0,4.3115,4.321,4.329,4.329,4.329,4.329,4.329,4.329,4.329,4.329,4.329,4.329,4.329,4.329,4.329,4.329,4.329,4.329,4.329,4.329,4.329,4.329,4.329,4.329,4.329,4.329,4.329,4.329,4.329,4.329,4.329,4.329,4.329,4.329,4.329,4.329,4.329,4.329,4.329,4.329,4.329,4.329,4.3329,4.3849,4.3771,4.329,4.329,4.329,4.329,4.329,4.361,4.412,4.4377,4.4831,4.5277,0.0,0.0,0.0,0.0,0.0,0.0,0.0,0.0,0.0,0.0,0.0,0.0,0.0,0.0,3.5613,3.6773,3.6857,3.7067,3.7579,3.8274,3.9233,4.0531,4.0598,4.0753,4.1092,0.0,0.0,0.0,0.0,0.0,0.0,4.2092,4.2092,4.2092,4.2092,4.2092,0.0,0.0,0.0,4.2092,0.0,0.0,4.203,0.0,0.0,0.0,0.0,0.0,0.0,0.0,0.0,0.0,0.0,0.0,0.0,0.0,0.0,0.0,4.2479,0.0,0.0,0.0,4.3135,4.329,4.329,4.329,4.329,4.329,4.329,4.329,4.329,4.329,4.329,4.329,4.329,4.329,4.329,4.329,4.329,4.329,4.329,4.329,4.329,4.329,4.329,4.329,4.329,0.0,4.329,4.329,4.329,4.329,4.329,4.329,4.329,4.329,4.329,4.329,4.329,4.329,4.3309,4.3571,4.3693,4.3752,4.4548,4.445,4.3713,4.3989,4.412,4.412,4.412,4.4415,4.4943,4.5187,4.5611,4.6058,0.0,0.0,0.0,0.0,0.0,0.0,0.0,0.0,0.0,0.0,0.0,0.0,0.0,0.0,0.0,3.8374,3.845,3.9063,4.0518,3.9768,4.0136,4.203,4.1156,4.1092,4.2071,0.0,0.0,0.0,0.0,0.0,0.0,0.0,4.2092,4.2092,4.2092,4.2092,4.2092,0.0,4.2092,4.2092,0.0,4.2092,4.2092,0.0,0.0,0.0,4.2092,4.2092,0.0,0.0,0.0,0.0,0.0,0.0,0.0,0.0,0.0,0.0,0.0,0.0,0.0,0.0,0.0,0.0,4.329,4.329,4.329,4.329,4.329,4.329,4.329,4.329,4.329,4.329,4.329,4.329,4.329,4.329,4.329,4.329,4.329,4.329,4.329,4.329,4.329,4.329,4.329,4.329,4.329,4.329,4.329,4.329,4.329,4.329,4.329,4.329,4.329,4.329,4.329,4.329,4.3329,4.4124,4.4491,4.4548,4.5369,4.5295,4.4624,4.5387,4.5697,4.5697,4.5697,4.5715,4.5823,4.6534,4.6828,4.6845,0.0,0.0,0.0,0.0,0.0,0.0,0.0,0.0,0.0,0.0,0.0,0.0,0.0,0.0,0.0,3.9027,3.9607,4.015,4.0554,4.1029,4.1549,4.2071,4.1835,4.1814,4.2092,0.0,0.0,0.0,0.0,0.0,0.0,0.0,0.0,0.0,4.2092,4.2092,4.2092,4.2092,0.0,0.0,4.2092,4.2092,0.0,0.0,0.0,0.0,0.0,4.2092,4.1989,0.0,4.1015,4.1015,0.0,0.0,0.0,0.0,0.0,0.0,4.2242,0.0,0.0,0.0,0.0,0.0,4.329,4.329,4.329,4.329,4.329,4.329,4.329,4.329,4.329,4.329,4.329,4.329,4.329,4.329,4.329,4.329,4.329,4.329,4.329,4.329,4.329,0.0,4.329,4.329,4.329,4.329,4.329,4.329,4.329,4.329,4.329,4.329,4.329,4.329,4.329,4.329,4.3329,4.4124,4.4491,4.4567,4.5899,4.6376,4.6131,4.5841,4.5697,4.5697,4.5697,4.6038,4.6517,4.6725,4.7169,4.7671,0.0,0.0,0.0,0.0,0.0,0.0,0.0,0.0,0.0,0.0,0.0,0.0,0.0,0.0,0.0,4.0474,4.0923,4.1233,4.1233,4.1758,4.2092,4.2092,4.2092,4.2092,4.2092,0.0,0.0,0.0,0.0,0.0,0.0,0.0,0.0,0.0,0.0,0.0,0.0,0.0,0.0,0.0,4.2092,0.0,0.0,4.2092,4.2092,0.0,0.0,0.0,4.1458,4.1275,4.1233,0.0,0.0,0.0,0.0,0.0,0.0,0.0,0.0,0.0,0.0,0.0,0.0,0.0,4.327,4.325,4.321,4.327,4.329,4.329,4.329,4.329,4.329,4.329,4.329,4.329,4.329,4.329,4.329,4.329,4.329,4.329,4.329,4.329,4.329,4.329,4.329,4.329,4.329,4.329,4.329,4.329,4.329,4.329,4.329,4.329,4.329,4.3309,4.3649,4.3791,4.383,4.4965,4.5465,4.552,4.6776,4.7303,4.727,4.6844,4.6671,4.6671,4.6671,4.693,4.7303,4.7303,4.7605,4.8001,0.0,0.0,0.0,0.0,0.0,0.0,0.0,0.0,0.0,0.0,0.0,0.0,0.0,0.0,0.0,0.0,4.2092,4.2092,4.2092,4.2092,4.2092,4.2092,4.2092,4.2092,4.2092,0.0,0.0,0.0,0.0,0.0,0.0,0.0,0.0,0.0,0.0,0.0,0.0,0.0,0.0,4.2092,4.2092,4.2092,0.0,0.0,4.2092,4.2092,4.2092,4.1535,4.0894,4.1675,4.2009,0.0,0.0,0.0,0.0,0.0,4.2092,0.0,0.0,0.0,0.0,0.0,0.0,0.0,4.315,4.3115,4.3056,4.323,4.327,4.329,4.329,4.329,4.329,4.329,4.329,4.329,4.329,4.329,4.329,4.329,4.329,4.329,4.329,4.329,4.329,4.329,4.329,4.329,4.329,4.329,4.329,4.329,4.329,4.329,4.329,4.329,4.3349,4.3433,4.4163,4.4548,4.468,4.6131,4.6794,4.6829,4.7654,4.8001,4.8001,4.8001,4.8001,4.8001,4.8001,4.8001,4.8001,4.8001,4.8001,4.8001,3.7118,0.0,0.0,0.0,0.0,0.0,0.0,0.0,0.0,0.0,0.0,0.0,0.0,0.0,0.0,0.0,0.0,4.2092,4.2092,4.2092,4.2092,4.2092,4.2092,4.2092,4.2092,4.2092,0.0,0.0,0.0,0.0,0.0,0.0,0.0,0.0,0.0,0.0,0.0,0.0,0.0,4.2092,4.2092,0.0,4.2092,4.2092,4.2092,4.2092,4.2092,4.1974,4.1717,0.0,4.1437,4.1953,0.0,0.0,0.0,0.0,0.0,0.0,0.0,0.0,0.0,0.0,0.0,0.0,4.2809,4.2915,4.3016,4.3056,4.319,4.329,4.329,4.329,4.329,4.329,4.329,4.329,4.329,4.329,4.329,4.329,4.329,4.329,4.329,4.329,4.329,4.329,4.329,4.329,4.329,4.329,4.329,4.329,4.329,4.329,4.329,4.329,4.363,4.4278,4.4415,4.4831,4.5497,4.6394,4.6794,4.6829,4.7654,4.8001,4.8001,4.8001,4.8001,4.8001,4.8001,4.8001,4.8001,4.8001,4.8001,4.8001,3.8343,0.0,0.0,0.0,0.0,0.0,0.0,0.0,0.0,0.0,0.0,0.0,0.0,0.0,0.0,0.0,0.0,0.0,0.0,0.0,4.2092,4.2092,4.2092,4.2092,4.2092,4.2092,4.2092,0.0,0.0,0.0,0.0,0.0,0.0,0.0,0.0,0.0,0.0,0.0,4.2266,4.2513,4.2223,0.0,4.2092,4.2092,4.2281,4.2542,4.2542,4.276,4.2894,4.1886,4.2217,0.0,0.0,4.2142,4.2484,0.0,4.2092,4.2092,0.0,0.0,0.0,4.2372,0.0,0.0,0.0,4.2688,4.2729,4.283,4.293,4.299,4.299,4.309,4.3135,4.3135,4.323,4.329,4.329,4.329,4.329,4.329,4.329,4.329,4.329,4.329,4.329,4.329,4.329,4.329,4.329,4.329,4.329,4.329,4.329,4.329,4.329,4.3708,4.4105,4.451,4.5279,4.5845,4.6271,4.705,4.7404,4.7421,4.782,4.8001,4.8001,4.8001,4.8001,4.8001,4.8001,4.8001,4.8001,4.8001,4.8001,4.8001,3.9307,0.0,0.0,0.0,0.0,0.0,0.0,0.0,0.0,0.0,0.0,0.0,0.0,0.0,0.0,0.0,0.0,0.0,0.0,0.0,0.0,4.2092,4.2092,4.2092,4.2092,4.2092,4.2092,0.0,0.0,0.0,0.0,0.0,0.0,0.0,0.0,0.0,0.0,0.0,0.0,4.3137,0.0,4.2469,4.2469,4.2469,4.276,4.3181,4.3181,4.3529,4.3871,4.307,4.3326,4.3913,4.3355,4.3181,0.0,0.0,0.0,0.0,0.0,0.0,0.0,0.0,0.0,4.2195,0.0,0.0,0.0,4.2622,4.2668,4.2688,4.2688,0.0,0.0,4.3001,0.0,0.0,0.0,4.329,0.0,4.329,4.329,4.329,4.329,4.329,4.329,4.329,4.329,4.329,4.329,4.329,4.329,4.329,4.3448,4.3532,4.3532,4.4335,4.4812,4.4965,4.6202,4.688,4.705,4.7704,4.8001,4.8001,4.8001,4.8001,4.8001,4.8001,4.8001,4.8001,4.8001,4.8001,4.8001,4.8001,4.8001,4.8001,4.0418,4.0353,0.0,0.0,0.0,0.0,0.0,0.0,0.0,0.0,0.0,0.0,0.0,0.0,0.0,0.0,0.0,0.0,4.2092,0.0,0.0,4.2092,4.2092,4.2092,4.2092,4.2092,4.2092,4.2092,0.0,0.0,0.0,0.0,0.0,0.0,4.2092,0.0,0.0,0.0,4.3268,0.0,4.3805,4.3776,0.0,4.3776,4.3841,4.3877,4.3877,4.3942,4.3993,0.0,4.3892,4.3979,0.0,4.3877,4.3863,0.0,0.0,0.0,0.0,0.0,0.0,0.0,4.2113,0.0,0.0,0.0,4.2412,4.2433,0.0,4.2688,0.0,0.0,0.0,0.0,0.0,0.0,4.329,4.329,4.329,4.329,4.329,4.329,4.329,4.329,4.329,4.329,4.329,4.329,4.329,4.329,4.329,4.329,4.4004,4.4358,4.4358,4.5166,4.5897,4.6551,4.6708,4.7169,4.7869,4.7952,4.8001,4.8001,4.8001,4.8001,4.8001,4.8001,4.8001,4.8001,4.8001,4.8001,4.8001,4.8001,4.8001,4.8001,4.1458,4.0993,0.0,0.0,0.0,0.0,0.0,0.0,0.0,0.0,0.0,0.0,0.0,0.0,0.0,0.0,0.0,4.2092,0.0,0.0,0.0,0.0,0.0,0.0,4.2092,4.2092,4.2092,4.2092,4.2092,0.0,0.0,0.0,0.0,0.0,4.2469,0.0,4.3042,0.0,4.3935,0.0,0.0,0.0,0.0,4.4269,4.4233,4.456,4.4951,4.5097,4.5097,0.0,4.5097,0.0,0.0,0.0,0.0,0.0,0.0,0.0,0.0,0.0,0.0,0.0,0.0,0.0,4.2092,0.0,4.2222,0.0,0.0,0.0,0.0,0.0,0.0,0.0,4.309,0.0,0.0,0.0,4.329,4.329,0.0,0.0,4.329,4.329,4.329,4.329,4.329,4.329,4.329,4.329,4.329,4.329,4.4066,4.4491,4.4491,4.5735,4.6482,4.6811,4.727,4.7671,4.8001,4.8001,4.8001,4.8001,4.8001,4.8001,4.8001,4.8001,4.8001,4.8001,4.8001,4.8001,4.8001,4.8001,4.8001,4.8001,4.2092,0.0,0.0,0.0,0.0,0.0,0.0,0.0,0.0,0.0,0.0,0.0,4.2092,4.2092,0.0,0.0,0.0,4.2092,0.0,0.0,4.2266,0.0,0.0,0.0,0.0,0.0,4.2092,4.2092,0.0,0.0,0.0,0.0,0.0,0.0,0.0,4.3355,4.3565,0.0,4.4625,4.5155,4.5155,4.5482,4.5801,4.4864,4.4777,4.5249,4.5729,4.5903,4.5903,4.597,4.5993,0.0,4.5411,0.0,0.0,0.0,0.0,0.0,4.3752,0.0,0.0,0.0,0.0,0.0,0.0,0.0,0.0,0.0,0.0,0.0,0.0,0.0,0.0,0.0,0.0,4.325,0.0,4.329,0.0,0.0,0.0,0.0,0.0,4.329,4.329,4.329,4.329,4.329,4.329,4.3512,4.363,4.363,4.4605,4.5132,4.5132,4.6464,4.7135,4.7135,4.7721,4.8001,4.8001,4.8001,4.8001,4.8001,4.8001,4.8001,4.8001,4.8001,4.8001,4.8001,4.8001,4.8001,4.8001,4.8001,4.8001,4.8001,4.2092,4.2071,0.0,0.0,0.0,0.0,0.0,0.0,0.0,0.0,0.0,0.0,0.0,0.0,0.0,0.0,0.0,4.2092,4.2092,0.0,4.2702,0.0,0.0,4.2687,0.0,0.0,0.0,4.2092,0.0,0.0,0.0,0.0,0.0,0.0,0.0,4.4284,4.4843,4.485,4.5264,4.5874,4.5874,4.5888,4.5903,0.0,4.5859,4.5874,4.5903,0.0,0.0,4.6135,4.6188,0.0,0.0,0.0,0.0,0.0,0.0,0.0,0.0,0.0,0.0,4.3186,0.0,0.0,0.0,0.0,4.2092,0.0,0.0,0.0,0.0,0.0,0.0,0.0,0.0,0.0,0.0,0.0,0.0,0.0,0.0,0.0,0.0,4.329,4.329,4.329,4.329,4.329,4.329,4.4043,4.4453,4.4453,4.5935,4.6725,4.6725,4.7555,4.7968,4.7968,4.7984,4.8001,4.8001,4.8001,4.8001,4.8001,4.8001,4.8001,4.8001,4.8001,4.8001,4.8001,4.8001,4.8001,4.8001,4.8001,4.8001,4.8001,0.0,0.0,0.0,0.0,0.0,0.0,0.0,4.2092,0.0,0.0,0.0,0.0,0.0,4.3355,4.3355,0.0,0.0,4.3355,4.3355,4.3565,0.0,0.0,0.0,4.3558,0.0,0.0,0.0,0.0,0.0,0.0,0.0,0.0,0.0,0.0,0.0,4.4814,0.0,0.0,0.0,0.0,0.0,4.5903,4.5903,0.0,4.609,4.609,4.609,4.609,0.0,4.6165,4.6188,4.6232,4.6403,4.6447,4.6447,4.6447,4.6322,4.6043,0.0,0.0,4.4956,4.409,0.0,0.0,0.0,0.0,0.0,0.0,0.0,0.0,0.0,0.0,0.0,0.0,0.0,0.0,0.0,0.0,0.0,0.0,0.0,0.0,0.0,0.0,4.329,4.329,4.329,4.329,4.329,4.4066,4.4491,4.4491,4.5989,4.6794,4.6794,4.7605,4.8001,4.8001,4.8001,4.8001,4.8001,4.8001,4.8001,4.8001,4.8001,4.8001,4.8001,4.8001,4.8001,4.8001,4.8001,4.8001,4.8001,4.8001,4.8001,4.8001,4.2092,0.0,0.0,0.0,0.0,0.0,0.0,0.0,0.0,0.0,4.3376,0.0,4.395,0.0,4.3993,0.0,4.3993,4.3993,4.3993,4.4197,0.0,4.4008,4.4218,0.0,0.0,0.0,0.0,0.0,0.0,4.3993,0.0,0.0,0.0,0.0,0.0,4.5397,4.5625,4.5893,4.609,0.0,0.0,4.6015,0.0,0.0,4.6343,4.621,0.0,4.6336,4.6358,4.641,4.6454,4.6476,4.6646,4.6705,4.6705,4.6705,4.6705,4.6623,4.618,4.6061,0.0,4.4985,4.4472,0.0,4.3696,0.0,0.0,0.0,0.0,0.0,0.0,0.0,0.0,0.0,0.0,0.0,0.0,4.329,0.0,0.0,0.0,0.0,0.0,4.329,4.329,4.329,4.329,4.3413,4.3713,4.4491,4.5055,4.53,4.6551,4.722,4.722,4.7737,4.8001,4.8001,4.8001,4.8001,4.8001,4.8001,4.8001,4.8001,4.8001,4.8001,4.8001,4.8001,4.8001,4.8001,4.8001,4.8001,4.8001,4.8001,4.8001,4.8001,0.0,0.0,0.0,0.0,4.2658,0.0,0.0,0.0,4.4008,0.0,4.4037,4.4073,4.4081,4.4081,4.4081,4.4081,4.4081,0.0,4.4081,4.464,0.0,0.0,4.4654,4.4676,4.4095,0.0,0.0,0.0,0.0,0.0,0.0,0.0,0.0,0.0,4.5627,0.0,4.621,4.621,4.621,4.621,4.621,4.621,4.6277,4.6719,4.6609,4.6269,4.6513,4.6616,4.6639,4.6844,4.6894,4.6894,4.6916,4.6916,4.6916,4.6916,4.6916,4.6916,4.6916,4.6916,4.6724,4.587,4.565,0.0,0.0,0.0,4.3924,0.0,0.0,0.0,0.0,0.0,0.0,0.0,0.0,0.0,0.0,0.0,0.0,0.0,0.0,0.0,0.0,4.329,4.329,4.329,4.329,4.3649,0.0,4.5258,4.6038,4.6777,4.7571,4.8001,4.8001,4.8001,4.8001,4.8001,4.8001,4.8001,4.8001,4.8001,4.8001,4.8001,4.8001,4.8001,4.8001,4.8001,4.8001,4.8001,4.8001,4.8001,4.8001,4.8001,4.8001,4.8001,4.35,4.3652,4.3689,0.0,4.3631,4.3732,0.0,0.0,0.0,0.0,4.4683,4.485,4.5366,4.5424,4.5424,4.5424,4.5424,0.0,0.0,0.0,0.0,4.5424,4.5547,4.5583,4.5424,4.5424,0.0,4.5424,0.0,0.0,4.5424,0.0,0.0,0.0,0.0,4.6127,4.6469,4.6291,4.6314,4.6506,4.6506,4.6506,4.6528,0.0,4.6844,4.6719,4.68,4.6822,4.6844,4.6873,4.6894,4.6931,4.7142,4.7207,4.7207,4.7207,4.7207,4.7207,4.7207,4.7207,4.7098,4.6665,4.6243,4.5799,0.0,0.0,0.0,0.0,0.0,0.0,0.0,0.0,0.0,0.0,0.0,0.0,0.0,0.0,0.0,4.329,0.0,4.329,4.329,4.329,4.329,4.329,4.329,4.3649,4.4469,0.0,4.6038,4.6777,4.7571,4.8001,4.8001,4.8001,4.8001,4.8001,4.8001,4.8001,4.8001,4.8001,4.8001,4.8001,4.8001,4.8001,4.8001,4.8001,4.8001,4.8001,4.8001,4.8001,4.8001,4.8001,4.8001,4.8001,4.3993,0.0,0.0,4.4916,0.0,0.0,4.4451,4.4654,0.0,4.5293,4.5351,0.0,4.5859,4.5903,4.5903,4.5903,4.5903,0.0,4.5903,0.0,0.0,4.5903,4.5903,4.5903,4.5903,4.5903,0.0,4.5903,0.0,0.0,4.5903,0.0,0.0,0.0,0.0,4.615,4.6594,4.6535,4.6535,4.6616,4.6705,4.6734,0.0,4.699,4.7062,4.7062,4.7062,4.7062,4.7062,4.7062,4.7062,4.7099,4.7251,4.7309,4.7309,4.7309,4.7309,4.7309,4.7309,4.7309,4.7251,4.7121,4.6816,4.6526,4.6382,4.5849,4.5505,0.0,4.545,4.5013,0.0,0.0,0.0,0.0,0.0,0.0,0.0,0.0,0.0,0.0,4.329,4.329,4.329,4.329,4.329,4.329,4.329,4.3791,4.4962,0.0,4.6198,4.7287,4.7754,4.8001,4.8001,4.8001,4.8001,4.8001,4.8001,4.8001,4.8001,4.8001,4.8001,4.8001,4.8001,4.8001,4.8001,4.8001,4.8001,4.8001,4.8001,4.8001,4.8001,4.8001,4.8001,4.8001,0.0,0.0,0.0,0.0,0.0,0.0,0.0,4.5562,0.0,4.5903,0.0,4.5948,4.5948,4.5948,4.5948,4.5948,0.0,4.5903,4.5903,4.5903,4.5903,4.5903,4.5903,4.5903,4.5903,4.5903,0.0,0.0,0.0,0.0,0.0,0.0,0.0,0.0,0.0,0.0,0.0,4.6866,4.6844,4.6705,4.6887,4.6953,4.6975,4.7207,4.7309,4.7309,4.7309,4.7309,4.7309,4.7309,4.7309,4.7309,4.7309,4.7309,4.7309,4.7309,4.7309,4.7309,4.7309,4.7309,4.7309,4.7309,4.7309,4.7309,4.7309,4.6839,4.66,4.7189,4.6367,4.5708,0.0,0.0,0.0,0.0,0.0,0.0,0.0,0.0,0.0,0.0,0.0,0.0,4.3564,4.3469,4.3444,4.3444,4.3618,4.4384,4.5892,0.0,4.6805,4.8233,4.8299,4.8299,4.8299,4.8299,4.8299,4.8299,4.8299,4.8299,4.8299,4.8299,4.8299,4.8299,4.8299,4.8299,4.8315,4.8299,4.8299,4.8299,4.8299,4.8299,4.8299,4.8299,4.8299,4.8282,0.0,0.0,0.0,0.0,0.0,4.5986,4.6256,4.6077,4.5903,4.5903,4.6046,4.6158,4.6158,4.6158,4.6158,4.6158,4.5993,0.0,0.0,0.0,0.0,4.5903,4.5903,4.5903,4.5903,4.5903,4.5903,0.0,0.0,0.0,0.0,0.0,0.0,0.0,0.0,0.0,4.6851,4.7121,0.0,4.7179,4.7222,4.7229,4.7229,4.7287,4.7309,4.7309,4.7309,4.7309,4.7309,4.7309,4.7309,4.7309,4.7309,4.7309,4.7309,4.7309,4.7309,4.7309,4.7309,4.7309,4.7309,4.7309,4.7309,4.7309,4.7309,4.7219,4.7174,4.7279,4.7115,4.683,4.6375,0.0,0.0,0.0,0.0,0.0,0.0,0.0,0.0,0.0,0.0,4.4945,4.4945,4.4446,4.4117,4.4117,4.5303,4.6408,4.7315,0.0,4.8841,0.0,4.9806,4.9806,0.0,0.0,4.9806,4.9806,4.9806,4.9806,4.9806,4.9806,4.9806,4.9806,4.9806,4.9874,4.9959,4.9857,4.9806,4.9806,4.9806,4.9806,4.9806,4.9806,4.9874,4.9793,0.0,0.0,0.0,0.0,0.0,0.0,0.0,4.7317,4.7018,4.6803,4.6924,4.7082,4.7211,4.7105,4.7036,4.7036,4.7074,4.7089,4.7089,4.7089,4.7089,4.7089,4.6959,0.0,4.6374,4.6374,4.626,4.6046,0.0,0.0,0.0,0.0,0.0,4.6594,0.0,4.6646,0.0,0.0,4.7737,4.7642,4.8133,4.8139,4.7818,4.7818,4.7593,4.7309,4.7309,4.7309,4.7309,4.7309,4.7309,4.7309,4.7309,4.7309,4.7309,4.7309,4.7309,4.7309,4.7309,4.7309,4.7309,4.7309,4.7309,4.7309,4.7309,4.7309,4.7309,4.7309,4.7309,4.7115,4.642,4.6031,0.0,0.0,0.0,0.0,0.0,0.0,0.0,0.0,0.0,0.0,0.0,0.0,0.0,0.0,4.6194,4.7119,4.8315,0.0,4.9374,0.0,0.0,0.0,5.0203,0.0,5.0203,5.0203,5.0203,5.0203,5.0203,5.0203,5.0203,5.0203,5.0203,5.0238,5.029,5.0238,5.0306,5.0442,5.0341,5.0375,5.0459,5.0459,5.0493,5.0443,0.0,4.7478,0.0,0.0,4.8425,4.8379,4.864,4.8551,4.8303,4.7779,4.7917,4.8094,4.8332,4.8155,4.8024,4.8024,4.8179,4.8286,4.8286,4.8286,4.8263,4.8208,4.8007,4.762,4.7018,4.7004,4.6872,0.0,0.0,0.0,0.0,0.0,0.0,0.0,0.0,0.0,0.0,0.0,4.8387,4.8261,4.9,4.8977,4.8513,4.8513,4.8177,4.7728,4.7728,4.7638,4.7519,4.7519,4.7414,4.7309,4.7309,4.7309,4.7309,4.7309,4.7309,4.7309,4.7309,4.7309,4.7309,4.7309,4.7309,4.7309,4.7309,4.7309,4.7309,4.7309,4.7309,4.7145,4.6614,4.651,0.0,0.0,0.0,0.0,0.0,0.0,0.0,0.0,0.0,0.0,4.5723,0.0,0.0,0.0,4.7453,4.8117,4.9384,4.9619,5.0009,0.0,0.0,5.0684,5.0684,0.0,5.0684,5.0684,5.0684,5.0684,5.0684,5.0684,5.0684,5.0684,5.0684,5.0685,5.0719,5.0805,5.0959,5.1145,5.0994,5.1028,5.1162,5.1162,5.1196,5.1212,0.0,0.0,0.0,0.0,0.0,4.8709,4.9156,4.9304,4.9081,4.8263,4.8527,4.8808,4.8831,4.8808,4.8808,4.8808,4.8648,4.8548,4.8548,4.8548,4.8433,4.8208,4.817,4.8024,4.7718,4.7718,4.7689,0.0,0.0,4.7802,0.0,0.0,0.0,0.0,0.0,0.0,0.0,4.9149,4.9202,4.9179,4.9262,4.9247,4.9202,4.9202,4.9179,4.9097,4.9097,4.8723,4.8214,4.8214,4.7803,4.7309,4.7309,4.7309,4.7309,4.7309,4.7309,4.7309,4.7309,4.7309,4.7309,4.7309,4.7309,4.7309,4.7309,4.7309,4.7309,4.7309,4.7309,4.7279,4.7219,4.7219,4.7189,0.0,0.0,0.0,0.0,0.0,0.0,0.0,0.0,0.0,0.0,4.7966,0.0,0.0,5.0231,5.0739,5.0889,5.1658,5.2121,5.2192,5.2192,5.2192,5.2192,5.2192,5.2192,5.2192,5.2192,5.2192,5.2192,5.2192,5.2192,5.2192,5.2192,5.2247,5.2389,5.2771,5.284,5.2702,5.2668,5.2685,5.2702,5.2702,5.2806,5.296,0.0,0.0,0.0,0.0,0.0,0.0,5.0152,5.0249,5.0144,4.9799,4.9807,4.9901,5.0035,4.9933,4.9869,4.9869,4.9886,4.9918,4.9918,4.9918,4.9872,4.9769,4.9657,4.9339,4.8834,4.8664,4.8451,0.0,0.0,0.0,0.0,0.0,0.0,0.0,0.0,4.9292,4.9307,4.9688,4.9853,4.9883,5.0287,5.0197,4.9853,4.9853,4.9613,4.9292,4.9292,4.9127,4.8902,4.8902,4.8199,4.7309,4.7309,4.7309,4.7309,4.7309,4.7309,4.7309,4.7309,4.7309,4.7309,4.7309,4.7309,4.7309,4.7309,4.7309,4.7309,4.7309,4.7309,4.7309,4.7309,4.7309,4.7309,4.7309,0.0,0.0,0.0,0.0,0.0,0.0,0.0,0.0,0.0,4.8532,4.9463,0.0,5.0612,5.1324,5.1837,5.2214,5.2391,5.2391,0.0,5.2391,5.2391,5.2391,5.2391,5.2391,5.2391,5.2391,5.2391,5.2391,5.2445,5.2517,5.264,5.2816,5.2955,5.299,5.311,5.3246,5.3127,5.3161,5.3263,5.3263,5.3314,5.3382,4.9637,0.0,5.0498,5.0851,5.0917,5.0917,5.0917,5.0917,5.0917,5.0917,5.0805,5.0757,5.0893,5.0805,5.0701,5.0701,5.0837,5.0917,5.0917,5.0917,5.0878,5.0807,5.0647,0.0,4.9817,4.9613,4.9378,4.9077,4.9155,0.0,0.0,0.0,0.0,0.0,4.986,4.986,4.989,5.0308,5.048,5.0548,5.1011,5.0922,5.048,5.048,5.0242,4.986,4.986,4.9741,4.9576,4.9576,4.8828,4.7878,4.7878,4.7878,4.7848,4.7653,4.7593,4.7549,4.7354,4.7309,4.7309,4.7309,4.7309,4.7309,4.7309,4.7309,4.7309,4.7309,4.7309,4.7309,4.7309,4.7309,4.7309,4.7309,0.0,0.0,0.0,4.7309,0.0,0.0,4.7309,4.7402,4.7666,4.8974,0.0,0.0,0.0,5.1745,5.2356,5.2391,5.2391,0.0,0.0,0.0,5.2391,5.2391,5.2391,5.2391,5.2391,5.2391,5.2391,5.2445,5.2535,5.2694,5.2903,5.3059,5.3196,5.311,5.3246,5.3484,5.3348,5.3365,5.3501,5.3501,5.3501,5.3501,5.1129,5.0973,5.0878,5.1144,5.1191,5.1191,5.1191,5.1191,5.1191,5.1191,5.1191,5.1191,5.1191,5.1191,5.1191,5.1191,5.1191,5.1191,5.1191,5.1191,5.1097,0.0,0.0,5.0704,5.0486,5.0486,5.0486,5.0486,0.0,0.0,4.9895,0.0,5.0548,5.1176,5.1176,5.1176,5.1176,5.1176,5.1191,5.1191,5.1191,5.1191,5.1191,5.1191,5.1176,5.1176,5.1176,5.0757,5.0181,5.0181,4.9778,4.9284,4.9284,4.9284,4.9142,4.8483,4.8304,4.8154,4.7474,4.7309,4.7309,4.7309,4.7309,4.7309,4.7309,4.7309,4.7309,4.7309,4.7309,4.7309,4.7309,4.7309,4.7309,4.7309,0.0,0.0,0.0,0.0,0.0,4.7309,4.7309,4.7645,4.8511,4.9323,0.0,0.0,0.0,5.239,0.0,0.0,0.0,5.2391,5.2391,0.0,5.2391,5.2391,5.2391,5.2391,5.2391,5.2391,5.2391,5.2535,5.2712,5.2903,5.311,5.3196,5.323,5.3399,5.3501,5.3501,5.3501,5.3501,5.3501,5.3501,5.3501,5.3501,5.0917,5.1011,5.1097,5.1191,5.1191,5.1191,5.1191,5.1191,5.1191,5.1191,5.1191,5.1191,5.1191,5.1191,5.1191,0.0,5.1191,5.1191,0.0,5.1191,5.1167,5.1097,5.1058,5.105,5.097,5.079,5.0704,5.0704,0.0,0.0,0.0,5.0845,5.0996,5.1191,5.1191,5.1191,5.1191,5.1191,5.1191,5.1191,5.1191,5.1191,5.1191,5.1191,5.1191,5.1191,5.1191,5.1056,5.0892,5.0892,5.0742,5.0601,5.0601,5.001,4.9247,4.9037,4.8977,4.8932,4.8723,4.8334,4.7982,4.7982,4.7638,4.7309,4.7309,4.7309,4.7309,4.7309,4.7309,4.7309,4.7309,4.7309,4.7309,4.7309,4.7309,0.0,4.7309,0.0,4.8193,4.8193,4.8682,4.9101,4.9383,5.019,0.0,0.0,0.0,0.0,0.0,0.0,0.0,0.0,5.2391,0.0,5.2391,5.2391,5.2391,5.2391,5.2391,5.2445,5.2552,5.2851,5.3041,5.311,5.3331,5.3399,5.3399,5.3467,5.3501,5.3501,5.3501,5.3501,5.3501,5.3501,5.3501,5.3501,5.0964,5.1097,5.1191,5.1191,5.1191,5.1191,5.1191,5.1191,5.1191,5.1191,5.1191,5.1191,5.1191,5.1191,5.1191,5.1191,5.1191,5.1191,5.1191,5.1191,5.1191,5.1191,5.1191,5.1191,5.1191,5.1035,0.0,5.0964,5.0964,5.1035,5.1191,5.1191,5.1191,5.1191,5.1191,5.1191,5.1191,5.1191,5.1191,5.1191,5.1191,5.1191,5.1191,5.1191,5.1191,5.1191,5.1191,5.1191,5.1191,5.1191,5.1191,5.1191,5.1191,5.0661,4.9942,4.9703,4.9628,4.9583,4.9352,4.8992,4.8678,4.8678,4.8364,4.7982,4.7728,4.7474,4.7309,4.7309,4.7309,4.7309,4.7309,4.7309,4.7309,4.7309,4.7309,4.7309,4.7309,0.0,4.8235,0.0,0.0,0.0,0.0,5.0783,5.1231,0.0,0.0,0.0,0.0,0.0,5.2391,5.2391,5.2391,5.2391,5.2391,5.2391,5.2391,5.2391,5.2445,5.2605,5.2834,5.3076,5.3247,5.3315,5.345,5.3501,5.3501,5.3501,5.3501,5.3501,5.3501,5.3501,5.3501,5.3501,5.3501,5.3501,5.1251,5.1265,5.128,5.1325,5.1325,5.1325,5.1325,5.1325,5.1325,5.1325,5.1325,5.1325,5.1325,5.1325,5.1325,5.1325,5.1251,5.1191,5.1191,5.1191,5.1191,5.1191,5.1191,5.1191,5.1191,5.1191,5.1191,5.1191,5.1191,5.1191,5.1191,5.1191,5.1191,5.1191,5.1191,5.1191,5.1191,5.1191,5.1191,5.1191,5.1191,5.1191,5.1191,5.1191,5.1191,5.1191,5.1191,5.1191,5.1191,5.1191,5.1191,5.1191,5.1191,5.1191,5.1071,5.0458,5.0255,5.0144,4.9591,4.9396,4.9352,4.9352,4.9322,4.9127,4.8513,4.7848,4.7369,4.7369,4.7339,4.7309,4.7309,4.7309,4.7309,4.7309,4.7309,4.7309,4.7309,4.7337,4.7715,0.0,0.0,0.0,5.1027,5.1194,5.1526,0.0,0.0,0.0,0.0,0.0,5.2409,5.2391,5.2391,5.2391,5.2391,5.2391,5.2391,5.2409,5.257,5.2834,5.3196,5.3213,5.3315,5.3501,5.3501,5.3501,5.3501,5.3501,5.3501,5.3501,5.3501,5.3501,5.3501,5.3501,5.3501,5.3501,5.1872,5.1962,5.2127,5.2636,5.2734,5.2734,5.2734,5.2734,5.2734,5.2734,5.2734,5.2734,5.2734,5.2734,5.2734,5.2734,5.1798,5.1191,5.1191,5.1191,5.1191,5.1191,5.1191,5.1191,5.1191,5.1191,5.1191,5.1191,5.1191,5.1191,5.1191,5.1191,5.1191,5.1191,5.1191,5.1191,5.1191,5.1191,5.1191,5.1191,5.1191,5.1191,5.1191,5.1191,5.1191,5.1191,5.1191,5.1191,5.1191,5.1191,5.1191,5.1191,5.1191,5.1191,5.1161,5.1011,5.0966,5.0922,5.0795,5.0368,4.9994,4.9994,4.9628,4.9247,4.9097,4.8543,4.8057,4.8057,4.7653,4.7309,4.7309,4.7309,4.7309,4.7309,4.7309,4.7309,4.7309,4.787,4.8615,0.0,5.0112,5.0932,5.198,5.2087,5.2178,0.0,0.0,5.2391,5.2391,5.2498,5.2516,5.2391,5.2391,5.2391,5.2391,5.2391,5.2445,5.2552,5.2886,5.311,5.3196,5.3365,5.345,5.3501,5.3501,5.3501,5.3501,5.3501,5.3501,5.3501,5.3501,5.3501,5.3501,5.3501,5.3501,5.3501,5.2576,5.265,5.2755,5.3139,5.3198,5.3198,5.3198,5.3198,5.3198,5.3198,5.3198,5.3198,5.3198,5.3198,5.3198,5.3198,5.2531,5.2112,5.2112,5.2112,5.1977,5.1678,5.1678,5.1505,5.1206,5.1191,5.1191,5.1191,5.1191,5.1191,5.1191,5.1191,5.1191,5.1191,5.1191,5.1191,5.1191,5.1191,5.1191,5.1191,5.1191,5.1191,5.1191,5.1191,5.1191,5.1191,5.1191,5.1191,5.1191,5.1191,5.1191,5.1191,5.1191,5.1191,5.1191,5.1191,5.1191,5.1191,5.1191,5.0936,5.0667,5.0667,5.0174,4.9703,4.9703,4.9232,4.8768,4.8768,4.8207,4.7758,4.7758,4.7519,4.7309,4.7309,4.7645,4.7892,4.7892,4.8303,4.9035,5.0248,5.0461,5.0992,5.2284,5.2391,5.2391,5.2391,5.2463,0.0,5.2481,5.2658,5.2676,5.2498,5.257,5.2623,5.2623,5.2623,5.2711,5.2868,5.3093,5.3247,5.3348,5.345,5.3501,5.3501,5.3501,5.3501,5.3501,5.3501,5.3501,5.3501,5.3501,5.3501,5.3501,5.3501,5.3501,5.3501,5.3333,5.3363,5.3393,5.3483,5.3513,5.3513,5.3513,5.3513,5.3513,5.3513,5.3513,5.3513,5.3513,5.3513,5.3513,5.3513,5.3513,5.3423,5.3213,5.3198,5.2959,5.2381,5.2351,5.2082,5.1505,5.1385,5.1295,5.1191,5.1191,5.1191,5.1191,5.1191,5.1191,5.1191,5.1191,5.1191,5.1191,5.1191,5.1191,5.1191,5.1191,5.1191,5.1191,5.1191,5.1191,5.1191,5.1191,5.1191,5.1191,5.1191,5.1191,5.1191,5.1191,5.1191,5.1191,5.1191,5.1191,5.1191,5.1191,5.1191,5.1191,5.1191,5.0772,5.0345,5.0345,4.9883,4.9441,4.9441,4.8917,4.8453,4.8453,4.7982,4.7607,4.7632,4.8261,4.8743,4.878,0.0,4.9358,5.0914,5.0442,5.0634,5.2232,5.2391,5.2409,5.2427,5.2535,5.2606,5.2641,5.2834,5.2868,5.2694,5.2834,5.2903,5.2903,5.2921,5.3024,5.3196,5.323,5.3332,5.3501,5.3501,5.3501,5.3501,5.3501,5.3501,5.3501,5.3501,5.3501,5.3501,5.3501,5.3501,5.3501,5.3501,5.3501,5.3501,5.3937,5.4042,5.4221,5.479,5.488,5.488,5.488,5.488,5.488,5.488,5.488,5.488,5.488,5.488,5.488,5.488,5.488,5.4426,5.3273,5.3198,5.3154,5.3064,5.3049,5.3004,5.2899,5.2336,5.1768,5.1191,5.1191,5.1191,5.1191,5.1191,5.1191,5.1191,5.1191,5.1191,5.1191,5.1191,5.1191,5.1191,5.1191,5.1191,5.1191,5.1191,5.1191,5.1191,5.1191,5.1191,5.1191,5.1191,5.1191,5.1191,5.1191,5.1191,5.1191,5.1191,5.1191,5.1191,5.1191,5.1191,5.1191,5.1191,5.1116,5.1041,5.1041,5.0533,5.0069,5.0069,4.9568,4.9142,4.9142,4.9052,4.9027,4.913,4.9257,4.9434,4.9602,0.0,4.9978,5.097,5.097,5.1287,5.2302,5.2391,5.2445,5.257,5.2589,5.2659,5.2834,5.3041,5.3127,5.311,5.2972,5.2903,5.2903,5.3059,5.3161,5.3196,5.3365,5.3467,5.3501,5.3501,5.3501,5.3501,5.3501,5.3501,5.3501,5.3501,5.3501,5.3501,5.3501,5.3501,5.3501,5.3501,5.3501,5.3501,5.4685,5.4745,5.4835,5.5149,5.5194,5.5194,5.5194,5.5194,5.5194,5.5194,5.5194,5.5194,5.5194,5.5194,5.5194,5.5194,5.5194,5.4925,5.4336,5.4291,5.4102,5.3743,5.3728,5.3563,5.3213,5.2914,5.2576,5.2276,5.1917,5.1753,5.1738,5.137,5.1191,5.1191,5.1191,5.1191,5.1191,5.1191,5.1191,5.1191,5.1191,5.1191,5.1191,5.1191,5.1191,5.1191,5.1191,5.1191,5.1191,5.1191,5.1191,5.1191,5.1191,5.1191,5.1191,5.1191,5.1191,5.1191,5.1191,5.1191,5.1191,5.1191,5.1191,5.1191,5.1191,5.0966,5.0742,5.0742,5.0219,4.9778,4.9778,4.9898,4.9867,4.9469,5.0605,5.1408,5.0994,5.1363,5.1843,5.2279,5.1969,5.1878,5.2353,5.2463,5.2535,5.2605,5.2799,5.2955,5.3059,5.3247,5.3365,5.3365,5.328,5.3229,5.3229,5.3314,5.3365,5.3365,5.3467,5.3501,5.3501,5.3501,5.3501,5.3501,5.3501,5.3501,5.3501,5.3501,5.3501,5.3501,5.3501,5.3501,5.3501,5.3501,5.3501,5.3501,5.5194,5.5194,5.5194,5.5194,5.5194,5.5194,5.5194,5.5194,5.5194,5.5194,5.5194,5.5194,5.5194,5.5194,5.5194,5.5194,5.5194,5.5194,5.5194,5.5194,5.497,5.4461,5.4446,5.4117,5.3453,5.3414,5.3363,5.3198,5.268,5.2426,5.2411,5.1917,5.1565,5.143,5.143,5.134,5.1191,5.1191,5.1191,5.1191,5.1191,5.1191,5.1191,5.1191,5.1191,5.1191,5.1191,5.1191,5.1191,5.1191,5.1191,5.1191,5.1191,5.1191,5.1191,5.1191,5.1191,5.1191,5.1191,5.1191,5.1191,5.1191,5.1191,5.1191,5.1191,5.1191,5.1191,5.1191,5.0787,5.042,5.042,5.0779,5.0866,5.0247,0.0,5.3283,5.2593,5.3109,5.3624,5.3713,5.3189,5.2864,5.301,5.3122,5.3211,5.3246,5.3544,5.3735,5.3769,5.3771,5.3687,5.3518,5.3501,5.3501,5.3501,5.3501,5.3501,5.3501,5.3501,5.3501,5.3501,5.3501,5.3501,5.3501,5.3501,5.3501,5.3501,5.3501,5.3501,5.3501,5.3501,5.3501,5.3501,5.3501,5.3501,5.3501,5.5194,5.5194,5.5194,5.5194,5.5194,5.5194,5.5194,5.5194,5.5194,5.5194,5.5194,5.5194,5.5194,5.5194,5.5194,5.5194,5.5194,5.5194,5.5194,5.5194,5.5164,5.5119,5.5119,5.4805,5.4147,5.4132,5.3817,5.3198,5.3154,5.3139,5.3139,5.3079,5.271,5.2127,5.2127,5.1798,5.1191,5.1191,5.1191,5.1191,5.1191,5.1191,5.1191,5.1191,5.1191,5.1191,5.1191,5.1191,5.1191,5.1191,5.1191,5.1191,5.1191,5.1191,5.1191,5.1191,5.1191,5.1191,5.1191,5.1191,5.1191,5.1191,5.1191,5.1191,5.1191,5.1191,5.1191,5.1191,5.1161,5.1131,5.1131,5.1858,5.2502,5.2627,0.0,0.0,5.4312,5.438,5.4475,5.4684,5.4649,5.4687,5.4892,5.4911,5.4983,5.5179,5.5215,5.532,5.5495,5.4888,5.4211,5.3518,5.3501,5.3501,5.3501,5.3501,5.3501,5.3501,5.3501,5.3501,5.3501,5.3501,5.3501,5.3501,5.3501,5.3501,5.3501,5.3501,5.3501,5.3501,5.3501,5.3501,5.3501,5.3501,5.3501,5.3501,5.5194,5.5194,5.5194,5.5194,5.5194,5.5194,5.5194,5.5194,5.5194,5.5194,5.5194,5.5194,5.5194,5.5194,5.5194,5.5194,5.5194,5.5194,5.5194,5.5194,5.5194,5.5194,5.5194,5.5074,5.482,5.482,5.4685,5.4456,5.4012,5.3817,5.3803,5.3384,5.3064,5.2815,5.2815,5.2441,5.1828,5.1828,5.1588,5.1191,5.1191,5.1191,5.1191,5.1191,5.1191,5.1191,5.1191,5.1191,5.1191,5.1191,5.1191,5.1191,5.1191,5.1191,5.1191,5.1191,5.1191,5.1191,5.1191,5.1191,5.1191,5.1191,5.1191,5.1191,5.1191,5.1191,5.1191,5.1191,5.1191,5.1191,5.1191,5.2448,5.3293,5.2788,0.0,5.565,5.524,5.5685,5.5967,5.5703,5.5654,5.5524,5.5147,5.5204,5.5312,5.5383,5.5523,5.5612,5.5699,5.5428,5.5158,5.487,5.4853,5.4431,5.3518,5.3501,5.3501,5.3501,5.3501,5.3501,5.3501,5.3501,5.3501,5.3501,5.3501,5.3501,5.3501,5.3501,5.3501,5.3501,5.3501,5.3501,5.3501,5.3501,5.3501,5.3501,5.5194,5.5194,5.5194,5.5194,5.5194,5.5194,5.5194,5.5194,5.5194,5.5194,5.5194,5.5194,5.5194,5.5194,5.5194,5.5194,5.5194,5.5194,5.5194,5.5194,5.5194,5.5194,5.5194,5.5194,5.5194,5.5194,5.5194,5.5194,5.4745,5.4521,5.4506,5.4027,5.3722,5.3503,5.3503,5.3129,5.2501,5.2501,5.2127,5.1505,5.1505,5.1385,5.1191,5.1191,5.1191,5.1191,5.1191,5.1191,5.1191,5.1191,5.1191,5.1191,5.1191,5.1191,5.1191,5.1191,5.1191,5.1191,5.1191,5.1191,5.1191,5.1191,5.1191,5.1191,5.1191,5.1191,5.1191,5.1191,5.1191,5.1191,5.1191,5.2493,5.3452,5.3102,5.4907,5.6264,5.6074,5.665,5.6974,5.6677,5.6645,5.6462,5.6015,5.6091,5.6198,5.6198,5.6305,5.6274,5.6054,5.6037,5.5936,5.5716,5.5699,5.5209,5.4211,5.3957,5.3856,5.3839,5.3619,5.3501,5.3501,5.3501,5.3501,5.3501,5.3501,5.3501,5.3501,5.3501,5.3501,5.3501,5.3501,5.3501,5.3501,5.3501,5.3501,5.3501,5.5194,5.5194,5.5194,5.5194,5.5194,5.5194,5.5194,5.5194,5.5194,5.5194,5.5194,5.5194,5.5194,5.5194,5.5194,5.5194,5.5194,5.5194,5.5194,5.5194,5.5194,5.5194,5.5194,5.5194,5.5194,5.5194,5.5194,5.5194,5.5194,5.5194,5.5194,5.5194,5.485,5.4221,5.4221,5.3832,5.3213,5.3213,5.2824,5.2202,5.2202,5.1813,5.1191,5.1191,5.1191,5.1191,5.1191,5.1191,5.1191,5.1191,5.1191,5.1191,5.1191,5.1191,5.1191,5.1191,5.1191,5.1191,5.1191,5.1191,5.1191,5.1191,5.1191,5.1191,5.1191,5.1191,5.1191,5.1191,5.1214,5.1214,5.1214,5.198,5.2925,5.3848,5.4911,5.5939,5.6875,5.7176,5.7383,5.7569,5.7606,5.768,5.7881,5.79,5.79,5.79,5.79,5.7577,5.685,5.6816,5.6478,5.5733,5.5716,5.5716,5.5716,5.4972,5.46,5.46,5.3873,5.3518,5.3518,5.3518,5.3518,5.3518,5.3518,5.3518,5.3518,5.3501,5.3501,5.3501,5.3501,5.3501,5.3501,5.3501,5.3501,5.3501,5.5194,5.5194,5.5194,5.5194,5.5194,5.5194,5.5194,5.5194,5.5194,5.5194,5.5194,5.5194,5.5194,5.5194,5.5194,5.5194,5.5194,5.5194,5.5194,5.5194,5.5194,5.5194,5.5194,5.5194,5.5194,5.5194,5.5194,5.5194,5.5194,5.5194,5.5194,5.5194,5.5089,5.4895,5.4895,5.4521,5.3907,5.3907,5.3249,5.2202,5.2202,5.1813,5.1191,5.1191,5.1191,5.1191,5.1191,5.1191,5.1191,5.1191,5.1191,5.1191,5.1191,5.1191,5.1191,5.1191,5.1191,5.1191,5.1191,5.1191,5.1191,5.1191,5.1191,5.1191,5.1191,5.1191,5.1191,5.1191,5.1719,5.217,5.217,5.3443,5.4642,5.5055,5.5935,5.6782,5.7346,5.7476,5.7588,5.779,5.7808,5.7827,5.7881,5.79,5.79,5.79,5.79,5.7797,5.7577,5.756,5.7459,5.7256,5.7239,5.7239,5.7239,5.6004,5.5361,5.5361,5.5141,5.5039,5.5039,5.5039,5.5039,5.5006,5.4499,5.4262,5.4228,5.3721,5.3501,5.3501,5.3501,5.3501,5.3501,5.3501,5.3501,5.3501,5.5194,5.5194,5.5194,5.5194,5.5194,5.5194,5.5194,5.5194,5.5194,5.5194,5.5194,5.5194,5.5194,5.5194,5.5194,5.5194,5.5194,5.5194,5.5194,5.5194,5.5194,5.5194,5.5194,5.5194,5.5194,5.5194,5.5194,5.5194,5.5194,5.5194,5.5194,5.5194,5.5194,5.5194,5.5194,5.497,5.4596,5.4596,5.3982,5.2965,5.2695,5.2187,5.1573,5.1295,5.1191,5.1261,5.1627,5.1526,5.1261,5.1627,5.1503,5.1191,5.1191,5.1191,5.1191,5.1191,5.1191,5.1191,5.1191,5.1191,5.1191,5.1191,5.1191,5.1191,5.1191,5.1191,5.1191,5.1191,5.165,5.2147,5.2538,5.3558,5.4626,5.5446,5.6211,5.6899,5.7497,5.7662,5.7753,5.7881,5.79,5.79,5.79,5.79,5.79,5.79,5.79,5.79,5.79,5.79,5.79,5.79,5.79,5.79,5.79,5.7019,5.6427,5.6122,5.5834,5.5699,5.5699,5.5699,5.5699,5.5682,5.5243,5.504,5.5006,5.4549,5.438,5.438,5.438,5.438,5.4329,5.4042,5.394,5.389,5.5194,5.5194,5.5194,5.5194,5.5194,5.5194,5.5194,5.5194,5.5194,5.5194,5.5194,5.5194,5.5194,5.5194,5.5194,5.5194,5.5194,5.5194,5.5194,5.5194,5.5194,5.5194,5.5194,5.5194,5.5194,5.5194,5.5194,5.5194,5.5194,5.5194,5.5194,5.5194,5.5194,5.5194,5.5194,5.5194,5.5194,5.5194,5.4775,5.4057,5.3453,5.2755,5.2052,5.143,5.1191,5.1308,5.217,5.1934,5.1316,5.2192,5.1911,5.1191,5.1191,5.1191,5.1191,5.1191,5.1191,5.1191,5.1191,5.1191,5.1191,5.1191,5.1191,5.1191,5.1191,5.1191,5.1191,5.1191,5.1261,5.1627,5.2583,5.296,5.372,5.5486,5.6083,5.6624,5.7497,5.779,5.79,5.79,5.79,5.79,5.79,5.79,5.79,5.79,5.79,5.79,5.79,5.79,5.79,5.79,5.79,5.79,5.79,5.79,5.756,5.6884,5.6206,5.5902,5.5902,5.5902,5.5902,5.5885,5.5834,5.58,5.5783,5.5733,5.5699,5.5699,5.5699,5.5699,5.5614,5.4955,5.4702,5.46,5.5194,5.5194,5.5194,5.5194,5.5194,5.5194,5.5194,5.5194,5.5194,5.5194,5.5194,5.5194,5.5194,5.5194,5.5194,5.5194,5.5194,5.5194,5.5194,5.5194,5.5194,5.5194,5.5194,5.5194,5.5194,5.5194,5.5194,5.5194,5.5194,5.5194,5.5194,5.5194,5.5194,5.5194,5.5194,5.5194,5.5194,5.5194,5.4506,5.3408,5.3258,5.2471,5.1385,5.1251,5.1191,5.1238,5.1433,5.1363,5.1238,5.1433,5.1363,5.1191,5.1191,5.1191,5.1191,5.1191,5.1191,5.1191,5.1191,5.1191,5.1191,5.1191,5.1191,5.1191,5.1191,5.1191,5.1191,5.1191,5.1773,5.2635,5.373,5.4521,5.5486,5.692,5.7239,5.7424,5.779,5.7863,5.79,5.79,5.79,5.79,5.79,5.79,5.79,5.79,5.79,5.79,5.79,5.79,5.79,5.79,5.79,5.79,5.79,5.79,5.7832,5.7645,5.7492,5.7408,5.7408,5.7408,5.7408,5.7391,5.6816,5.6562,5.6528,5.5936,5.5699,5.5699,5.5699,5.5699,5.5682,5.5513,5.5462,5.5428,5.5194,5.5194,5.5194,5.5194,5.5194,5.5194,5.5194,5.5194,5.5194,5.5194,5.5194,5.5194,5.5194,5.5194,5.5194,5.5194,5.5194,5.5194,5.5194,5.5194,5.5194,5.5194,5.5194,5.5194,5.5194,5.5194,5.5194,5.5194,5.5194,5.5194,5.5194,5.5194,5.5194,5.5194,5.5194,5.5194,5.5164,5.4865,5.4311,5.3608,5.298,5.2291,5.1648,5.131,5.1479,5.1934,5.2374,5.2798,5.3026,5.2154,5.1865,5.1773,5.1354,5.1191,5.1191,5.1191,5.1191,5.1191,5.1191,5.1191,5.1191,5.1191,5.1191,5.1191,5.1191,5.1191,5.1191,5.1191,5.1696,5.2583,5.403,5.4833,5.5783,5.7348,5.768,5.7772,5.7881,5.79,5.79,5.79,5.79,5.79,5.79,5.79,5.79,5.79,5.79,5.79,5.79,5.79,5.79,5.79,5.79,5.79,5.79,5.79,5.79,5.79,5.79,5.79,5.79,5.79,5.79,5.7883,5.7492,5.7323,5.7289,5.6917,5.6748,5.6748,5.6748,5.6748,5.6714,5.6341,5.5986,5.5699,5.5194,5.5194,5.5194,5.5194,5.5194,5.5194,5.5194,5.5194,5.5194,5.5194,5.5194,5.5194,5.5194,5.5194,5.5194,5.5194,5.5194,5.5194,5.5194,5.5194,5.5194,5.5194,5.5194,5.5194,5.5194,5.5194,5.5194,5.5194,5.5194,5.5194,5.5194,5.5194,5.5194,5.5194,5.5194,5.5134,5.4985,5.4446,5.4087,5.3773,5.265,5.2127,5.2001,5.1596,5.1934,5.2725,5.3654,5.4364,5.46,5.3108,5.2493,5.2215,5.1456,5.1191,5.1191,5.1191,5.1191,5.1191,5.1191,5.1191,5.1214,5.1261,5.1261,5.1284,5.1323,5.1284,5.1261,5.1261,5.1471,5.223,5.4052,5.4667,5.5506,5.735,5.779,5.79,5.79,5.79,5.79,5.79,5.79,5.79,5.79,5.79,5.79,5.79,5.79,5.79,5.79,5.79,5.79,5.79,5.79,5.79,5.79,5.79,5.79,5.79,5.79,5.79,5.79,5.79,5.79,5.79,5.79,5.79,5.79,5.79,5.79,5.79,5.79,5.79,5.7832,5.7205,5.6613,5.6071,5.5194,5.5194,5.5194,5.5194,5.5194,5.5194,5.5194,5.5194,5.5194,5.5194,5.5194,5.5194,5.5194,5.5194,5.5194,5.5194,5.5194,5.5194,5.5194,5.5194,5.5194,5.5194,5.5194,5.5194,5.5194,5.5194,5.5194,5.5194,5.5194,5.5194,5.5194,5.5194,5.5194,5.5194,5.5194,5.488,5.4341,5.4251,5.3533,5.2456,5.2276,5.1858,5.1404,5.2147,5.2493,5.2725,5.3654,5.3545,5.2925,5.268,5.2056,5.1363,5.1238,5.1191,5.1191,5.1191,5.1191,5.1191,5.1191,5.1191,5.1261,5.1494,5.1541,5.161,5.1849,5.1718,5.1541,5.1541,5.1764,5.254,5.4458,5.4854,5.5547,5.7536,5.7881,5.79,5.79,5.79,5.79,5.79,5.79,5.79,5.79,5.79,5.79,5.79,5.79,5.79,5.79,5.79,5.79,5.79,5.79,5.79,5.79,5.79,5.79,5.79,5.79,5.79,5.79,5.79,5.79,5.79,5.79,5.79,5.79,5.79,5.79,5.79,5.79,5.79,5.79,5.7798,5.7697,5.7594,5.5194,5.5194,5.5194,5.5194,5.5194,5.5194,5.5194,5.5194,5.5194,5.5194,5.5194,5.5194,5.5194,5.5194,5.5194,5.5194,5.5194,5.5194,5.5194,5.5194,5.5194,5.5194,5.5194,5.5194,5.5194,5.5194,5.5466,5.5977,5.5466,5.5194,5.5194,5.5194,5.4999,5.464,5.464,5.4266,5.3608,5.3249,5.274,5.2172,5.1798,5.1782,5.2025,5.2448,5.324,5.4221,5.5169,5.4902,5.403,5.3545,5.3102,5.2583,5.1526,5.1191,5.1191,5.1191,5.1308,5.1424,5.1424,5.1518,5.1687,5.1787,5.181,5.1834,5.1964,5.1994,5.1964,5.1857,5.2017,5.2726,5.4563,5.5018,5.5723,5.7608,5.79,5.79,5.79,5.79,5.79,5.79,5.79,5.79,5.79,5.79,5.79,5.79,5.79,5.79,5.79,5.79,5.79,5.79,5.79,5.79,5.79,5.79,5.79,5.79,5.79,5.79,5.79,5.79,5.79,5.79,5.79,5.79,5.79,5.79,5.79,5.79,5.79,5.79,5.79,5.79,5.79,5.7954]}]]